[[[{"header":{"parameterUnit":"kt","parameterCategory":2,"dx":1,"dy":1,"la1":29.587661999999998,"la2":31.0,"lo1":-88.76705300000003,"lo2":-86.6583820000003,"nx":115,"ny":88,"refTime":"2022-10-17T06:00:00:Z","depth":0,"parameterNumber":1,"parameterNumberName":"U-component_of_WINDS"},"data":[2.7385,2.7536,2.9276,3.0218,3.1152,3.4637,3.654,3.7158,3.9183,3.9997,3.9997,3.9997,3.9997,3.9997,3.9997,3.9978,4.0129,4.028,4.2417,4.4993,4.5708,4.8027,5.0046,5.1041,5.1419,5.1647,5.2132,5.394,5.6687,5.9457,6.2427,6.5872,6.6407,6.8055,6.8957,6.8986,6.8986,6.8986,6.8966,6.8961,6.9827,7.1238,7.34,7.4974,7.653,7.7365,7.7891,7.7891,7.7924,7.7924,7.7924,7.7924,7.7924,7.7924,7.7924,7.7924,7.7924,7.7924,7.7924,7.7924,7.7924,7.7924,7.7924,7.7924,7.8145,7.8642,7.8407,7.7952,7.7921,7.7989,7.7989,7.8086,7.8332,7.9935,8.0801,8.0749,8.161,8.2971,8.393,8.4071,8.4071,8.4071,8.4071,8.4071,8.4071,8.4516,8.4516,8.4516,8.4516,8.4516,8.4516,8.4516,8.4516,8.4516,8.4516,8.4516,8.3981,8.3625,8.3268,8.3232,8.3339,8.366,8.3981,8.4409,8.4516,8.4516,8.4516,8.4516,8.4516,8.4516,8.4516,8.4516,8.4516,8.4516,8.4516,2.7398,2.7385,2.77,2.8789,3.0832,3.3063,3.5123,3.7004,3.9201,3.9997,3.9997,3.9997,3.9997,3.9997,3.9997,3.9997,3.9997,3.9997,4.1122,4.3256,4.4993,4.7279,4.9181,5.0684,5.1309,5.1455,5.149,5.3186,5.5148,5.8309,6.1126,6.351,6.6074,6.884,6.8957,6.8986,6.8986,6.8986,6.8966,6.8997,6.9584,7.0632,7.2134,7.365,7.5101,7.6557,7.7562,7.7924,7.7924,7.7924,7.7924,7.7924,7.7924,7.7924,7.7924,7.7924,7.7924,7.7924,7.7924,7.7924,7.7924,7.7924,7.7924,7.7924,7.7924,7.8115,7.8115,7.7956,7.7956,7.7924,7.7924,7.7987,7.7938,7.8575,7.8885,7.9011,8.068,8.2343,8.2814,8.3138,8.3138,8.3138,8.3138,8.3247,8.3612,8.4278,8.4516,8.4516,8.4516,8.4516,8.4516,8.4516,8.4516,8.4481,8.4481,8.4053,8.3303,8.3054,8.3125,8.3339,8.3589,8.3981,8.4302,8.4516,8.4516,8.4516,8.4516,8.4516,8.4516,8.4516,8.4516,8.4516,8.4516,8.4516,8.4516,2.7658,2.7398,2.7385,2.8014,2.9262,3.2269,3.4167,3.5591,3.8574,3.9997,3.9997,3.9997,3.9997,3.9997,3.9997,3.9997,3.9997,3.9997,4.1122,4.2838,4.4893,4.6683,4.8603,5.0533,5.1089,5.1552,5.1552,5.2374,5.4326,5.751,6.0547,6.3035,6.5826,6.8171,6.8986,6.8986,6.8986,6.8986,6.8986,6.9033,6.9173,7.0214,7.1587,7.2633,7.4093,7.5631,7.6761,7.7562,7.7793,7.7924,7.7924,7.7924,7.7924,7.7924,7.7924,7.7924,7.7924,7.7924,7.7924,7.7924,7.7924,7.7924,7.7924,7.7924,7.7924,7.7924,7.7924,7.7924,7.7924,7.7924,7.7924,7.7989,7.8009,7.8,7.8299,7.8748,7.9996,8.1312,8.1738,8.2036,8.2229,8.2307,8.2574,8.2651,8.3289,8.4069,8.4516,8.4516,8.4516,8.4516,8.4516,8.4516,8.4516,8.4516,8.4338,8.3732,8.2875,8.2804,8.2911,8.3339,8.391,8.4302,8.4516,8.4516,8.4516,8.4516,8.4516,8.4516,8.4516,8.4516,8.4516,8.4516,8.4516,8.4516,8.4516,2.8113,2.7758,2.758,2.7489,2.7864,3.1327,3.3063,3.4026,3.7709,3.9484,3.9997,3.9997,3.9997,3.9997,3.9997,3.9997,3.9997,4.0129,4.0992,4.2122,4.3839,4.5639,4.7779,4.9457,5.0906,5.1285,5.1686,5.206,5.3675,5.6371,5.95,6.2058,6.5302,6.7796,6.883,6.8986,6.8986,6.8986,6.8986,6.9054,6.9062,7.0025,7.0935,7.2055,7.3314,7.4994,7.6184,7.7097,7.7793,7.7924,7.7924,7.7924,7.7924,7.7924,7.7924,7.7924,7.7924,7.7924,7.7924,7.7924,7.7924,7.7924,7.7924,7.7924,7.7924,7.7924,7.7924,7.7924,7.7924,7.7924,7.7989,7.7989,7.7987,7.8084,7.8247,7.8781,7.9418,8.0132,8.0736,8.1023,8.119,8.1519,8.1957,8.2504,8.3145,8.3578,8.3927,8.4378,8.431,8.4481,8.4414,8.4516,8.4516,8.4409,8.416,8.3625,8.2626,8.2376,8.2198,8.3161,8.4267,8.4445,8.4516,8.4516,8.4516,8.4516,8.4516,8.4516,8.4516,8.4516,8.4516,8.4516,8.4516,8.4516,8.4516,2.8869,2.8359,2.8177,2.784,2.7753,2.9909,3.1966,3.39,3.6138,3.8168,3.9864,3.9997,3.9997,3.9997,3.9997,3.9997,3.9997,3.9997,4.0411,4.0411,4.2564,4.4505,4.6343,4.7911,5.0022,5.1151,5.1552,5.1686,5.287,5.5449,5.8363,6.0494,6.4289,6.7164,6.8646,6.8986,6.8986,6.8986,6.8986,6.8986,6.9112,6.9208,6.9773,7.1085,7.2778,7.4266,7.5558,7.6863,7.7924,7.7924,7.7924,7.7924,7.7924,7.7924,7.7924,7.7924,7.7924,7.7924,7.7924,7.7924,7.7924,7.7924,7.7924,7.7924,7.7924,7.7924,7.7924,7.7924,7.7924,7.7924,7.7924,7.7989,7.8117,7.8277,7.8311,7.8469,7.8874,7.9303,7.9722,7.9901,8.0166,8.0821,8.1239,8.1957,8.2622,8.2435,8.2834,8.3718,8.3963,8.4275,8.4378,8.4516,8.4516,8.4481,8.4195,8.3696,8.259,8.1805,8.1341,8.2126,8.4017,8.4481,8.4516,8.4516,8.4516,8.4516,8.4516,8.4516,8.4516,8.4516,8.4516,8.4516,8.4516,8.4516,8.4516,2.9268,2.8921,2.8385,2.8113,2.8173,2.9727,3.1888,3.3967,3.4687,3.6992,3.9846,3.9997,3.9997,3.9997,3.9997,3.9997,3.9997,3.9997,3.9978,4.0561,4.1954,4.3795,4.5696,4.7757,4.9571,5.0858,5.1552,5.1552,5.243,5.4866,5.7782,6.0127,6.3372,6.6366,6.8189,6.8801,6.883,6.8986,6.8986,6.8986,6.8986,6.9112,6.9208,7.0236,7.2379,7.3488,7.4485,7.6895,7.7694,7.7924,7.7924,7.7924,7.7924,7.7924,7.7924,7.7924,7.7924,7.7924,7.7924,7.7924,7.7924,7.7924,7.7924,7.7924,7.7924,7.7924,7.7924,7.7924,7.7924,7.7924,7.7924,7.7989,7.8311,7.8531,7.8373,7.815,7.8407,7.8531,7.872,7.8814,7.9303,7.9956,8.0651,8.1438,8.1863,8.1602,8.2022,8.2681,8.2758,8.3612,8.4378,8.4516,8.4516,8.4516,8.4374,8.4017,8.3589,8.3161,8.2198,8.234,8.3767,8.4516,8.4516,8.4516,8.4374,8.4516,8.4516,8.4516,8.4516,8.4516,8.4516,8.4516,8.4516,8.4516,8.4516,2.984,2.9294,2.8879,2.8606,2.8594,2.9653,3.1489,3.3828,3.3991,3.5867,3.9346,3.9769,3.9997,3.9997,3.9997,3.9997,3.9997,3.9997,3.9997,4.0411,4.1271,4.3463,4.537,4.7059,4.9135,5.0699,5.1552,5.1577,5.204,5.3028,5.5923,5.9126,6.2049,6.4789,6.6694,6.7934,6.849,6.8732,6.8986,6.8986,6.8986,6.8986,6.8986,6.9679,7.1472,7.2839,7.3935,7.6009,7.733,7.7793,7.7924,7.7924,7.7924,7.7924,7.7924,7.7924,7.7924,7.7924,7.7924,7.7924,7.7924,7.7924,7.7924,7.7924,7.7924,7.7924,7.7924,7.7924,7.7924,7.7924,7.7924,7.7924,7.8053,7.8214,7.815,7.8086,7.8086,7.8214,7.8214,7.8407,7.8564,7.9153,7.9756,8.0513,8.1381,8.1058,8.0851,8.0886,8.1394,8.3401,8.4378,8.4516,8.4516,8.4516,8.4409,8.4017,8.4231,8.4374,8.3482,8.3232,8.4088,8.4445,8.4516,8.3946,8.284,8.3089,8.416,8.4516,8.4516,8.4516,8.4516,8.4516,8.4516,8.4516,8.4516,3.0411,2.993,2.9891,2.9528,2.9112,2.9395,3.0527,3.2356,3.3807,3.5746,3.7884,3.9402,3.9807,3.9902,3.9997,3.9997,3.9997,3.9997,3.9997,4.028,4.0411,4.2693,4.4523,4.6007,4.8166,5.0222,5.1552,5.1552,5.1577,5.2381,5.3602,5.6236,5.974,6.2458,6.4465,6.6077,6.7564,6.8576,6.8986,6.8986,6.8986,6.8986,6.8986,6.943,7.0542,7.2,7.3345,7.4994,7.6455,7.733,7.7891,7.7924,7.7924,7.7924,7.7924,7.7924,7.7924,7.7924,7.7924,7.7924,7.7924,7.7924,7.7924,7.7924,7.7924,7.7924,7.7924,7.7924,7.7924,7.7924,7.7924,7.7924,7.7924,7.7924,7.7924,7.7924,7.7924,7.7989,7.7989,7.7989,7.815,7.8814,7.9519,8.0098,8.1183,8.1011,8.1186,8.1104,8.2467,8.431,8.4414,8.4516,8.4516,8.4516,8.4124,8.3696,8.3874,8.4481,8.3874,8.366,8.3874,8.4267,8.4231,8.3553,8.1769,8.1876,8.3803,8.4516,8.4516,8.4516,8.4516,8.4516,8.4516,8.4516,8.4516,3.0658,3.0437,3.0086,2.9814,2.971,3.0034,3.0315,3.0953,3.2359,3.5239,3.7705,3.7374,3.8312,4.0106,4.0301,3.9997,3.9997,3.9997,3.9997,3.9997,3.9997,4.163,4.3592,4.5256,4.7288,4.923,5.0654,5.1552,5.1552,5.1552,5.2174,5.3878,5.6928,5.9659,6.2095,6.4702,6.7016,6.842,6.8986,6.8986,6.8986,6.8986,6.8986,6.943,7.0207,7.1412,7.2403,7.4093,7.5873,7.6525,7.723,7.7924,7.7924,7.7924,7.7924,7.7924,7.7924,7.7924,7.7924,7.7924,7.7924,7.7924,7.7924,7.7924,7.7924,7.7924,7.7924,7.7924,7.7924,7.7924,7.7924,7.7924,7.7924,7.7924,7.7924,7.7924,7.7989,7.8086,7.8086,7.7989,7.8247,7.9245,8.0078,8.0667,8.1265,8.1474,8.1714,8.2892,8.4103,8.4414,8.4516,8.4516,8.4516,8.4516,8.4195,8.3696,8.3946,8.4445,8.4409,8.4231,8.4338,8.3839,8.3874,8.3553,8.3125,8.3161,8.4195,8.4516,8.4516,8.4516,8.4516,8.4516,8.4516,8.4516,8.4516,3.0761,3.0736,3.0372,3.0203,3.0268,3.0619,3.0567,3.0345,3.1552,3.4132,3.713,3.6953,3.8218,4.0088,4.047,4.0072,4.0054,3.9997,3.9997,3.9997,3.9997,4.1191,4.2942,4.4859,4.6807,4.8613,5.0447,5.1552,5.1552,5.1552,5.1552,5.1857,5.4305,5.6686,5.9406,6.3094,6.6595,6.8576,6.8986,6.8986,6.8986,6.8986,6.9015,6.9015,6.9773,7.0634,7.1381,7.3426,7.4994,7.5873,7.723,7.7891,7.7924,7.7924,7.7924,7.7924,7.7924,7.7924,7.7924,7.7924,7.7924,7.7924,7.7924,7.7924,7.7924,7.7924,7.7924,7.7924,7.7924,7.7924,7.7924,7.7924,7.7924,7.7924,7.7924,7.7924,7.815,7.8214,7.8502,7.8502,7.9001,8.0166,8.0685,8.1038,8.2011,8.24,8.3036,8.4174,8.4414,8.4516,8.4516,8.4516,8.4516,8.4516,8.4481,8.4231,8.4374,8.4516,8.4516,8.4516,8.3981,8.3411,8.3518,8.4088,8.4338,8.4516,8.4516,8.4516,8.4516,8.4516,8.4516,8.4516,8.4516,8.4516,8.4516,3.0577,3.0761,3.0736,3.0736,3.071,3.0761,3.0749,3.0658,3.0789,3.3001,3.6258,3.7531,3.9067,4.0412,4.0431,4.0256,4.0167,4.0168,4.0054,4.0016,4.0148,4.0982,4.2672,4.4339,4.602,4.8407,4.9768,5.0689,5.1552,5.1565,5.1614,5.2054,5.2655,5.4023,5.6516,6.1012,6.5317,6.8449,6.8859,6.8986,6.8986,6.8986,6.8986,6.9015,6.9334,6.9867,7.0754,7.2548,7.3872,7.5101,7.666,7.7562,7.7891,7.7924,7.7924,7.7924,7.7924,7.7924,7.7924,7.7924,7.7924,7.7924,7.7924,7.7924,7.7924,7.7924,7.7924,7.7924,7.7924,7.7924,7.7924,7.7924,7.7924,7.7924,7.7924,7.8086,7.8469,7.8687,7.9212,7.9576,8.0393,8.1156,8.1273,8.1682,8.2733,8.3541,8.4278,8.4516,8.4516,8.4516,8.4516,8.4516,8.4516,8.4516,8.4516,8.4516,8.4516,8.4516,8.4516,8.4516,8.4124,8.3696,8.3874,8.4338,8.4516,8.4516,8.4516,8.4516,8.4516,8.4516,8.4516,8.4516,8.4516,8.4516,8.4516,2.9059,3.0577,3.0761,3.0761,3.0761,3.0761,3.0761,3.0761,3.0761,3.2447,3.5099,3.7124,3.8842,4.0086,4.0162,4.0422,4.0848,4.0794,4.0471,4.0187,4.0016,4.0375,4.1258,4.2797,4.4784,4.6227,4.7518,4.9372,5.1127,5.1477,5.1928,5.2444,5.2712,5.403,5.6876,6.0934,6.5182,6.8136,6.8986,6.8986,6.8986,6.8986,6.8986,6.8986,6.8986,6.943,6.9991,7.1442,7.2892,7.4234,7.5663,7.6863,7.7562,7.7924,7.7924,7.7924,7.7924,7.7924,7.7924,7.7924,7.7924,7.7924,7.7924,7.7924,7.7924,7.7924,7.7924,7.7924,7.7924,7.7924,7.7924,7.7989,7.7989,7.815,7.815,7.8502,7.8874,7.9633,8.0132,8.0651,8.1156,8.1762,8.2036,8.2616,8.3504,8.4036,8.4449,8.4516,8.4516,8.4516,8.4516,8.4516,8.4516,8.4516,8.4516,8.4516,8.4516,8.4516,8.4516,8.4516,8.4516,8.4409,8.4445,8.4516,8.4516,8.4516,8.4516,8.4516,8.4516,8.4516,8.4516,8.4516,8.4516,8.4516,8.4516,2.8527,3.0693,3.08,3.0761,3.0761,3.0761,3.0761,3.0761,3.0761,3.1682,3.3062,3.4607,3.7044,3.9756,4.0632,4.1276,4.1604,4.1477,4.0984,4.0528,4.0111,3.9997,4.0711,4.2001,4.3358,4.4532,4.5565,4.7502,5.0246,5.1148,5.2195,5.3451,5.4152,5.5348,5.708,6.0396,6.407,6.6874,6.8443,6.8986,6.8986,6.8986,6.8986,6.8986,6.8986,6.8986,6.9334,7.0995,7.2348,7.3824,7.5558,7.6895,7.7793,7.7891,7.7924,7.7924,7.7924,7.7924,7.7924,7.7924,7.7924,7.7924,7.7924,7.7924,7.7924,7.7924,7.7924,7.7924,7.7924,7.7924,7.8022,7.7989,7.815,7.8311,7.8659,7.9001,7.9666,8.0565,8.1273,8.1922,8.2272,8.2504,8.3029,8.354,8.4001,8.4381,8.4449,8.4516,8.4516,8.4516,8.4516,8.4516,8.4516,8.4516,8.4516,8.4516,8.4516,8.4516,8.4516,8.4516,8.4516,8.4516,8.4516,8.4516,8.4516,8.4516,8.4516,8.4516,8.4516,8.4516,8.4516,8.4516,8.4516,8.4516,8.4516,2.8237,3.0713,3.0482,3.0392,3.0761,3.0761,3.0761,3.0761,3.0761,3.0761,3.1038,3.1233,3.4674,3.9133,4.148,4.2644,4.2578,4.1819,4.1553,4.1174,4.0566,4.0338,4.0566,4.1538,4.2657,4.3246,4.3739,4.5849,4.8489,5.0717,5.2632,5.4396,5.4909,5.647,5.8239,5.9926,6.2857,6.5432,6.8074,6.8859,6.8986,6.8986,6.8986,6.8986,6.8986,6.8986,6.9141,7.1145,7.2725,7.3488,7.5452,7.6895,7.7661,7.7891,7.7924,7.7924,7.7924,7.7924,7.7924,7.7924,7.7924,7.7924,7.7924,7.7924,7.7924,7.7924,7.7924,7.7924,7.7924,7.7924,7.8022,7.8086,7.8626,7.8968,7.9486,8.0112,8.1023,8.1797,8.2272,8.3064,8.354,8.3719,8.414,8.4071,8.4449,8.4449,8.4516,8.4516,8.4516,8.4516,8.4516,8.4516,8.4516,8.4516,8.4516,8.4516,8.4516,8.4516,8.4516,8.4516,8.4516,8.4516,8.4516,8.4516,8.4516,8.4516,8.4516,8.4516,8.4516,8.4516,8.4516,8.4516,8.4516,8.4516,8.4516,2.6629,3.0367,2.8647,2.9059,3.0774,3.0761,3.0761,3.0761,3.0761,3.0761,3.071,3.0959,3.3517,3.8361,4.2165,4.3728,4.3306,4.3243,4.2806,4.2104,4.1496,4.0919,4.0942,4.0662,4.1587,4.2798,4.2428,4.4255,4.7567,5.0526,5.2615,5.4567,5.5153,5.6202,5.7917,5.9654,6.143,6.4205,6.702,6.8588,6.8986,6.8986,6.8986,6.8986,6.8986,6.8986,6.9015,7.0114,7.1708,7.2809,7.453,7.6152,7.7562,7.7891,7.7924,7.7924,7.7924,7.7924,7.7924,7.7924,7.7924,7.7924,7.7924,7.7924,7.7924,7.7924,7.7924,7.7924,7.7924,7.7924,7.8086,7.8659,7.912,7.9633,8.034,8.1472,8.242,8.2462,8.2879,8.354,8.4071,8.4516,8.4516,8.4516,8.4516,8.4516,8.4516,8.4516,8.4516,8.4516,8.4516,8.4516,8.4516,8.4516,8.4516,8.4516,8.4516,8.4516,8.4516,8.4516,8.4516,8.4516,8.4516,8.4516,8.4516,8.4516,8.4516,8.4516,8.4552,8.4838,8.5016,8.4802,8.4873,8.4516,8.4588,2.3757,2.7422,2.7114,2.7921,2.9257,3.038,3.0761,3.0761,3.0761,3.0761,3.0761,3.0761,3.2096,3.577,4.2178,4.4058,4.3147,4.3352,4.3471,4.2939,4.2294,4.1635,4.1298,4.0923,4.0565,4.1301,4.1115,4.3066,4.67,4.9974,5.2582,5.4425,5.5177,5.6202,5.7963,5.893,6.0461,6.2548,6.4918,6.733,6.8627,6.8986,6.8986,6.8986,6.8986,6.8986,6.9179,6.9466,7.0964,7.2055,7.4025,7.5287,7.6562,7.7562,7.7924,7.7924,7.7924,7.7924,7.7924,7.7924,7.7924,7.7924,7.7924,7.7924,7.7924,7.7924,7.7924,7.7924,7.7924,7.7924,7.815,7.8564,7.9212,8.0166,8.0905,8.2115,8.3103,8.3177,8.3359,8.3966,8.4516,8.4516,8.4516,8.4516,8.4516,8.4516,8.4516,8.4516,8.4516,8.4516,8.4516,8.4516,8.4516,8.4516,8.4516,8.4516,8.4516,8.4516,8.4516,8.4516,8.4516,8.4516,8.4516,8.4516,8.4516,8.4516,8.4516,8.4766,8.5266,8.5444,8.5587,8.6443,8.7192,8.6657,8.6265,2.0658,2.3455,2.5555,2.679,2.735,2.9813,3.0761,3.0761,3.0761,3.0761,3.0761,3.0749,3.0802,3.2866,3.9914,4.2264,4.2355,4.3092,4.4002,4.3793,4.3072,4.235,4.1697,4.1446,4.091,4.0699,4.0209,4.2078,4.5409,4.9569,5.247,5.378,5.4746,5.6544,5.7398,5.8036,5.8833,6.0639,6.2578,6.5174,6.8004,6.8888,6.8986,6.8986,6.8986,6.8986,6.9083,6.9843,7.0725,7.1496,7.3829,7.5282,7.5855,7.7097,7.7793,7.7924,7.7924,7.7924,7.7924,7.7924,7.7924,7.7924,7.7924,7.7924,7.7924,7.7924,7.7924,7.7924,7.7924,7.7924,7.7989,7.8183,7.9187,8.0287,8.1073,8.235,8.3648,8.3612,8.3966,8.4516,8.4516,8.4516,8.4516,8.4516,8.4516,8.4516,8.4516,8.4516,8.4516,8.4516,8.4516,8.4516,8.4516,8.4516,8.4516,8.4516,8.4516,8.4516,8.4516,8.4516,8.4516,8.4516,8.4516,8.4516,8.4516,8.4516,8.498,8.548,8.6015,8.6479,8.7014,8.8013,8.9119,8.9047,8.8584,1.8939,2.3063,2.3667,2.5094,2.7164,2.964,3.0761,3.0761,3.0761,3.0761,3.0761,3.0761,3.0723,3.1784,3.4903,3.8527,4.1754,4.3591,4.431,4.414,4.3722,4.3462,4.2812,4.202,4.1094,4.087,4.06,4.1162,4.4276,4.8734,5.0836,5.228,5.3901,5.5494,5.669,5.7593,5.9079,6.0676,6.2513,6.4284,6.6641,6.8165,6.8986,6.8986,6.8986,6.8986,6.8986,6.9437,7.0025,7.1288,7.2898,7.4443,7.5608,7.7097,7.7891,7.7924,7.7924,7.7924,7.7924,7.7924,7.7924,7.7924,7.7924,7.7924,7.7924,7.7924,7.7924,7.7924,7.7924,7.7924,7.8119,7.8953,7.9687,8.0233,8.0821,8.1797,8.3103,8.4071,8.4449,8.4516,8.4516,8.4516,8.4516,8.4516,8.4516,8.4516,8.4516,8.4516,8.4516,8.4516,8.4516,8.4516,8.4516,8.4516,8.4516,8.4516,8.4516,8.4516,8.4516,8.4516,8.4516,8.4516,8.4516,8.4516,8.4588,8.5087,8.5694,8.6229,8.7335,8.8227,8.8584,8.9154,8.9939,9.0118,9.026,1.699,1.9532,2.0797,2.2831,2.5281,2.7932,2.9628,3.0577,3.0761,3.0761,3.0761,3.0761,3.0761,3.113,3.2205,3.4527,3.8236,4.1425,4.3169,4.3494,4.3878,4.4197,4.3503,4.2463,4.1793,4.1326,4.1409,4.1964,4.3254,4.7867,5.0373,5.1349,5.3927,5.5958,5.6983,5.7569,5.8387,5.9274,6.1053,6.3144,6.5596,6.6867,6.8193,6.8704,6.8986,6.8986,6.8986,6.8986,6.943,7.0361,7.2241,7.3622,7.4525,7.5447,7.6343,7.7661,7.7924,7.7924,7.7924,7.7924,7.7924,7.7924,7.7924,7.7924,7.7924,7.7924,7.7924,7.7924,7.7924,7.7924,7.8022,7.8506,7.9471,7.9989,7.9812,8.0989,8.2994,8.4105,8.4449,8.4516,8.4209,8.4001,8.4209,8.4449,8.4516,8.4516,8.4516,8.4516,8.4516,8.4516,8.4516,8.4516,8.4516,8.4516,8.4516,8.4516,8.4516,8.4516,8.4516,8.4516,8.4516,8.4516,8.4516,8.5052,8.5266,8.5729,8.655,8.8048,8.9119,9.0118,9.0367,9.0653,9.1045,9.1438,9.183,1.5625,1.5818,1.8292,2.0952,2.3408,2.6042,2.8478,3.038,3.0761,3.0761,3.0761,3.0761,3.0761,3.0761,3.0761,3.2442,3.6254,3.9854,4.1736,4.2082,4.3836,4.4498,4.4065,4.3174,4.2247,4.1876,4.2084,4.2193,4.3199,4.6294,4.8693,5.0932,5.3902,5.5934,5.6837,5.7788,5.8036,5.8487,6.0059,6.205,6.4152,6.5723,6.7146,6.8859,6.8986,6.8986,6.8986,6.8986,6.8986,6.9208,7.1674,7.2964,7.3747,7.4433,7.591,7.7398,7.7924,7.7924,7.7924,7.7924,7.7924,7.7924,7.7924,7.7924,7.7924,7.7924,7.7924,7.7924,7.7924,7.7924,7.7924,7.8119,7.8908,7.9666,7.9722,8.0219,8.2884,8.414,8.4381,8.3648,8.3467,8.3321,8.3861,8.4209,8.4381,8.4516,8.4516,8.4516,8.4516,8.4516,8.4516,8.4516,8.4516,8.4516,8.4516,8.4516,8.4516,8.4516,8.4516,8.4516,8.4516,8.4516,8.5408,8.655,8.7085,8.7656,8.8691,8.9975,9.101,9.1723,9.208,9.2365,9.2508,9.2615,9.3114,1.5625,1.5818,1.8292,2.0943,2.3408,2.5844,2.8107,3.0392,3.0761,3.0603,3.0761,3.0761,3.0761,3.0761,3.0761,3.3286,3.6798,3.9847,4.0694,4.139,4.372,4.4592,4.4573,4.3836,4.3148,4.2389,4.2565,4.164,4.1885,4.4068,4.7014,4.7778,5.1994,5.5035,5.5738,5.6812,5.7886,5.8113,5.9605,6.1119,6.2273,6.4748,6.6829,6.8576,6.8986,6.8986,6.8986,6.8986,6.8986,6.9083,7.0539,7.2069,7.3732,7.5608,7.7694,7.7727,7.7924,7.7924,7.7924,7.7924,7.7924,7.7924,7.7924,7.7924,7.7924,7.7924,7.7924,7.7924,7.7924,7.7924,7.7924,7.7924,7.815,7.8659,8.0078,8.0905,8.1967,8.3469,8.3215,8.2392,8.2272,8.2497,8.3103,8.3825,8.4209,8.4516,8.4516,8.4516,8.4516,8.4516,8.4516,8.4516,8.4516,8.4516,8.4516,8.4516,8.4516,8.4516,8.4516,8.4516,8.4516,8.5729,8.7442,8.8369,8.9547,9.0581,9.1616,9.1973,9.2437,9.3257,9.3507,9.3257,9.3435,9.3864,9.3792,1.5625,1.5625,1.6769,1.8868,2.1142,2.2453,2.5094,2.8328,2.8809,2.9381,3.0405,3.0761,3.0761,3.0761,3.0774,3.1748,3.4003,3.5278,3.6978,3.9996,4.3377,4.48,4.4837,4.4515,4.3717,4.2635,4.2517,4.1599,4.144,4.3627,4.6224,4.7783,5.1101,5.3999,5.6324,5.7373,5.7861,5.8213,5.8851,5.9299,6.0126,6.2931,6.5878,6.842,6.8986,6.8986,6.8986,6.8986,6.8986,6.9363,7.0418,7.183,7.3551,7.5292,7.6834,7.7628,7.7924,7.7924,7.7924,7.7924,7.7924,7.7924,7.7924,7.7924,7.7924,7.7924,7.7924,7.7924,7.7924,7.7924,7.7924,7.7924,7.8311,7.872,7.9245,8.0023,8.0905,8.1073,8.0821,8.1438,8.1273,8.1519,8.2194,8.3029,8.3397,8.3142,8.3215,8.386,8.386,8.4105,8.4209,8.4516,8.4516,8.4516,8.4516,8.4449,8.4449,8.4381,8.4592,8.4873,8.5872,8.7763,8.9475,9.0688,9.1901,9.3079,9.3007,9.3435,9.3685,9.3864,9.3864,9.3899,9.3935,9.3935,9.3935,1.5625,1.5625,1.5625,1.6954,1.9251,1.9625,2.2453,2.6989,2.7017,2.8508,3.0233,3.0761,3.0761,3.0761,3.0761,3.0761,3.1143,3.1498,3.3258,3.8075,4.2671,4.463,4.4951,4.4667,4.3888,4.2787,4.2191,4.1402,4.1272,4.3721,4.6601,4.8662,5.0997,5.3933,5.6929,5.7569,5.7886,5.7886,5.7861,5.8063,5.8763,6.1641,6.5293,6.8538,6.9004,6.9015,6.8986,6.8986,6.8986,6.9384,7.0647,7.2312,7.3551,7.5017,7.6599,7.7661,7.7924,7.7924,7.7924,7.7924,7.7924,7.7924,7.7924,7.7924,7.7924,7.7924,7.7924,7.7924,7.7924,7.7924,7.7924,7.7924,7.8214,7.8626,7.8564,7.8753,7.9846,7.9061,7.9061,7.9935,8.0166,8.0132,8.0786,8.2001,8.2462,8.1762,8.2159,8.2884,8.3289,8.3541,8.3966,8.4516,8.4449,8.4313,8.4313,8.4209,8.414,8.3966,8.4883,8.5622,8.812,9.0189,9.1473,9.2793,9.3935,9.3864,9.3614,9.3935,9.3935,9.3935,9.3935,9.3935,9.3935,9.3935,9.3935,1.5625,1.5625,1.5625,1.6962,1.9051,1.9625,2.2263,2.6263,2.6994,2.8496,3.0233,3.0761,3.0761,3.0761,3.0761,3.0761,3.0761,3.0761,3.3803,3.7705,4.1789,4.4555,4.4611,4.4287,4.3433,4.2446,4.0905,4.0312,4.0966,4.3618,4.6047,4.814,5.1052,5.3942,5.6344,5.752,5.7837,5.7886,5.7886,5.7845,5.8617,6.1468,6.516,6.8334,6.8924,6.9015,6.8986,6.8986,6.8986,6.8986,7.1681,7.3108,7.3725,7.6249,7.7661,7.7891,7.7924,7.7924,7.7924,7.7924,7.7924,7.7924,7.7924,7.7924,7.7924,7.7924,7.7924,7.7924,7.7924,7.7924,7.7924,7.7924,7.8053,7.815,7.815,7.7989,7.8247,7.8086,7.7989,7.8344,8.0112,8.0306,8.0651,8.1355,8.2497,8.077,8.1957,8.235,8.2392,8.3289,8.4174,8.4516,8.4381,8.4245,8.4001,8.4001,8.3931,8.3967,8.5132,8.7049,8.9547,9.1687,9.3186,9.3935,9.3935,9.3935,9.3935,9.3935,9.3935,9.3935,9.3935,9.3935,9.3935,9.3935,9.3935,1.5625,1.5625,1.5625,1.6197,1.7339,1.8868,2.1514,2.453,2.6405,2.8466,3.0392,3.0761,3.0761,3.0761,3.0761,3.0761,3.0761,3.0761,3.2739,3.6132,3.9487,4.2058,4.3746,4.3964,4.3072,4.1718,4.0625,4.0162,4.0338,4.1591,4.4596,4.7995,4.9881,5.303,5.6735,5.7739,5.7886,5.7886,5.7861,5.7893,5.8251,6.1502,6.5241,6.8122,6.9022,6.8986,6.8986,6.8986,6.8986,6.9554,7.1708,7.352,7.3743,7.6352,7.7891,7.7924,7.7924,7.7924,7.7924,7.7924,7.7924,7.7924,7.7924,7.7924,7.7924,7.7924,7.7924,7.7924,7.7924,7.7924,7.7924,7.7924,7.7924,7.7924,7.7924,7.7924,7.8022,7.7924,7.7924,7.8183,7.8659,7.9061,7.8814,7.9989,8.0166,8.02,8.1554,8.1877,8.1842,8.3397,8.4516,8.4516,8.4449,8.3896,8.3612,8.4071,8.4176,8.4529,8.5661,8.7799,9.0225,9.2579,9.3543,9.3935,9.3935,9.3935,9.3935,9.3935,9.3935,9.3935,9.3935,9.3935,9.3935,9.3935,9.3935,1.5625,1.5625,1.5625,1.5625,1.6004,1.8292,2.0761,2.3389,2.603,2.8322,3.0354,3.0761,3.0761,3.0761,3.0761,3.0761,3.0761,3.0761,3.2035,3.4556,3.6847,3.9606,4.1457,4.2479,4.2427,4.1245,4.0425,3.9993,4.0035,4.0547,4.3565,4.8756,4.9673,5.2558,5.6992,5.7861,5.7886,5.7886,5.7886,5.7844,5.8469,6.1529,6.5158,6.8581,6.9004,6.8986,6.8986,6.8986,6.8986,6.9238,7.1826,7.352,7.3743,7.6249,7.7924,7.7924,7.7924,7.7924,7.7924,7.7924,7.7924,7.7924,7.7924,7.7924,7.7924,7.7924,7.7924,7.7924,7.7924,7.7924,7.7924,7.7924,7.7924,7.7924,7.7924,7.7924,7.7924,7.7924,7.7924,7.8086,7.8564,7.8814,7.8908,7.9486,7.9989,7.9756,8.0939,8.2272,8.2504,8.3541,8.3142,8.3541,8.386,8.3432,8.3432,8.4071,8.4663,8.4948,8.6517,8.8549,9.0724,9.2936,9.3614,9.3935,9.3935,9.3935,9.3935,9.3935,9.3935,9.3935,9.3935,9.3935,9.3935,9.3935,9.3935,1.5625,1.5625,1.5625,1.5625,1.5811,1.8292,2.0761,2.3389,2.5866,2.8334,3.0354,3.0761,3.0761,3.0761,3.0761,3.0761,3.0761,3.0761,3.2021,3.4288,3.69,3.7941,3.8522,4.0631,4.1396,4.1079,4.0452,4.0073,4.0035,4.0886,4.4098,4.8604,5.0354,5.3518,5.6841,5.7837,5.7739,5.7861,5.7886,5.7968,5.8137,6.146,6.5107,6.8734,6.901,6.8986,6.8986,6.8986,6.8986,6.9363,7.1621,7.3181,7.3935,7.6352,7.7924,7.7924,7.7924,7.7924,7.7924,7.7924,7.7924,7.7924,7.7924,7.7924,7.7924,7.7924,7.7924,7.7924,7.7924,7.7924,7.7924,7.7924,7.7924,7.7924,7.7924,7.7924,7.7924,7.7924,7.7924,7.8247,7.9666,8.0565,7.927,8.0078,8.0565,8.0685,8.0821,8.2333,8.2984,8.2602,8.1831,8.1922,8.2546,8.2504,8.3212,8.3932,8.488,8.5593,8.7267,8.9119,9.1081,9.2793,9.3935,9.3935,9.3935,9.3935,9.3935,9.3935,9.3935,9.3935,9.3935,9.3935,9.3935,9.3935,9.3935,1.5625,1.5625,1.5625,1.5625,1.5818,1.8292,2.077,2.3418,2.5921,2.8364,3.0392,3.0761,3.0761,3.0761,3.0761,3.0761,3.0761,3.0761,3.1819,3.3779,3.7382,3.8895,3.8449,4.0279,4.1022,4.0471,4.013,3.9997,3.9997,4.0547,4.3155,4.7433,4.9712,5.2716,5.6419,5.6813,5.7181,5.7788,5.7886,5.7893,5.8672,6.1502,6.5241,6.8309,6.8935,6.9015,6.8986,6.8986,6.8986,6.9238,7.002,7.1621,7.352,7.6249,7.7924,7.7924,7.7924,7.7924,7.7924,7.7924,7.7924,7.7924,7.7924,7.7924,7.7924,7.7924,7.7924,7.7924,7.7924,7.7924,7.7924,7.7924,7.7924,7.7924,7.7924,7.7924,7.7924,7.7924,7.7924,7.8086,7.8753,7.8814,7.8626,7.8968,7.9153,7.9245,7.9722,8.1042,8.3182,8.2431,8.1842,8.1438,8.2159,8.2844,8.3173,8.393,8.4956,8.6413,8.7872,8.9511,9.1045,9.2615,9.3935,9.3935,9.3935,9.3935,9.3935,9.3935,9.3935,9.3935,9.3935,9.3935,9.3935,9.3935,9.3935,1.5625,1.5625,1.5625,1.5625,1.6004,1.9243,2.1514,2.3428,2.6761,2.9032,3.0405,3.0761,3.0761,3.0761,3.0761,3.0761,3.0749,3.1259,3.1937,3.3504,3.7677,3.9331,3.8958,4.0394,4.0832,4.0111,3.9997,3.9997,4.0129,4.0373,4.27,4.6721,4.894,5.1908,5.6031,5.6221,5.6713,5.7715,5.7886,5.7893,5.8175,6.1502,6.5241,6.8538,6.9004,6.8986,6.8986,6.8986,6.8986,6.8986,6.9015,7.0388,7.3376,7.6352,7.7891,7.7924,7.7924,7.7924,7.7924,7.7924,7.7924,7.7924,7.7924,7.7924,7.7924,7.7924,7.7924,7.7924,7.7924,7.7924,7.7924,7.7924,7.7924,7.7924,7.7924,7.7924,7.7924,7.7924,7.7924,7.7989,7.8247,7.8407,7.8469,7.9001,7.9193,7.9115,7.9685,8.0257,8.1794,8.0719,8.0374,8.1355,8.3142,8.4176,8.4001,8.4318,8.5305,8.6483,8.8015,8.9654,9.0938,9.233,9.3435,9.3935,9.3935,9.3935,9.3935,9.3935,9.3935,9.3935,9.3935,9.3935,9.3935,9.3935,9.3935,1.5625,1.5625,1.5625,1.5631,1.6576,2.0571,2.2841,2.4163,2.8317,3.0208,3.059,3.0761,3.0761,3.0761,3.0761,3.0723,3.0893,3.202,3.2676,3.297,3.6948,3.8545,3.8183,4.02,4.0699,4.0016,3.9997,3.9997,4.0167,4.1025,4.3164,4.6621,4.8266,5.1145,5.6104,5.5979,5.6641,5.7373,5.7666,5.782,5.827,6.146,6.5162,6.8517,6.9039,6.8986,6.8986,6.8986,6.8986,6.8986,6.8986,7.048,7.3356,7.6281,7.7924,7.7924,7.7924,7.7924,7.7924,7.7924,7.7924,7.7924,7.7924,7.7924,7.7924,7.7924,7.7924,7.7924,7.7924,7.7924,7.7924,7.7924,7.7924,7.7924,7.7924,7.7924,7.7924,7.7924,7.7924,7.8086,7.8626,7.9327,7.9599,7.9989,8.036,8.0063,8.042,8.0496,7.9218,7.8834,7.9178,8.1073,8.3215,8.4449,8.4516,8.4624,8.5587,8.655,8.7977,8.9404,9.0581,9.2401,9.3578,9.3935,9.3935,9.3935,9.3935,9.3935,9.3935,9.3935,9.3935,9.3935,9.3935,9.3935,9.3935,1.5625,1.5625,1.5625,1.6583,1.8292,1.9999,2.2642,2.5833,2.7594,2.9109,3.0551,3.0761,3.0761,3.0761,3.0761,3.0385,3.0,3.1823,3.3236,3.4134,3.7031,3.8747,3.9378,4.0071,4.0244,4.0016,3.9997,3.9997,4.0186,4.1565,4.3583,4.6187,4.7787,5.051,5.3365,5.4121,5.4549,5.5687,5.6421,5.646,5.6339,6.0732,6.5213,6.8409,6.9033,6.8986,6.8986,6.8986,6.8986,6.8986,6.8986,7.0321,7.3363,7.6266,7.7924,7.7924,7.7891,7.7924,7.7924,7.7924,7.7924,7.7924,7.7924,7.7924,7.7924,7.7924,7.7924,7.7924,7.7924,7.7924,7.7924,7.7924,7.7924,7.7924,7.7924,7.7924,7.7924,7.7924,7.7924,7.7989,7.8311,7.8469,7.8531,7.9486,8.0227,8.0836,8.0349,7.9565,7.83,7.8013,7.9061,8.2733,8.4105,8.4449,8.4516,8.4516,8.5194,8.5979,8.7192,8.8655,9.0153,9.2365,9.3721,9.3864,9.3935,9.3935,9.3935,9.3935,9.3935,9.3935,9.3935,9.3935,9.3935,9.3935,9.3935,1.5625,1.5625,1.6583,1.7916,1.9625,2.1514,2.3954,2.6966,2.7964,2.9306,3.0564,3.0761,3.0658,3.045,3.0255,2.9658,2.9159,3.1939,3.371,3.4432,3.741,3.9223,4.0016,3.9997,3.9997,3.9997,3.9997,4.0411,4.1102,4.2102,4.4129,4.6559,4.805,5.0108,5.2583,5.3417,5.4131,5.5177,5.6324,5.6467,5.6408,6.0691,6.4501,6.6831,6.7371,6.7619,6.7619,6.7619,6.7619,6.7619,6.7619,6.89,7.1802,7.3861,7.5463,7.7004,7.7628,7.7924,7.7924,7.7924,7.7924,7.7924,7.7924,7.7924,7.7924,7.7924,7.7924,7.7924,7.7924,7.7924,7.7924,7.7924,7.7924,7.7924,7.7924,7.7924,7.7924,7.7924,7.7924,7.7989,7.8311,7.8469,7.8814,7.912,7.9605,7.997,7.9714,7.9094,7.8311,7.8469,8.0132,8.3361,8.4516,8.4516,8.4516,8.4516,8.4695,8.5444,8.68,8.8512,8.9904,9.2008,9.3614,9.3828,9.3899,9.3935,9.3935,9.3935,9.3935,9.3935,9.3935,9.3935,9.3935,9.3935,9.3935,1.5625,1.6204,1.8292,1.9625,2.019,2.4718,2.6966,2.7548,2.9615,3.0538,3.0684,3.0749,3.0424,2.9801,2.9307,2.8736,2.8736,3.2266,3.3885,3.4123,3.7827,3.9827,3.9978,3.9997,3.9997,3.9997,3.9997,4.0842,4.2397,4.2671,4.4685,4.8305,4.8605,5.0085,5.2559,5.3688,5.4909,5.5543,5.6617,5.7349,5.7869,6.1117,6.3144,6.3807,6.4569,6.5321,6.5263,6.5176,6.5205,6.5176,6.5382,6.6611,6.908,6.9614,7.1731,7.5269,7.6904,7.7628,7.7694,7.7758,7.7857,7.7858,7.7924,7.7924,7.7924,7.7924,7.7924,7.7924,7.7924,7.7924,7.7924,7.7924,7.7924,7.7924,7.7924,7.7924,7.7924,7.8086,7.7989,7.8214,7.8968,7.9543,7.9599,7.9599,7.9575,7.9071,7.9262,7.9677,7.9141,7.9587,8.1287,8.3613,8.4516,8.4516,8.4516,8.4516,8.4516,8.5087,8.6693,8.9012,9.0189,9.1331,9.2793,9.3792,9.3864,9.3935,9.3935,9.3935,9.3935,9.3935,9.3935,9.3935,9.3935,9.3935,9.3935,1.6583,1.8292,1.9059,2.1514,2.5083,2.6405,2.8107,2.9628,3.0392,3.0541,3.0229,3.0606,3.0008,2.8615,2.8147,2.7775,2.7976,3.0476,3.2278,3.39,3.654,3.8574,3.9978,3.9997,3.9997,3.9997,3.9978,4.026,4.0823,4.2122,4.4706,4.8027,4.8605,4.9755,5.1748,5.2127,5.2468,5.2883,5.381,5.4024,5.41,5.817,6.2295,6.5246,6.5296,6.5118,6.5118,6.5118,6.5118,6.5118,6.606,6.7422,6.9277,7.0324,7.1891,7.4053,7.4669,7.5293,7.6313,7.6401,7.683,7.7824,7.7924,7.7924,7.7924,7.7924,7.7924,7.7924,7.7924,7.7924,7.7924,7.7924,7.7924,7.7924,7.7924,7.7924,7.7989,7.872,7.9027,7.9212,8.0078,8.0821,8.0905,8.1438,8.1623,8.1092,8.1541,8.2062,8.2583,8.2113,8.235,8.4209,8.4516,8.4516,8.4516,8.4516,8.4516,8.5052,8.6122,8.8048,8.9261,8.9654,9.0688,9.3721,9.3864,9.3935,9.3935,9.3935,9.3935,9.3935,9.3935,9.3935,9.3935,9.3935,9.3935,1.8676,2.0961,2.0952,2.321,2.6943,2.7881,2.9107,3.0372,3.0227,2.9953,2.9593,2.9437,2.9331,2.9005,2.785,2.8352,3.0071,3.211,3.3852,3.5107,3.7158,3.886,3.9978,3.9997,3.9997,3.9978,4.0031,4.0031,4.0653,4.3194,4.6492,4.9453,4.9726,5.0318,5.1468,5.2017,5.2078,5.2127,5.3152,5.2803,5.172,5.4975,5.8553,6.1414,6.1923,6.2006,6.2006,6.1977,6.2006,6.209,6.3198,6.4612,6.6056,6.7244,6.9059,7.1561,7.1874,7.2762,7.4767,7.5444,7.6193,7.7028,7.7594,7.7924,7.7924,7.7924,7.7924,7.7924,7.7924,7.7924,7.7924,7.7924,7.7924,7.7924,7.7924,7.7924,7.7989,7.8874,7.9509,7.9599,8.0905,8.1762,8.1519,8.2307,8.2671,8.2062,8.2074,8.2741,8.4147,8.3503,8.3321,8.4209,8.4516,8.4516,8.4516,8.4516,8.4516,8.4766,8.5836,8.6586,8.7513,8.8048,9.0225,9.34,9.3792,9.3935,9.3935,9.3935,9.3935,9.3935,9.3935,9.3935,9.3935,9.3935,9.3186,2.1133,2.3408,2.3349,2.4842,2.7397,2.9158,2.9853,2.9749,2.9317,2.9239,2.9186,2.7889,2.8585,3.0321,2.8984,3.0133,3.3537,3.5902,3.6867,3.7175,3.9049,3.9997,3.9978,3.9997,3.9997,4.0072,4.0022,4.0189,4.0653,4.525,4.8738,5.0847,5.1175,5.1077,5.1248,5.2029,5.2541,5.2639,5.3566,5.291,5.1009,5.2072,5.3742,5.5311,5.6948,5.7527,5.7818,5.7527,5.7632,5.7783,5.8974,6.0183,6.1515,6.2611,6.4946,6.8413,6.8849,6.9879,7.2531,7.4315,7.5094,7.5465,7.6669,7.7431,7.7694,7.7464,7.7366,7.7365,7.7431,7.7396,7.7691,7.8079,7.8175,7.7884,7.7985,7.8053,7.8053,7.8874,7.9509,7.9509,8.1519,8.2651,8.1877,8.2539,8.2838,8.2106,8.2229,8.2797,8.4179,8.3719,8.3647,8.4313,8.4516,8.4516,8.4516,8.4516,8.4516,8.4659,8.5765,8.5944,8.5729,8.7121,9.0011,9.2651,9.3935,9.3935,9.3935,9.3935,9.3935,9.3935,9.3685,9.3614,9.365,9.3328,9.1901,2.3786,2.5998,2.5623,2.6942,2.9132,2.9338,2.9281,2.9417,2.9292,2.9334,2.9305,2.7124,2.8683,3.2699,3.2509,3.2826,3.3852,3.5902,3.7021,3.7175,3.9031,3.9997,3.9997,3.9997,3.9997,4.0053,4.0002,4.0868,4.2483,4.5817,4.773,4.8097,4.87,4.8997,4.9007,4.924,4.9362,4.937,4.9581,5.1043,5.3581,5.3199,5.4665,5.7903,5.7828,5.7527,5.7527,5.7527,5.7991,5.8896,6.0092,6.1329,6.2548,6.375,6.4868,6.5675,6.5923,6.6252,6.6942,6.9282,7.1179,7.2378,7.3828,7.511,7.5925,7.449,7.3678,7.4447,7.4739,7.4955,7.5838,7.7852,7.8978,7.7579,7.8416,7.8614,7.8214,7.8874,7.9509,7.9778,8.1554,8.2914,8.2914,8.354,8.3966,8.379,8.379,8.3966,8.4381,8.4381,8.4209,8.4516,8.4516,8.4516,8.4516,8.4516,8.4516,8.4516,8.4909,8.4945,8.4873,8.498,8.7549,9.2115,9.3614,9.3935,9.3935,9.3828,9.3757,9.3685,9.2793,9.2115,9.2044,9.1331,8.9368,2.5242,2.7536,2.7027,2.7514,2.8749,2.8437,2.8152,2.8046,2.8558,2.8836,2.9188,3.0532,3.2398,3.4501,3.5954,3.6558,3.6677,3.7773,3.8403,3.8421,3.9486,3.9789,3.9506,3.9373,3.9598,3.9995,3.9289,4.0157,4.2966,4.7291,4.8285,4.6386,4.7602,4.8246,4.8271,4.8271,4.8189,4.8146,4.6706,4.7733,5.1398,4.9654,5.0081,5.3009,5.2554,5.2176,5.2176,5.2621,5.3089,5.3734,5.535,5.7125,5.909,6.0335,6.2375,6.5361,6.5593,6.6363,6.8217,6.9336,7.055,7.2023,7.3522,7.4537,7.5136,7.3112,7.2446,7.4025,7.263,7.2407,7.4271,7.6882,7.7871,7.6391,7.6896,7.7703,7.8252,7.8886,7.9729,8.0969,8.2229,8.3173,8.3612,8.4209,8.4516,8.4516,8.4516,8.4516,8.4516,8.4516,8.4516,8.4516,8.4516,8.4516,8.4516,8.4516,8.4516,8.4516,8.4516,8.4516,8.4516,8.4552,8.5979,8.8976,9.2187,9.3614,9.3935,9.2829,9.2294,9.233,9.158,9.0653,9.0439,8.9904,8.812,2.6203,2.8423,2.7515,2.7256,2.7256,2.7178,2.6866,2.6504,2.7923,2.8852,2.9434,3.4775,3.6796,3.6193,3.8823,4.0054,3.9807,3.9788,3.9881,3.9617,3.9786,3.9223,3.8568,3.8488,3.9119,3.9931,3.8603,3.9567,4.3233,4.8395,4.9135,4.6081,4.7201,4.7858,4.7785,4.7711,4.7631,4.7273,4.4734,4.4844,4.7772,4.587,4.534,4.6361,4.6562,4.6272,4.5894,4.6864,4.731,4.7519,4.9217,5.1344,5.4071,5.5304,5.8371,6.3911,6.4562,6.6318,6.9984,6.9762,7.0134,7.1971,7.3666,7.4102,7.3173,7.1836,7.2086,7.4154,7.1198,7.0208,7.303,7.539,7.6264,7.5079,7.5079,7.604,7.8198,7.8566,7.9334,8.1409,8.2348,8.2971,8.354,8.4168,8.4516,8.4516,8.4516,8.4516,8.4516,8.4516,8.4516,8.4516,8.4516,8.4516,8.4516,8.4516,8.4516,8.4516,8.4516,8.4516,8.4516,8.4516,8.4731,8.4766,8.9333,9.2544,9.2972,9.0724,8.9368,8.9832,8.894,8.8155,8.8334,8.7763,8.6728,2.7185,2.7489,2.6905,2.6671,2.6473,2.6165,2.5918,2.5904,2.827,0.0,0.0,3.4614,3.6411,3.8119,3.9438,3.9624,3.8934,3.8934,3.8573,3.7928,3.7928,3.7909,3.7728,3.7757,3.8538,3.9987,3.9723,4.1367,4.4835,4.7435,4.7954,4.6634,4.6806,4.6416,4.5631,4.5513,4.4654,4.3014,4.3514,4.5499,4.8962,4.9831,4.9823,4.9032,4.9064,4.8046,4.5981,4.6745,4.7676,4.865,4.9614,5.0866,5.224,5.2573,5.353,5.514,5.5304,5.6966,6.0619,6.1989,6.4288,6.8319,7.1167,7.0926,6.6425,6.8569,7.0833,7.2646,6.9741,6.8818,7.1517,7.4781,7.6034,7.402,7.4889,7.5952,7.679,7.6986,7.7282,7.7861,7.9666,8.1028,8.1315,8.3112,8.4516,8.4481,8.4409,8.4516,8.4516,8.4516,8.4516,8.4516,8.4516,8.4516,8.4516,8.4516,8.4516,8.4516,8.4516,8.4516,8.4516,8.4516,8.4516,8.4445,8.7442,8.9618,8.9832,8.7513,8.5622,8.5729,8.4588,8.3839,8.4766,8.3411,8.1662,2.5879,2.5646,2.5285,2.5191,0.0,2.592,2.6173,2.6394,2.7777,2.9741,3.2221,3.327,3.51,3.7491,3.9258,3.927,3.8099,3.8099,3.789,3.7652,3.8439,3.8584,3.8091,3.893,4.0073,4.1298,4.2024,4.3435,4.5146,4.6052,4.5757,4.4195,4.4195,4.3341,4.1646,4.1706,4.1867,4.2317,4.3914,4.6261,4.9389,4.8973,4.8429,4.7754,4.7784,0.0,0.0,0.0,0.0,0.0,0.0,0.0,0.0,5.2275,0.0,5.5431,5.387,5.4151,5.7139,5.7651,5.8984,6.1682,6.2877,6.2204,5.9364,6.1757,6.4822,6.7847,6.5816,6.5922,7.0026,7.1503,7.1905,7.1419,7.2611,7.3837,7.4645,7.5552,7.642,7.7096,7.8393,7.9554,8.0148,8.1471,8.2447,8.3232,8.3375,8.3625,8.4338,8.4516,8.4516,8.4516,8.4516,8.4516,8.4516,8.4516,8.4516,8.4409,8.3874,8.3767,8.4409,8.3268,8.2768,8.4267,8.4409,8.5123,8.6122,8.4338,8.2447,8.3018,8.2126,8.1234,8.0806,7.9807,7.8951,2.4652,2.4336,2.446,2.4554,2.4708,2.6742,2.787,2.805,2.8438,2.9662,3.1685,3.2621,3.407,3.6276,3.8482,3.8775,3.7244,3.7525,3.7709,3.7555,3.9288,3.966,3.9098,4.0363,4.1575,4.2612,4.4145,4.4943,4.4952,4.4952,4.4098,4.2414,4.2389,4.1291,3.9217,0.0,0.0,0.0,4.4882,4.73,4.9908,4.8306,4.7115,4.665,4.6621,0.0,4.7628,4.8498,4.9542,5.0667,5.1454,0.0,0.0,0.0,0.0,0.0,0.0,0.0,0.0,0.0,0.0,0.0,5.2801,5.2176,5.2715,5.5167,5.8386,6.2369,6.2863,6.4016,6.6538,6.6939,6.733,6.7897,6.9109,7.0799,7.3161,7.4802,7.6057,7.707,7.7668,7.8387,7.926,7.9772,8.0449,8.1591,8.2019,8.2376,8.2661,8.2412,8.3161,8.4409,8.4516,8.4374,8.3732,8.3518,8.3375,8.3584,8.2584,8.2213,8.2263,8.0568,8.0385,8.1876,8.0771,7.9986,8.2162,8.0862,7.9521,8.0809,7.9933,7.8692,7.7636,7.7385,7.766,2.5502,2.5886,2.6321,2.6622,2.6846,3.0158,3.1576,3.1707,3.3326,3.4212,3.4438,3.4645,3.5135,3.6238,3.7288,3.7327,3.639,3.7833,3.8197,3.7621,3.9254,3.9931,3.9908,4.0112,4.105,4.2566,4.4153,4.4943,4.4859,4.4952,4.4713,4.447,4.447,4.3488,4.1389,4.0696,4.0596,4.1118,4.558,4.8942,5.1203,5.2144,5.1536,4.9413,4.9296,4.8774,4.7719,4.8498,4.95,5.0667,5.1519,5.2437,5.3578,5.4027,5.2284,0.0,4.3568,0.0,0.0,0.0,0.0,0.0,0.0,0.0,0.0,5.1982,5.5292,5.7207,6.4674,6.5728,5.6887,6.2041,6.5455,6.4308,6.4312,6.7249,7.3992,7.5121,7.537,7.5562,7.6785,7.7685,7.7667,7.9094,7.9815,8.0021,8.0699,7.97,7.7167,7.6061,7.8023,8.3946,8.4516,8.3518,8.1127,8.0521,8.0485,8.0549,8.0625,7.9986,7.7206,7.7071,7.7218,7.674,7.6443,7.6193,7.6311,7.6683,7.6674,7.7072,7.6698,7.6375,7.6854,7.6731,7.6294,2.6458,2.6651,2.7295,2.8647,3.0138,3.172,3.2907,3.3815,3.4588,3.5548,3.6394,3.625,3.6332,3.645,3.6264,3.6547,3.7289,3.8073,3.8663,3.9021,4.0668,4.1463,4.1442,4.2372,4.3083,4.3862,4.4628,4.4867,4.4859,4.4952,4.4251,4.3219,4.3195,4.1726,3.908,3.9412,4.0449,4.1739,4.599,4.9685,5.2564,5.3276,5.3145,5.2038,5.2514,5.2894,5.2891,5.3146,5.3836,5.4932,5.463,5.3563,5.1791,5.2561,4.937,0.0,0.0,0.0,0.0,0.0,0.0,0.0,0.0,0.0,0.0,0.0,4.555,4.7077,5.3492,5.7275,5.6654,5.7404,5.7663,5.6975,5.7688,5.9222,6.1898,6.6786,6.8605,6.5251,6.9176,7.1959,7.1102,7.2351,7.3956,7.5776,7.3564,7.0068,6.5822,6.4788,6.832,7.7809,8.2305,8.2947,7.7988,7.7346,7.7346,7.731,7.7576,7.6888,7.422,7.5445,7.6591,7.5543,7.5752,7.6214,7.6178,7.6445,7.6518,7.6506,7.6345,7.6395,7.6838,7.6745,7.6518,2.7904,2.7804,2.8193,2.989,3.2271,3.2271,3.3065,3.4323,3.4349,3.4967,3.6084,3.6419,3.617,3.5669,3.5515,3.5853,3.6845,3.7433,3.853,3.9916,4.1921,4.2684,4.2768,4.4213,4.4952,4.4952,4.4891,4.4744,4.4561,4.4782,4.3653,4.1497,4.1317,3.9728,3.6682,3.8944,4.1155,4.3154,4.7077,5.0544,5.3513,5.3572,5.3796,5.4059,5.4984,5.5881,5.7008,5.6884,5.7168,5.786,5.6059,5.3465,5.0258,4.7607,0.0,0.0,0.0,0.0,0.0,0.0,0.0,0.0,0.0,3.0816,2.6792,0.0,3.7769,0.0,4.285,4.7808,5.5138,5.1323,0.0,0.0,5.1195,5.1373,5.1766,5.8366,6.1077,5.6368,6.1635,6.5394,6.4181,6.5394,6.7321,6.9604,6.6179,6.1113,5.5155,5.5298,6.085,7.2815,7.8594,7.9058,7.3528,7.2787,7.335,7.4343,7.4617,7.414,7.2525,7.4261,7.5752,7.5492,7.6381,7.728,7.7406,7.6949,7.6576,7.6291,7.6222,7.6222,7.6259,7.6065,7.5975,3.0282,2.9627,2.928,3.0067,3.1573,3.1613,3.197,3.2602,3.2655,3.2401,3.2109,3.39,3.3897,3.2641,3.538,0.0,3.2525,3.508,3.7465,3.9367,4.2075,4.3283,4.3295,4.4425,4.4952,4.4952,4.4908,4.4433,4.3615,4.4405,4.3233,4.0098,3.9949,3.8707,3.6373,4.0858,4.4013,4.5416,4.9398,5.2116,5.3542,5.3572,5.4155,5.5265,5.5328,5.587,5.6757,5.6763,5.6713,5.6421,5.2894,5.0423,4.9101,0.0,0.0,0.0,0.0,0.0,0.0,0.0,0.0,0.0,0.0,0.0,0.0,0.0,0.0,3.96,3.8892,0.0,4.7376,4.232,0.0,0.0,0.0,4.5523,5.1124,5.3621,5.4763,5.4263,0.0,0.0,5.9294,6.0614,6.1684,6.1934,6.2825,5.9579,4.9197,5.2801,6.0815,7.2636,7.3136,6.9961,6.591,6.6149,6.8191,7.1112,7.2782,7.2531,7.1846,7.2275,7.3278,7.461,7.7027,7.8462,7.8536,7.661,7.5242,7.4344,7.4174,7.4174,7.4226,7.3857,7.3541,2.9913,3.0044,2.8576,2.8328,2.8905,2.8926,3.0644,3.3607,3.3686,3.4257,3.5307,3.4486,3.3027,3.1245,3.0698,0.0,0.0,0.0,3.5575,3.8499,3.9571,4.0891,4.2328,4.2855,4.3058,4.3051,4.3057,4.3163,4.3514,4.3115,3.9305,3.214,0.0,0.0,3.1732,3.7064,4.0607,4.2547,4.8538,5.1983,5.2437,5.3223,5.4252,5.5328,5.5919,5.6423,5.6739,5.5681,5.4024,5.1509,4.8191,4.4091,0.0,0.0,0.0,0.0,0.0,0.0,0.0,0.0,0.0,0.0,0.0,2.6258,2.176,0.0,0.0,0.0,3.3241,3.4786,3.8143,4.1394,0.0,0.0,0.0,0.0,0.0,0.0,0.0,4.299,5.0446,5.5869,5.5904,5.5583,5.5048,5.4121,5.3728,5.3371,5.2765,0.0,5.3871,6.2526,6.2825,6.2103,6.2282,6.162,6.1559,6.3105,6.5828,6.7119,6.4955,6.7715,7.043,7.1581,7.386,7.56,7.5002,7.3876,7.3039,7.3702,7.388,7.388,7.388,7.3689,7.3269,2.7585,0.0,0.0,0.0,0.0,2.5577,2.7633,3.103,3.1034,3.1837,3.3134,3.1807,0.0,0.0,0.0,0.0,0.0,0.0,3.2935,3.5306,3.7969,3.9482,4.0199,4.0804,4.0979,4.0663,3.928,3.8983,3.9764,3.8267,3.3738,2.6326,0.0,0.0,0.0,0.0,3.7115,3.9951,4.6926,5.0879,5.1499,5.3288,5.4635,5.5542,5.6362,5.6383,5.5357,5.2988,5.0032,4.64,4.2056,0.0,0.0,0.0,0.0,0.0,0.0,0.0,0.0,0.0,0.0,0.0,0.0,0.0,0.0,0.0,0.0,0.0,0.0,0.0,2.9004,3.5788,3.8159,0.0,0.0,0.0,0.0,0.0,0.0,0.0,0.0,0.0,5.0053,5.0553,5.0945,0.0,0.0,5.1837,5.5833,5.2586,5.066,5.33,5.5182,0.0,5.7713,5.7005,5.6728,5.7678,6.1528,6.3969,6.2229,6.4247,6.6776,6.8806,7.0927,7.1226,6.8122,6.6739,6.6814,6.7898,6.8235,6.8272,6.8235,6.8235,6.8122,0.0,0.0,0.0,0.0,0.0,0.0,0.0,0.0,2.3254,2.2988,0.0,2.4447,0.0,0.0,0.0,0.0,2.2761,2.7375,0.0,0.0,3.7582,3.986,3.6623,3.8489,3.9121,3.7765,3.3232,3.1019,3.0812,2.8643,0.0,0.0,0.0,0.0,0.0,0.0,3.4483,3.8344,4.4669,4.8975,5.1144,5.3868,5.5511,5.5971,5.6456,5.527,5.2113,4.8233,4.481,4.1772,3.4166,0.0,0.0,0.0,0.0,0.0,0.0,0.0,0.0,0.0,0.0,0.0,0.0,0.0,0.0,0.0,0.0,0.0,0.0,0.0,0.0,2.2434,0.0,0.0,0.0,0.0,0.0,0.0,0.0,0.0,0.0,0.0,4.0674,4.5594,5.0517,5.3336,0.0,0.0,0.0,0.0,5.4013,4.8412,5.2479,5.4564,4.9689,5.1683,5.4847,5.7868,0.0,0.0,6.7909,6.3449,6.1294,6.7786,6.8721,6.6141,5.6607,5.5111,5.5186,5.5261,5.5485,5.4999,5.4999,5.5971,5.6345,0.0,0.0,0.0,0.0,0.0,0.0,0.0,0.0,0.0,2.246,0.0,2.2265,0.0,0.0,0.0,0.0,0.0,0.0,0.0,0.0,2.8384,3.0112,3.0871,3.14,3.157,0.0,2.6286,2.3408,0.0,0.0,0.0,0.0,0.0,0.0,0.0,0.0,3.3136,3.4794,4.3262,4.89,5.1087,5.2362,5.3851,5.5497,5.5588,5.3217,4.8145,4.2907,3.816,0.0,0.0,0.0,0.0,0.0,0.0,0.0,0.0,0.0,0.0,0.0,0.0,0.0,0.0,0.0,0.0,0.0,0.0,0.0,0.0,0.0,0.0,0.0,2.8261,0.0,0.0,0.0,0.0,0.0,0.0,0.0,0.0,0.0,3.5469,4.0813,4.5987,4.9055,5.1302,5.4263,5.8794,0.0,0.0,0.0,0.0,0.0,0.0,0.0,5.3338,5.1212,5.1967,5.3503,5.5688,5.2457,5.2307,6.0981,0.0,0.0,4.7746,4.8718,5.0924,5.0961,5.0924,5.0924,5.0924,5.1821,5.0737,0.0,0.0,0.0,0.0,0.0,0.0,0.0,0.0,0.0,1.8829,1.917,0.0,0.0,0.0,0.0,0.0,0.0,0.0,0.0,0.0,0.0,0.0,2.6624,2.6796,0.0,0.0,0.0,0.0,0.0,0.0,0.0,0.0,0.0,0.0,0.0,0.0,3.1469,3.2284,4.1983,4.7469,4.8151,5.0747,5.3398,5.5869,5.4609,5.1663,4.6753,0.0,0.0,0.0,0.0,0.0,0.0,0.0,0.0,0.0,0.0,0.0,0.0,0.0,0.0,0.0,0.0,0.0,0.0,0.0,0.0,0.0,0.0,0.0,0.0,0.0,2.779,0.0,0.0,0.0,0.0,0.0,0.0,0.0,0.0,0.0,0.0,0.0,4.0892,4.4985,4.7813,5.1566,5.7082,5.7335,5.7181,0.0,0.0,0.0,0.0,0.0,0.0,0.0,0.0,0.0,0.0,0.0,0.0,0.0,0.0,4.5465,3.8884,4.0343,4.2607,4.2607,0.0,0.0,0.0,0.0,0.0,0.0,0.0,0.0,0.0,0.0,0.0,0.0,0.0,0.0,0.0,1.1752,0.0,0.0,1.2159,0.0,0.0,0.0,0.0,0.0,0.0,0.0,0.0,0.0,0.0,0.0,0.0,0.0,0.0,0.0,0.0,0.0,0.0,0.0,0.0,0.0,0.0,2.9455,3.0766,4.0668,4.4696,4.2553,4.9208,5.4134,5.6666,5.3599,5.0464,4.7822,0.0,0.0,0.0,0.0,0.0,0.0,0.0,0.0,0.0,0.0,0.0,0.0,0.0,0.0,0.0,0.0,0.0,0.0,0.0,0.0,0.0,0.0,0.0,0.0,0.0,0.0,3.0823,2.9687,2.8628,0.0,0.0,0.0,0.0,0.0,0.0,0.0,0.0,0.0,4.1609,4.6625,5.015,5.1566,5.5222,5.8204,5.8981,5.9089,5.8027,5.4812,5.556,5.5992,0.0,0.0,0.0,0.0,0.0,0.0,0.0,0.0,0.0,0.0,0.0,0.0,0.0,0.0,0.0,0.0,0.0,0.0,0.0,0.0,0.0,0.0,0.0,0.0,0.0,0.0,0.0,0.0,0.0,0.0,0.0,0.0,0.0,0.0,0.0,0.0,0.0,0.0,0.0,0.0,0.0,0.0,0.0,0.0,0.0,0.0,0.0,0.0,0.0,0.0,0.0,0.0,0.0,0.0,2.9003,2.937,3.9451,4.3861,4.2237,4.691,5.068,5.3204,4.8987,4.4638,0.0,0.0,0.0,0.0,0.0,0.0,0.0,0.0,0.0,0.0,0.0,0.0,0.0,0.0,0.0,0.0,0.0,0.0,0.0,0.0,0.0,0.0,0.0,0.0,0.0,0.0,0.0,0.0,3.354,3.3096,2.8765,0.0,0.0,0.0,0.0,0.0,0.0,0.0,0.0,0.0,0.0,4.7171,4.8365,5.4369,5.8846,5.9066,6.1019,6.057,5.5036,5.5544,5.4459,4.8269,0.0,0.0,0.0,0.0,0.0,0.0,0.0,0.0,0.0,0.0,0.0,0.0,0.0,0.0,0.0,0.0,0.0,0.0,0.0,0.0,0.0,0.0,0.0,0.0,0.0,0.0,0.0,0.0,0.0,0.0,0.0,0.0,0.0,0.0,0.0,0.0,0.0,0.0,0.0,0.0,0.0,0.0,0.0,0.0,0.0,0.0,0.0,0.0,0.0,0.0,0.0,0.0,0.0,2.8008,2.8168,3.8152,4.3035,4.2307,4.5773,4.8653,5.075,4.6019,4.1175,0.0,0.0,0.0,0.0,0.0,0.0,0.0,0.0,0.0,0.0,0.0,0.0,0.0,0.0,0.0,0.0,0.0,0.0,0.0,0.0,0.0,0.0,0.0,0.0,0.0,0.0,0.0,0.0,3.0816,3.2548,2.8869,0.0,0.0,0.0,0.0,0.0,0.0,0.0,0.0,0.0,0.0,4.4327,5.0775,5.3739,0.0,0.0,5.8102,5.8588,5.3952,5.5635,5.4326,4.4867,4.2474,0.0,0.0,0.0,0.0,0.0,0.0,0.0,0.0,0.0,0.0,0.0,0.0,0.0,0.0,0.0,0.0,0.0,0.0,0.0,0.0,0.0,0.0,0.0,0.0,0.0,0.0,0.0,0.0,0.0,0.0,0.0,0.0,0.0,0.0,0.0,0.0,0.0,0.0,0.0,0.0,0.0,0.0,0.0,0.0,0.0,0.0,0.0,0.0,0.0,0.0,0.0,0.0,2.6718,2.7146,3.6907,4.2113,4.2277,4.5617,4.7931,4.8849,4.4069,3.9493,0.0,0.0,0.0,0.0,0.0,0.0,0.0,0.0,0.0,0.0,0.0,0.0,0.0,0.0,0.0,0.0,0.0,0.0,0.0,0.0,0.0,0.0,0.0,0.0,0.0,0.0,0.0,0.0,0.0,0.0,0.0,0.0,0.0,0.0,0.0,0.0,0.0,0.0,0.0,0.0,0.0,4.176,5.6391,5.3303,4.9297,0.0,5.1559,5.3167,5.1185,5.4887,5.4326,4.3109,0.0,0.0,0.0,0.0,0.0,0.0,0.0,0.0,0.0,0.0,0.0,0.0,0.0,0.0,0.0,0.0,0.0,0.0,0.0,0.0,0.0,0.0,0.0,0.0,0.0,0.0,0.0,0.0,0.0,0.0,0.0,0.0,0.0,0.0,0.0,0.0,0.0,0.0,0.0,0.0,0.0,0.0,0.0,0.0,0.0,0.0,0.0,0.0,0.0,0.0,0.0,0.0,0.0,0.0,2.698,3.5981,4.1186,4.2206,4.5594,4.79,4.8838,4.118,0.0,0.0,0.0,0.0,0.0,0.0,0.0,0.0,0.0,0.0,0.0,0.0,0.0,0.0,0.0,0.0,0.0,0.0,0.0,0.0,0.0,0.0,0.0,0.0,0.0,0.0,0.0,1.5191,0.0,0.0,0.0,0.0,0.0,0.0,0.0,0.0,0.0,0.0,0.0,0.0,0.0,0.0,4.0388,5.0302,5.2421,5.0325,0.0,0.0,4.8605,4.3334,4.5614,4.5353,0.0,0.0,0.0,0.0,0.0,0.0,0.0,0.0,0.0,0.0,0.0,0.0,0.0,0.0,0.0,0.0,0.0,0.0,0.0,0.0,0.0,0.0,0.0,0.0,0.0,0.0,0.0,0.0,0.0,0.0,0.0,0.0,0.0,0.0,0.0,0.0,0.0,0.0,0.0,0.0,0.0,0.0,0.0,0.0,0.0,0.0,0.0,0.0,0.0,0.0,0.0,0.0,0.0,0.0,2.3862,2.698,3.3443,3.8578,4.2128,4.4487,4.6537,4.8265,3.9266,3.3737,0.0,0.0,0.0,0.0,0.0,0.0,0.0,0.0,0.0,0.0,0.0,0.0,0.0,0.0,0.0,0.0,0.0,0.0,0.0,0.0,0.0,0.0,0.0,0.0,0.0,0.0,0.0,0.0,0.0,0.0,0.0,0.0,0.0,0.0,0.0,0.0,0.0,0.0,0.0,0.0,0.0,0.0,4.7665,4.714,0.0,0.0,0.0,4.3969,4.0941,0.0,0.0,0.0,0.0,0.0,0.0,0.0,0.0,0.0,0.0,0.0,0.0,0.0,0.0,0.0,0.0,0.0,0.0,0.0,0.0,0.0,0.0,0.0,0.0,0.0,0.0,0.0,0.0,0.0,0.0,0.0,0.0,0.0,0.0,0.0,0.0,0.0,0.0,0.0,0.0,0.0,0.0,0.0,0.0,0.0,0.0,0.0,0.0,0.0,0.0,0.0,0.0,0.0,0.0,0.0,0.0,0.0,2.6766,3.0563,3.5468,4.1408,4.2742,4.4467,4.6919,3.8108,3.2554,0.0,0.0,0.0,0.0,0.0,0.0,0.0,0.0,0.0,0.0,0.0,0.0,0.0,0.0,0.0,0.0,0.0,0.0,0.0,0.0,0.0,0.0,0.0,0.0,0.0,0.0,0.0,0.0,0.0,0.0,0.0,0.0,0.0,0.0,0.0,0.0,0.0,0.0,0.0,0.0,0.0,3.2416,4.7108,4.0059,3.4473,0.0,0.0,3.9782,4.053,4.0476,0.0,0.0,0.0,0.0,0.0,0.0,0.0,0.0,0.0,0.0,0.0,0.0,0.0,0.0,0.0,0.0,0.0,0.0,0.0,0.0,0.0,0.0,0.0,0.0,0.0,0.0,0.0,0.0,0.0,0.0,0.0,0.0,0.0,0.0,0.0,0.0,0.0,0.0,0.0,0.0,0.0,0.0,0.0,0.0,0.0,0.0,0.0,0.0,0.0,0.0,0.0,0.0,0.0,0.0,0.0,0.0,2.6728,3.0655,3.4736,3.8976,4.1547,4.3298,4.4062,3.7745,3.3291,0.0,0.0,0.0,0.0,0.0,0.0,0.0,0.0,0.0,0.0,0.0,0.0,0.0,0.0,0.0,0.0,0.0,0.0,0.0,0.0,0.0,0.0,0.0,0.0,0.0,0.0,0.0,0.0,0.0,0.0,0.0,0.0,0.0,0.0,0.0,0.0,0.0,0.0,0.0,0.0,0.0,3.2376,4.6911,3.6272,0.0,0.0,0.0,0.0,3.4585,3.1855,0.0,0.0,0.0,0.0,0.0,0.0,0.0,0.0,0.0,0.0,0.0,0.0,0.0,0.0,0.0,0.0,0.0,0.0,0.0,0.0,0.0,0.0,0.0,0.0,0.0,0.0,0.0,0.0,0.0,0.0,0.0,0.0,0.0,0.0,0.0,0.0,0.0,0.0,0.0,0.0,0.0,0.0,0.0,0.0,0.0,0.0,0.0,0.0,0.0,0.0,0.0,0.0,0.0,0.0,0.0,0.0,2.6504,2.8213,3.2002,3.8032,3.9312,4.0268,4.108,3.6255,3.28,0.0,0.0,0.0,0.0,0.0,0.0,0.0,0.0,0.0,0.0,0.0,0.0,0.0,0.0,0.0,0.0,0.0,0.0,0.0,0.0,0.0,0.0,0.0,0.0,0.0,0.0,0.0,0.0,0.0,0.0,0.0,0.0,0.0,0.0,0.0,0.0,0.0,0.0,0.0,0.0,2.4003,2.6258,3.3912,0.0,0.0,0.0,0.0,0.0,0.0,2.972,2.7425,0.0,0.0,0.0,0.0,0.0,0.0,0.0,0.0,0.0,0.0,0.0,0.0,0.0,0.0,0.0,0.0,0.0,0.0,0.0,0.0,0.0,0.0,0.0,0.0,0.0,0.0,0.0,0.0,0.0,0.0,0.0,0.0,0.0,0.0,0.0,0.0,0.0,0.0,0.0,0.0,0.0,0.0,0.0,0.0,0.0,0.0,0.0,0.0,0.0,0.0,0.0,0.0,0.0,0.0,0.0,2.5721,2.5468,2.8608,3.5569,3.6223,3.7271,3.864,3.4346,3.1596,3.0579,0.0,0.0,0.0,0.0,0.0,0.0,0.0,0.0,0.0,0.0,0.0,0.0,0.0,0.0,0.0,0.0,0.0,0.0,0.0,0.0,0.0,0.0,0.0,0.0,0.0,0.0,0.0,0.0,0.0,0.0,0.0,0.0,0.0,0.0,0.0,0.0,0.0,0.0,0.0,1.9643,1.9622,0.0,0.0,0.0,0.0,0.0,0.0,0.0,0.0,2.6174,0.0,0.0,0.0,0.0,0.0,0.0,0.0,0.0,0.0,0.0,0.0,0.0,0.0,0.0,0.0,0.0,0.0,0.0,0.0,0.0,0.0,0.0,0.0,0.0,0.0,0.0,0.0,0.0,0.0,0.0,0.0,0.0,0.0,0.0,0.0,0.0,0.0,0.0,0.0,0.0,0.0,0.0,0.0,0.0,0.0,0.0,0.0,0.0,0.0,0.0,0.0,0.0,0.0,0.0,0.0,0.0,2.4983,2.6119,2.5599,3.2079,3.6651,3.8646,3.2988,2.9697,2.9227,0.0,0.0,0.0,0.0,0.0,0.0,0.0,0.0,0.0,0.0,0.0,0.0,0.0,0.0,0.0,0.0,0.0,0.0,0.0,0.0,0.0,0.0,0.0,0.0,0.0,0.0,0.0,0.0,0.0,0.0,0.0,0.0,0.0,0.0,0.0,0.0,0.0,0.0,1.9425,1.9643,0.0,0.0,0.0,0.0,0.0,0.0,0.0,0.0,2.4156,0.0,0.0,0.0,0.0,0.0,0.0,0.0,0.0,0.0,0.0,0.0,0.0,0.0,0.0,0.0,0.0,0.0,0.0,0.0,0.0,0.0,0.0,0.0,0.0,0.0,0.0,0.0,0.0,0.0,0.0,0.0,0.0,0.0,0.0,0.0,0.0,0.0,0.0,0.0,0.0,0.0,0.0,0.0,0.0,0.0,0.0,0.0,0.0,0.0,0.0,0.0,0.0,0.0,0.0,0.0,0.0,0.0,0.0,2.5726,2.5779,3.2475,3.6266,3.6435,3.0234,2.7382,0.0,0.0,0.0,0.0,0.0,0.0,0.0,0.0,0.0,0.0,0.0,0.0,0.0,0.0,0.0,0.0,0.0,0.0,0.0,0.0,0.0,0.0,0.0,0.0,0.0,0.0,0.0,0.0,0.0,0.0,0.0,0.0,0.0,0.0,0.0,0.0,0.0,0.0,0.0,0.0,0.0,0.0,0.0,0.0,0.0,0.0,0.0,0.0,0.0,0.0,0.0,0.0,0.0,0.0,0.0,0.0,0.0,0.0,0.0,0.0,0.0,0.0,0.0,0.0,0.0,0.0,0.0,0.0,0.0,0.0,0.0,0.0,0.0,0.0,0.0,0.0,0.0,0.0,0.0,0.0,0.0,0.0,0.0,0.0,0.0,0.0,0.0,0.0,0.0,0.0,0.0,0.0,0.0,0.0,0.0,0.0,0.0,0.0,0.0,0.0,0.0,0.0,0.0,0.0,0.0,0.0,0.0,0.0,2.5383,2.6497,3.256,3.5755,3.5682,2.8884,2.5931,0.0,0.0,0.0,0.0,0.0,0.0,0.0,0.0,0.0,0.0,0.0,0.0,0.0,0.0,0.0,0.0,0.0,0.0,0.0,0.0,0.0,0.0,0.0,0.0,0.0,0.0,0.0,0.0,0.0,0.0,0.0,0.0,0.0,0.0,0.0,0.0,0.0,0.0,0.0,0.0,0.0,0.0,0.0,0.0,0.0,0.0,0.0,0.0,2.5009,0.0,0.0,0.0,0.0,0.0,0.0,0.0,0.0,0.0,0.0,0.0,0.0,0.0,0.0,0.0,0.0,0.0,0.0,0.0,0.0,0.0,0.0,0.0,0.0,0.0,0.0,0.0,0.0,0.0,0.0,0.0,0.0,0.0,0.0,0.0,0.0,0.0,0.0,0.0,0.0,0.0,0.0,0.0,0.0,0.0,0.0,0.0,0.0,0.0,0.0,0.0,0.0,0.0,0.0,0.0,0.0,0.0,0.0,0.0,2.3655,2.134,2.884,3.4778,3.823,3.1804,2.6523,0.0,0.0,0.0,0.0,0.0,0.0,0.0,0.0,0.0,0.0,0.0,0.0,0.0,0.0,0.0,0.0,0.0,0.0,0.0,0.0,0.0,0.0,0.0,0.0,0.0,0.0,0.0,0.0,0.0,0.0,0.0,0.0,0.0,0.0,0.0,0.0,0.0,0.0,0.0,0.0,0.0,0.0,0.0,0.0,0.0,0.0,0.0,0.0,0.0,0.0,0.0,0.0,0.0,0.0,0.0,0.0,0.0,0.0,0.0,0.0,0.0,0.0,0.0,0.0,0.0,0.0,0.0,0.0,0.0,0.0,0.0,0.0,0.0,0.0,0.0,0.0,0.0,0.0,0.0,0.0,0.0,0.0,0.0,0.0,0.0,0.0,0.0,0.0,0.0,0.0,0.0,0.0,0.0,0.0,0.0,0.0,0.0,0.0,0.0,0.0,0.0,0.0,0.0,0.0,0.0,0.0,0.0,0.0,2.2498,2.23,2.9099,3.2126,3.0995,2.6724,2.3328,0.0,0.0,0.0,0.0,0.0,0.0,0.0,0.0,0.0,0.0,0.0,0.0,0.0,0.0,0.0,0.0,0.0,0.0,0.0,0.0,0.0,0.0,0.0,0.0,0.0,0.0,0.0,0.0,0.0,0.0,0.0,0.0,0.0,0.0,0.0,0.0,0.0,0.0,0.0,0.0,0.0,0.0,0.0,0.0,0.0,0.0,0.0,0.0,0.0,0.0,0.0,0.0,0.0,0.0,0.0,0.0,0.0,0.0,0.0,0.0,0.0,0.0,0.0,0.0,0.0,0.0,0.0,0.0,0.0,0.0,0.0,0.0,0.0,0.0,0.0,0.0,0.0,0.0,0.0,0.0,0.0,0.0,0.0,0.0,0.0,0.0,0.0,0.0,0.0,0.0,0.0,0.0,0.0,0.0,0.0,0.0,0.0,0.0,0.0,0.0,0.0,0.0,0.0,0.0,0.0,0.0,0.0,0.0,0.0,2.26,2.7242,2.7896,2.4061,2.2419,2.0777,0.0,0.0,0.0,0.0,0.0,0.0,0.0,0.0,0.0,0.0,0.0,0.0,0.0,0.0,0.0,0.0,0.0,0.0,0.0,0.0,0.0,0.0,0.0,0.0,0.0,0.0,0.0,0.0,0.0,0.0,0.0,0.0,0.0,0.0,0.0,0.0,0.0,0.0,0.0,0.0,0.0,0.0,0.0,0.0,0.0,0.0,0.0,0.0,0.0,0.0,0.0,0.0,0.0,0.0,0.0,0.0,0.0,0.0,0.0,0.0,0.0,0.0,0.0,0.0,0.0,0.0,0.0,0.0,0.0,0.0,0.0,0.0,0.0,0.0,0.0,0.0,0.0,0.0,0.0,0.0,0.0,0.0,0.0,0.0,0.0,0.0,0.0,0.0,0.0,0.0,0.0,0.0,0.0,0.0,0.0,0.0,0.0,0.0,0.0,0.0,0.0,0.0,0.0,0.0,0.0,0.0,0.0,0.0,0.0,1.9865,2.1151,2.1553,2.0899,2.175,2.0316,0.0,0.0,0.0,0.0,0.0,0.0,0.0,0.0,0.0,0.0,0.0,0.0,0.0,0.0,0.0,0.0,0.0,0.0,0.0,0.0,0.0,0.0,0.0,0.0,0.0,0.0,0.0,0.0,0.0,0.0,0.0,0.0,0.0,0.0,0.0,0.0,0.0,0.0,0.0,0.0,0.0,0.0,0.0,0.0,0.0,0.0,0.0,0.0,0.0,0.0,0.0,0.0,0.0,0.0,0.0,0.0,0.0,0.0,0.0,0.0,0.0,0.0,0.0,0.0,0.0,0.0,0.0,0.0,0.0,0.0,0.0,0.0,0.0,0.0,0.0,0.0,0.0,0.0,0.0,0.0,0.0,0.0,0.0,0.0,0.0,0.0,0.0,0.0,0.0,0.0,0.0,0.0,0.0,0.0,0.0,0.0,0.0,0.0,0.0,0.0,0.0,0.0,0.0,0.0,0.0,0.0,0.0,0.0,0.0,1.6376,1.8095,1.884,1.8556,1.9447,1.8137,1.4487,0.0,0.0,0.0,0.0,0.0,0.0,0.0,0.0,0.0,0.0,0.0,0.0,0.0,0.0,0.0,0.0,0.0,0.0,0.0,0.0,0.0,0.0,0.0,0.0,0.0,0.0,0.0,0.0,0.0,0.0,0.0,0.0,0.0,0.0,0.0,0.0,0.0,0.0,0.0,0.0,0.0,0.0,0.0,0.0,0.0,0.0,0.0,0.0,0.0,0.0,0.0,0.0,0.0,0.0,0.0,0.0,0.0,0.0,0.0,0.0,0.0,0.0,0.0,0.0,0.0,0.0,0.0,0.0,0.0,0.0,0.0,0.0,0.0,0.0,0.0,0.0,0.0,0.0,0.0,0.0,0.0,0.0,0.0,0.0,0.0,0.0,0.0,0.0,0.0,0.0,0.0,0.0,0.0,0.0,0.0,0.0,0.0,0.0,0.0,0.0,0.0,0.0,0.0,0.0,0.0,0.0,0.0,0.0,1.4542,1.6138,1.707,1.7293,1.7563,1.6367,0.0,0.0,0.0,0.0,0.0,0.0,0.0,0.0,0.0,0.0,0.0,0.0,0.0,0.0,0.0,0.0,0.0,0.0,0.0,0.0,0.0,0.0,0.0,0.0,0.0,0.0,0.0,0.0,0.0,0.0,0.0,0.0,0.0,0.0,0.0,0.0,0.0,0.0,0.0,0.0,0.0,0.0,0.0,0.0,0.0,0.0,0.0,0.0,0.0,0.0,0.0,0.0,0.0,0.0,0.0,0.0,0.0,0.0,0.0,0.0,0.0,0.0,0.0,0.0,0.0,0.0,0.0,0.0,0.0,0.0,0.0,0.0,0.0,0.0,0.0,0.0,0.0,0.0,0.0,0.0,0.0,0.0,0.0,0.0,0.0,0.0,0.0,0.0,0.0,0.0,0.0,0.0,0.0,0.0,0.0,0.0,0.0,0.0,0.0,0.0,0.0,0.0,0.0,0.0,0.0,0.0,0.0,0.0,1.1672,1.4741,1.5214,1.5925,1.7173,1.6412,1.5147,0.0,0.0,0.0,0.0,0.0,0.0,0.0,0.0,0.0,0.0,0.0,0.0,0.0,0.0,0.0,0.0,0.0,0.0,0.0,0.0,0.0,0.0,0.0,0.0,0.0,0.0,0.0,0.0,0.0,0.0,0.0,0.0,0.0,0.0,0.0,0.0,0.0,0.0,0.0,0.0,0.0,0.0,0.0,0.0,0.0,0.0,0.0,0.0,0.0,0.0,0.0,0.0,0.0,0.0,0.0,0.0,0.0,0.0,0.0,0.0,0.0,0.0,0.0,0.0,0.0,0.0,0.0,0.0,0.0,0.0,0.0,0.0,0.0,0.0,0.0,0.0,0.0,0.0,0.0,0.0,0.0,0.0,0.0,0.0,0.0,0.0,0.0,0.0,0.0,0.0,0.0,0.0,0.0,0.0,0.0,0.0,0.0,0.0,0.0,0.0,0.0,0.0,0.0,0.0,0.0,0.0,0.0,0.0,0.0,1.1733,0.0,1.418,0.0,1.4449,1.3692,0.0,0.0,0.0,0.0,0.0,0.0,0.0,0.0,0.0,0.0,0.0,0.0,0.0,0.0,0.0,0.0,0.0,0.0,0.0,0.0,0.0,0.0,0.0,0.0,0.0,0.0,0.0,0.0,0.0,0.0,0.0,0.0,0.0,0.0,0.0,0.0,0.0,0.0,0.0,0.0,0.0,0.0,0.0,0.0,0.0,0.0,0.0,0.0,0.0,0.0,0.0,0.0,0.0,0.0,0.0,0.0,0.0,0.0,0.0,0.0,0.0,0.0,0.0,0.0,0.0,0.0,0.0,0.0,0.0,0.0,0.0,0.0,0.0,0.0,0.0,0.0,0.0,0.0,0.0,0.0,0.0,0.0,0.0,0.0,0.0,0.0,0.0,0.0,0.0,0.0,0.0,0.0,0.0,0.0,0.0,0.0,0.0,0.0,0.0,0.0,0.0,0.0,0.0,0.0,0.0,0.0,0.0,0.0,0.0,0.944,1.131,1.2554,1.3052,1.3008,1.2465,0.0,0.0,0.0,0.0,0.0,0.0,0.0,0.0,0.0,0.0,0.0,0.0,0.0,0.0,0.0,0.0,0.0,0.0,0.0,0.0,0.0,0.0,0.0,0.0,0.0,0.0,0.0,0.0,0.0,0.0,0.0,0.0,0.0,0.0,0.0,0.0,0.0,0.0,0.0,0.0,0.0,0.0,0.0,0.0,0.0,0.0,0.0,0.0,0.0,0.0,0.0,0.0,0.0,0.0,0.0,0.0,0.0,0.0,0.0,0.0,0.0,0.0,0.0,0.0,0.0,0.0,0.0,0.0,0.0,0.0,0.0,0.0,0.0,0.0,0.0,0.0,0.0,0.0,0.0,0.0,0.0,0.0,0.0,0.0,0.0,0.0,0.0,0.0,0.0,0.0,0.0,0.0,0.0,0.0,0.0,0.0,0.0,0.0,0.0,0.0,0.0,0.0,0.0,0.0,0.0,0.0,0.0,0.0,0.0,0.7978,0.9454,1.1093,1.2848,1.1947,1.1372,0.0,0.0,0.0,0.0,0.0,0.0,0.0,0.0,0.0,0.0,0.0,0.0,0.0,0.0,0.0,0.0,0.0,0.0,0.0,0.0,0.0,0.0,0.0,0.0,0.0,0.0,0.0,0.0,0.0,0.0,0.0,0.0,0.0,0.0,0.0,0.0,0.0,0.0,0.0,0.0,0.0,0.0,0.0,0.0,0.0,0.0,0.0,0.0,0.0,0.0,0.0,0.0,0.0,0.0,0.0,0.0,0.0,0.0,0.0,0.0,0.0,0.0,0.0,0.0,0.0,0.0,0.0,0.0,0.0,0.0,0.0,0.0,0.0,0.0,0.0,0.0,0.0,0.0,0.0,0.0,0.0,0.0,0.0,0.0,0.0,0.0,0.0,0.0,0.0,0.0,0.0,0.0,0.0,0.0,0.0,0.0,0.0,0.0,0.0,0.0,0.0,0.0,0.0,0.0,0.0,0.0,0.0,0.0,0.0,0.0,0.8274,0.9164,1.0037,0.9819,0.9749,0.9922,0.0,0.0,0.0,0.0,0.0,0.0,0.0,0.0,0.0,0.0,0.0,0.0,0.0,0.0,0.0,0.0,0.0,0.0,0.0,0.0,0.0,0.0,0.0,0.0,0.0,0.0,0.0,0.0,0.0,0.0,0.0,0.0,0.0,0.0,0.0,0.0,0.0,0.0,0.0,0.0,0.0,0.0,0.0,0.0,0.0,0.0,0.0,0.0,0.0,0.0,0.0,0.0,0.0,0.0,0.0,0.0,0.0,0.0,0.0,0.0,0.0,0.0,0.0,0.0,0.0,0.0,0.0,0.0,0.0,0.0,0.0,0.0,0.0,0.0,0.0,0.0,0.0,0.0,0.0,0.0,0.0,0.0,0.0,0.0,0.0,0.0,0.0,0.0,0.0,0.0,0.0,0.0,0.0,0.0,0.0,0.0,0.0,0.0,0.0,0.0,0.0,0.0,0.0,0.0,0.0,0.0,0.0,0.0,0.0,0.0,0.8353,0.8876,0.8842,0.8916,0.0,0.0,0.0,0.0,0.0,0.0,0.0,0.0,0.0,0.0,0.0,0.0,0.0,0.0,0.0,0.0,0.0,0.0,0.0,0.0,0.0,0.0,0.0,0.0,0.0,0.0,0.0,0.0,0.0,0.0,0.0,0.0,0.0,0.0,0.0,0.0,0.0,0.0,0.0,0.0,0.0,0.0,0.0,0.0,0.0,0.0,0.0,0.0,0.0,0.0,0.0,0.0,0.0,0.0,0.0,0.0,0.0,0.0,0.0,0.0,0.0,0.0,0.0,0.0,0.0,0.0,0.0,0.0,0.0,0.0,0.0,0.0,0.0,0.0,0.0,0.0,0.0,0.0,0.0,0.0,0.0,0.0,0.0,0.0,0.0,0.0,0.0,0.0,0.0,0.0,0.0,0.0,0.0,0.0,0.0,0.0,0.0,0.0,0.0,0.0,0.0,0.0,0.0,0.0,0.0,0.0,0.0,0.0,0.0,0.0,0.0,0.8144,0.8689,0.859,0.0,0.8906,0.0,0.0,0.0,0.0,0.0,0.0,0.0,0.0,0.0,0.0,0.0,0.0,0.0,0.0,0.0,0.0,0.0,0.0,0.0,0.0,0.0,0.0,0.0,0.0,0.0,0.0,0.0,0.0,0.0,0.0,0.0,0.0,0.0,0.0,0.0,0.0,0.0,0.0,0.0,0.0,0.0,0.0,0.0,0.0,0.0,0.0,0.0,0.0,0.0,0.0,0.0,0.0,0.0,0.0,0.0,0.0,0.0,0.0,0.0,0.0,0.0,0.0,0.0,0.0,0.0,0.0,0.0,0.0,0.0,0.0,0.0,0.0,0.0,0.0,0.0,0.0,0.0,0.0,0.0,0.0,0.0,0.0,0.0,0.0,0.0,0.0,0.0,0.0,0.0,0.0,0.0,0.0,0.0,0.0,0.0,0.0,0.0,0.0,0.0,0.0,0.0,0.0,0.0,0.0,0.0,0.0,0.0,0.0,0.0,0.0,0.0,0.0,0.8278,0.8309,0.8771,0.0,0.0,0.0,0.0,0.0,0.0,0.0,0.0,0.0,0.0,0.0,0.0,0.0,0.0,0.0,0.0,0.0,0.0,0.0,0.0,0.0,0.0,0.0,0.0,0.0,0.0,0.0,0.0,0.0,0.0,0.0,0.0,0.0,0.0,0.0,0.0,0.0,0.0,0.0,0.0,0.0,0.0,0.0,0.0,0.0,0.0,0.0,0.0,0.0,0.0,0.0,0.0,0.0,0.0,0.0,0.0,0.0,0.0,0.0,0.0,0.0,0.0,0.0,0.0,0.0,0.0,0.0,0.0,0.0,0.0,0.0,0.0,0.0,0.0,0.0,0.0,0.0,0.0,0.0,0.0,0.0,0.0,0.0,0.0,0.0,0.0,0.0,0.0,0.0,0.0,0.0,0.0,0.0,0.0,0.0,0.0,0.0,0.0,0.0,0.0,0.0,0.0,0.0,0.0,0.0,0.0,0.0,0.0,0.0,0.0,0.7047,0.7723,0.7655,0.7875,0.8451,0.0,0.0,0.0,0.0,0.0,0.0,0.0,0.0,0.0,0.0,0.0,0.0,0.0,0.0,0.0,0.0,0.0,0.0,0.0,0.0,0.0,0.0,0.0,0.0,0.0,0.0,0.0,0.0,0.0,0.0,0.0,0.0,0.0,0.0,0.0,0.0,0.0,0.0,0.0,0.0,0.0,0.0,0.0,0.0,0.0,0.0,0.0,0.0,0.0,0.0,0.0,0.0,0.0,0.0,0.0,0.0,0.0,0.0,0.0,0.0,0.0,0.0,0.0,0.0,0.0,0.0,0.0,0.0,0.0,0.0,0.0,0.0,0.0,0.0,0.0,0.0,0.0,0.0,0.0,0.0,0.0,0.0,0.0,0.0,0.0,0.0,0.0,0.0,0.0,0.0,0.0,0.0,0.0,0.0,0.0,0.0,0.0,0.0,0.0,0.0,0.0,0.0,0.0,0.0,0.0,0.0,0.0,0.0,0.0,0.0,0.0,0.0,0.0,0.0,0.8144,0.0,0.0,0.0,0.0,0.0,0.0,0.0,0.0,0.0,0.0,0.0,0.0,0.0,0.0,0.0,0.0,0.0,0.0,0.0,0.0,0.0,0.0,0.0,0.0,0.0,0.0,0.0,0.0,0.0,0.0,0.0,0.0,0.0,0.0,0.0,0.0,0.0,0.0,0.0,0.0,0.0,0.0,0.0,0.0,0.0,0.0,0.0,0.0,0.0,0.0,0.0,0.0,0.0,0.0,0.0,0.0,0.0,0.0,0.0,0.0,0.0,0.0,0.0,0.0,0.0,0.0,0.0,0.0,0.0,0.0,0.0,0.0,0.0,0.0,0.0,0.0,0.0,0.0,0.0,0.0,0.0,0.0,0.0,0.0,0.0,0.0,0.0,0.0,0.0,0.0,0.0,0.0,0.0,0.0,0.0,0.0,0.0,0.0,0.0,0.0,0.0,0.0,0.0,0.0,0.0,0.0,0.0,0.0,0.0,0.0,0.0,0.0,0.0,0.0,0.0,0.0,0.0,0.0,0.0,0.0,0.0,0.0,0.0,0.0,0.0,0.0,0.0,0.0,0.0,0.0,0.0,0.0,0.0,0.0,0.0,0.0,0.0,0.0,0.0,0.0,0.0,0.0,0.0,0.0,0.0,0.0,0.0,0.0,0.0,0.0,0.0,0.0,0.0,0.0,0.0,0.0,0.0,0.0,0.0,0.0,0.0,0.0,0.0,0.0,0.0,0.0,0.0,0.0,0.0,0.0,0.0,0.0,0.0,0.0,0.0,0.0,0.0,0.0,0.0,0.0,0.0,0.0,0.0,0.0,0.0,0.0,0.0,0.0,0.0,0.0,0.0,0.0,0.0,0.0,0.0,0.0,0.0,0.0,0.0,0.0,0.0,0.0,0.0,0.0,0.0,0.0,0.0,0.0,0.0,0.0,0.0,0.0,0.0,0.0,0.0,0.0,0.0,0.0,0.0,0.0,0.0,0.0,0.0,0.0,0.0,0.0,0.0,0.0,0.0,0.0,0.0,0.0,0.0,0.0,0.0,0.0,0.0,0.0,0.0,0.0,0.0,0.0,0.0,0.0,0.0,0.0,0.0,0.0,0.0,0.0,0.0,0.0,0.0,0.0,0.0,0.0,0.0,0.0,0.0,0.0,0.0,0.0,0.0,0.0,0.0,0.0,0.0,0.0,0.0,0.0,0.0,0.0,0.0,0.0,0.0,0.0,0.0,0.0,0.0,0.0,0.0,0.0,0.0,0.0,0.0,0.0,0.0,0.0,0.0,0.0,0.0,0.0,0.0,0.0,0.0,0.0,0.0,0.0,0.0,0.0,0.0,0.0,0.0,0.0,0.0,0.0,0.0,0.0,0.0,0.0,0.0,0.0,0.0,0.0,0.0,0.0,0.0,0.0,0.0,0.0,0.0,0.0,0.0,0.0,0.0,0.0,0.0,0.0,0.0,0.0,0.0,0.0,0.0,0.0,0.0,0.0,0.0,0.0,0.0,0.0,0.0,0.0,0.0,0.0,0.0,0.0,0.0,0.0,0.0,0.0,0.0,0.0,0.0,0.0,0.0,0.0,0.0,0.0,0.0,0.0,0.0,0.0,0.0,0.0,0.0,0.0,0.0,0.0,0.0,0.0,0.0,0.0,0.0,0.0,0.0,0.0,0.0,0.0,0.0,0.0,0.0,0.0,0.0,0.0,0.0,0.0,0.0,0.0,0.0,0.0,0.0,0.0,0.0,0.0,0.0,0.0,0.0,0.0,0.0,0.0,0.0,0.0,0.0,0.0,0.0,0.0,0.0,0.0,0.0,0.0,0.0,0.0,0.0,0.0,0.0,0.0,0.0,0.0,0.0,0.0,0.0,0.0,0.0,0.0,0.0,0.0,0.0,0.0,0.0,0.0,0.0,0.0,0.0,0.0,0.0,0.0,0.0,0.0,0.0,0.0,0.0,0.0,0.0,0.0,0.0,0.0,0.0,0.0,0.0,0.0,0.0,0.0,0.0,0.0,0.0,0.0,0.0,0.0,0.0,0.0,0.0,0.0,0.0,0.0,0.0,0.0,0.0,0.0,0.0,0.0,0.0,0.0,0.0,0.0,0.0,0.0,0.0,0.0,0.0,0.0,0.0,0.0,0.0,0.0,0.0,0.0,0.0,0.0,0.0,0.0,0.0,0.0,0.0,0.0,0.0,0.0,0.0,0.0,0.0,0.0,0.0,0.0,0.0,0.0,0.0,0.0,0.0,0.0,0.0,0.0,0.0,0.0,0.0,0.0,0.0,0.0,0.0,0.0,0.0,0.0,0.0,0.0,0.0,0.0,0.0,0.0,0.0,0.0,0.0,0.0,0.0,0.0,0.0,0.0,0.0,0.0,0.0,0.0,0.0,0.0,0.0,0.0,0.0,0.0,0.0,0.0,0.0,0.0,0.0,0.0,0.0,0.0,0.0,0.0,0.0,0.0,0.0,0.0,0.0,0.0,0.0,0.0,0.0,0.0,0.0,0.0,0.0,0.0,0.0,0.0,0.0,0.0,0.0,0.0,0.0,0.0,0.0,0.0,0.0,0.0,0.0,0.0,0.0,0.0,0.0,0.0,0.0,0.0,0.0,0.0,0.0,0.0,0.0,0.0,0.0,0.0,0.0,0.0,0.0,0.0,0.0,0.0,0.0,0.0,0.0,0.0,0.0,0.0,0.0,0.0,0.0,0.0,0.0,0.0,0.0,0.0,0.0,0.0,0.0,0.0,0.0,0.0,0.0,0.0,0.0,0.0,0.0,0.0,0.0,0.0,0.0,0.0,0.0,0.0,0.0,0.0,0.0,0.0,0.0,0.0,0.0,0.0,0.0,0.0,0.0,0.0,0.0,0.0,0.0,0.0,0.0,0.0,0.0,0.0,0.0,0.0,0.0,0.0,0.0,0.0,0.0,0.0,0.0,0.0,0.0,0.0,0.0,0.0,0.0,0.0,0.0,0.0,0.0,0.0,0.0,0.0,0.0,0.0,0.0,0.0,0.0,0.0,0.0,0.0,0.0,0.0,0.0,0.0,0.0,0.0,0.0,0.0,0.0,0.0,0.0,0.0,0.0,0.0,0.0,0.0,0.0,0.0,0.0,0.0,0.0,0.0,0.0,0.0,0.0,0.0,0.0,0.0,0.0,0.0,0.0,0.0,0.0,0.0,0.0,0.0,0.0,0.0,0.0,0.0,0.0,0.0,0.0,0.0,0.0,0.0,0.0,0.0,0.0,0.0,0.0,0.0,0.0,0.0,0.0,0.0,0.0,0.0,0.0,0.0,0.0,0.0,0.0,0.0,0.0,0.0,0.0,0.0,0.0,0.0,0.0,0.0,0.0,0.0,0.0,0.0,0.0,0.0,0.0,0.0,0.0,0.0,0.0,0.0,0.0,0.0,0.0,0.0,0.0,0.0,0.0,0.0,0.0,0.0,0.0,0.0,0.0,0.0,0.0,0.0,0.0,0.0,0.0,0.0,0.0,0.0,0.0,0.0,0.0,0.0,0.0,0.0,0.0,0.0,0.0,0.0,0.0,0.0,0.0,0.0,0.0,0.0,0.0,0.0,0.0,0.0,0.0,0.0,0.0,0.0,0.0,0.0,0.0,0.0,0.0,0.0,0.0,0.0,0.0,0.0,0.0,0.0,0.0,0.0,0.0,0.0,0.0,0.0,0.0,0.0,0.0,0.0,0.0,0.0,0.0,0.0,0.0,0.0,0.0,0.0,0.0,0.0,0.0,0.0,0.0,0.0,0.0,0.0,0.0,0.0,0.0,0.0,0.0,0.0,0.0,0.0,0.0,0.0,0.0,0.0,0.0,0.0,0.0,0.0,0.0,0.0,0.0,0.0,0.0,0.0,0.0,0.0,0.0,0.0,0.0,0.0,0.0,0.0,0.0,0.0,0.0,0.0,0.0,0.0,0.0,0.0,0.0,0.0,0.0,0.0,0.0,0.0,0.0,0.0,0.0,0.0,0.0,0.0,0.0,0.0,0.0,0.0,0.0,0.0,0.0,0.0,0.0,0.0,0.0,0.0,0.0,0.0,0.0,0.0,0.0,0.0,0.0,0.0,0.0,0.0,0.0,0.0,0.0,0.0,0.0,0.0,0.0,0.0,0.0,0.0,0.0,0.0,0.0,0.0,0.0,0.0,0.0,0.0,0.0,0.0,0.0,0.0,0.0,0.0,0.0,0.0,0.0,0.0,0.0,0.0,0.0,0.0,0.0,0.0,0.0,0.0,0.0,0.0,0.0,0.0,0.0,0.0,0.0,0.0,0.0,0.0,0.0,0.0,0.0,0.0,0.0,0.0,0.0,0.0,0.0,0.0,0.0,0.0,0.0,0.0,0.0,0.0,0.0,0.0]}],[{"header":{"parameterUnit":"kt","parameterCategory":2,"dx":1,"dy":1,"la1":29.587661999999998,"la2":31.0,"lo1":-88.76705300000003,"lo2":-86.6583820000003,"nx":115,"ny":88,"refTime":"2022-10-17T06:00:00:Z","depth":0,"parameterNumber":2,"parameterNumberName":"V-component_of_WINDS"},"data":[-7.5241,-7.5145,-7.4321,-7.3862,-7.339,-7.1811,-7.0947,-7.0625,-6.9609,-6.9276,-6.9276,-6.9276,-6.9276,-6.9276,-6.9276,-6.9244,-6.9156,-6.9068,-6.7553,-6.5773,-6.5278,-6.3734,-6.2356,-6.1643,-6.1279,-6.0738,-5.9971,-5.8865,-5.7937,-5.6918,-5.6457,-5.6509,-5.6467,-5.7105,-5.7861,-5.7886,-5.7886,-5.7886,-5.7614,-5.6847,-5.4555,-5.2954,-5.092,-4.8921,-4.6668,-4.5571,-4.497,-4.497,-4.4989,-4.4989,-4.4989,-4.4989,-4.4989,-4.4989,-4.4989,-4.4989,-4.4989,-4.4989,-4.4989,-4.4989,-4.4989,-4.4989,-4.4989,-4.4989,-4.3988,-4.1815,-4.2572,-4.4328,-4.4536,-4.48,-4.48,-4.463,-4.342,-4.0729,-3.9847,-3.8299,-3.5485,-3.3312,-3.2008,-3.1852,-3.1852,-3.1852,-3.1852,-3.1852,-3.1852,-3.0761,-3.0761,-3.0761,-3.0761,-3.0761,-3.0761,-3.0761,-3.0761,-3.0761,-3.0761,-3.0761,-3.0567,-3.0437,-3.0307,-3.0294,-3.0333,-3.045,-3.0567,-3.0723,-3.0761,-3.0761,-3.0761,-3.0761,-3.0761,-3.0761,-3.0761,-3.0761,-3.0761,-3.0761,-3.0761,-7.5276,-7.5241,-7.5085,-7.4511,-7.3525,-7.2549,-7.1617,-7.0706,-6.9642,-6.9276,-6.9276,-6.9276,-6.9276,-6.9276,-6.9276,-6.9276,-6.9276,-6.9276,-6.8438,-6.6928,-6.5773,-6.448,-6.3233,-6.2035,-6.142,-6.105,-6.0822,-5.9853,-5.8624,-5.8309,-5.7753,-5.7184,-5.7437,-5.7764,-5.7861,-5.7886,-5.7886,-5.7886,-5.7614,-5.6624,-5.5598,-5.4198,-5.2891,-5.1093,-4.9004,-4.6914,-4.546,-4.4989,-4.4989,-4.4989,-4.4989,-4.4989,-4.4989,-4.4989,-4.4989,-4.4989,-4.4989,-4.4989,-4.4989,-4.4989,-4.4989,-4.4989,-4.4989,-4.4989,-4.4989,-4.4195,-4.4195,-4.4781,-4.4781,-4.4989,-4.4989,-4.4573,-4.3424,-4.1779,-4.2165,-4.2011,-3.8267,-3.4741,-3.4303,-3.4013,-3.4013,-3.4013,-3.4013,-3.3846,-3.2935,-3.1301,-3.0761,-3.0761,-3.0761,-3.0761,-3.0761,-3.0761,-3.0761,-3.0749,-3.0749,-3.0593,-3.032,-3.0229,-3.0255,-3.0333,-3.0424,-3.0567,-3.0684,-3.0761,-3.0761,-3.0761,-3.0761,-3.0761,-3.0761,-3.0761,-3.0761,-3.0761,-3.0761,-3.0761,-3.0761,-7.599,-7.5276,-7.5241,-7.4928,-7.4286,-7.2906,-7.2036,-7.1385,-6.9949,-6.9276,-6.9276,-6.9276,-6.9276,-6.9276,-6.9276,-6.9276,-6.9276,-6.9276,-6.8438,-6.7242,-6.5934,-6.5146,-6.3917,-6.2403,-6.1702,-6.1166,-6.1166,-6.0515,-5.9027,-5.8779,-5.8469,-5.7257,-5.697,-5.7203,-5.7886,-5.7886,-5.7886,-5.7886,-5.7886,-5.7414,-5.6769,-5.5353,-5.3945,-5.2529,-5.0448,-4.8182,-4.658,-4.546,-4.514,-4.4989,-4.4989,-4.4989,-4.4989,-4.4989,-4.4989,-4.4989,-4.4989,-4.4989,-4.4989,-4.4989,-4.4989,-4.4989,-4.4989,-4.4989,-4.4989,-4.4989,-4.4989,-4.4989,-4.4989,-4.4989,-4.4989,-4.48,-4.3687,-4.3236,-4.3402,-4.2979,-4.0103,-3.7271,-3.6606,-3.6311,-3.5968,-3.5788,-3.5263,-3.5083,-3.344,-3.1641,-3.0761,-3.0761,-3.0761,-3.0761,-3.0761,-3.0761,-3.0761,-3.0761,-3.0697,-3.0476,-3.0164,-3.0138,-3.0177,-3.0333,-3.0541,-3.0684,-3.0761,-3.0761,-3.0761,-3.0761,-3.0761,-3.0761,-3.0761,-3.0761,-3.0761,-3.0761,-3.0761,-3.0761,-3.0761,-7.7239,-7.5751,-7.5776,-7.5526,-7.5024,-7.3357,-7.2549,-7.2145,-7.0548,-6.9788,-6.9276,-6.9276,-6.9276,-6.9276,-6.9276,-6.9276,-6.9276,-6.9156,-6.856,-6.7737,-6.6548,-6.5789,-6.4866,-6.3018,-6.1754,-6.1391,-6.1054,-6.0685,-5.9874,-5.9402,-5.8726,-5.787,-5.8028,-5.7648,-5.8012,-5.7886,-5.7886,-5.7886,-5.7886,-5.7687,-5.7439,-5.6201,-5.4924,-5.3318,-5.1574,-4.9168,-4.7374,-4.6096,-4.514,-4.4989,-4.4989,-4.4989,-4.4989,-4.4989,-4.4989,-4.4989,-4.4989,-4.4989,-4.4989,-4.4989,-4.4989,-4.4989,-4.4989,-4.4989,-4.4989,-4.4989,-4.4989,-4.4989,-4.4989,-4.4989,-4.48,-4.48,-4.4573,-4.4403,-4.427,-4.2997,-4.1563,-4.0171,-3.8942,-3.8429,-3.8075,-3.7365,-3.6489,-3.5234,-3.3593,-3.2502,-3.1588,-3.092,-3.1104,-3.0749,-3.0933,-3.0761,-3.0761,-3.0723,-3.0632,-3.0437,-3.0073,-2.9982,-2.9917,-3.0268,-3.0671,-3.0736,-3.0761,-3.0761,-3.0761,-3.0761,-3.0761,-3.0761,-3.0761,-3.0761,-3.0761,-3.0761,-3.0761,-3.0761,-3.0761,-7.8781,-7.7391,-7.7417,-7.6489,-7.5227,-7.4028,-7.308,-7.2287,-7.2088,-7.1034,-6.9396,-6.9276,-6.9276,-6.9276,-6.9276,-6.9276,-6.9276,-6.9276,-6.8948,-6.8948,-6.746,-6.6607,-6.5574,-6.3869,-6.2327,-6.1502,-6.1166,-6.1054,-6.1089,-6.0778,-6.0174,-5.9448,-5.9428,-5.8901,-5.8113,-5.7886,-5.7886,-5.7886,-5.7886,-5.7886,-5.7735,-5.756,-5.6754,-5.4792,-5.2392,-5.0329,-4.8368,-4.6412,-4.4989,-4.4989,-4.4989,-4.4989,-4.4989,-4.4989,-4.4989,-4.4989,-4.4989,-4.4989,-4.4989,-4.4989,-4.4989,-4.4989,-4.4989,-4.4989,-4.4989,-4.4989,-4.4989,-4.4989,-4.4989,-4.4989,-4.4989,-4.48,-4.4422,-4.4062,-4.4081,-4.372,-4.2825,-4.1945,-4.106,-4.0712,-4.0188,-3.8766,-3.7882,-3.6489,-3.4859,-3.3725,-3.2838,-3.1927,-3.1601,-3.1091,-3.092,-3.0761,-3.0761,-3.0749,-3.0645,-3.0463,-3.006,-2.9775,-2.9606,-2.9891,-3.058,-3.0749,-3.0761,-3.0761,-3.0761,-3.0761,-3.0761,-3.0761,-3.0761,-3.0761,-3.0761,-3.0761,-3.0761,-3.0761,-3.0761,-8.0414,-7.8924,-7.7988,-7.7239,-7.6367,-7.451,-7.3777,-7.368,-7.3134,-7.144,-6.9364,-6.9276,-6.9276,-6.9276,-6.9276,-6.9276,-6.9276,-6.9276,-6.9244,-6.8859,-6.7797,-6.7439,-6.6488,-6.4835,-6.288,-6.1696,-6.1166,-6.1166,-6.1118,-6.1203,-6.0889,-5.9604,-5.9355,-5.8716,-5.8239,-5.7987,-5.8012,-5.7886,-5.7886,-5.7886,-5.7886,-5.7735,-5.756,-5.6119,-5.307,-5.1457,-5.0004,-4.6432,-4.531,-4.4989,-4.4989,-4.4989,-4.4989,-4.4989,-4.4989,-4.4989,-4.4989,-4.4989,-4.4989,-4.4989,-4.4989,-4.4989,-4.4989,-4.4989,-4.4989,-4.4989,-4.4989,-4.4989,-4.4989,-4.4989,-4.4989,-4.48,-4.4081,-4.353,-4.3891,-4.4441,-4.391,-4.353,-4.3187,-4.3016,-4.1945,-4.052,-3.9118,-3.7543,-3.6234,-3.5694,-3.4816,-3.3826,-3.3436,-3.2096,-3.092,-3.0761,-3.0761,-3.0761,-3.071,-3.058,-3.0424,-3.0268,-2.9917,-2.9969,-3.0489,-3.0761,-3.0761,-3.0761,-3.071,-3.0761,-3.0761,-3.0761,-3.0761,-3.0761,-3.0761,-3.0761,-3.0761,-3.0761,-3.0761,-8.1983,-8.0485,-7.9343,-7.8594,-7.8033,-7.6253,-7.5555,-7.5536,-7.4588,-7.2732,-7.0258,-6.9582,-6.9276,-6.9276,-6.9276,-6.9276,-6.9276,-6.9276,-6.9276,-6.8948,-6.8348,-6.8553,-6.7581,-6.5671,-6.3173,-6.1777,-6.1166,-6.1195,-6.1201,-6.1002,-6.0497,-5.9905,-5.992,-5.9108,-5.8747,-5.8536,-5.8238,-5.8186,-5.7886,-5.7886,-5.7886,-5.7886,-5.7886,-5.693,-5.4349,-5.2437,-5.0814,-4.7727,-4.5779,-4.514,-4.4989,-4.4989,-4.4989,-4.4989,-4.4989,-4.4989,-4.4989,-4.4989,-4.4989,-4.4989,-4.4989,-4.4989,-4.4989,-4.4989,-4.4989,-4.4989,-4.4989,-4.4989,-4.4989,-4.4989,-4.4989,-4.4989,-4.4611,-4.4251,-4.4441,-4.463,-4.463,-4.4251,-4.4251,-4.391,-4.3549,-4.2308,-4.1077,-3.9487,-3.7302,-3.7368,-3.7273,-3.6649,-3.5602,-3.2433,-3.092,-3.0761,-3.0761,-3.0761,-3.0723,-3.058,-3.0658,-3.071,-3.0385,-3.0294,-3.0606,-3.0736,-3.0761,-3.0554,-3.0151,-3.0242,-3.0632,-3.0761,-3.0761,-3.0761,-3.0761,-3.0761,-3.0761,-3.0761,-3.0761,-8.3553,-8.2233,-8.2126,-8.1127,-7.9986,-7.968,-7.9009,-7.8113,-7.6833,-7.4942,-7.2774,-7.0357,-6.9648,-6.9462,-6.9276,-6.9276,-6.9276,-6.9276,-6.9276,-6.9068,-6.8948,-6.8991,-6.8233,-6.6319,-6.3629,-6.2019,-6.1166,-6.1166,-6.1195,-6.106,-6.0853,-6.057,-6.0792,-6.0315,-5.9852,-5.9496,-5.9252,-5.8312,-5.7886,-5.7886,-5.7886,-5.7886,-5.7886,-5.7233,-5.5611,-5.352,-5.1595,-4.9168,-4.7081,-4.5779,-4.497,-4.4989,-4.4989,-4.4989,-4.4989,-4.4989,-4.4989,-4.4989,-4.4989,-4.4989,-4.4989,-4.4989,-4.4989,-4.4989,-4.4989,-4.4989,-4.4989,-4.4989,-4.4989,-4.4989,-4.4989,-4.4989,-4.4989,-4.4989,-4.4989,-4.4989,-4.4989,-4.48,-4.48,-4.48,-4.4441,-4.3016,-4.1616,-4.0154,-3.7641,-3.7561,-3.6999,-3.6535,-3.3948,-3.1104,-3.0933,-3.0761,-3.0761,-3.0761,-3.0619,-3.0463,-3.0528,-3.0749,-3.0528,-3.045,-3.0528,-3.0671,-3.0658,-3.0411,-2.9762,-2.9801,-3.0502,-3.0761,-3.0761,-3.0761,-3.0761,-3.0761,-3.0761,-3.0761,-3.0761,-8.4231,-8.3625,-8.2661,-8.1912,-8.1627,-8.2519,-8.2173,-8.0635,-7.8605,-7.6438,-7.4402,-7.2567,-7.1302,-7.0527,-6.9803,-6.9276,-6.9276,-6.9276,-6.9276,-6.9276,-6.9276,-6.9284,-6.8426,-6.6467,-6.3907,-6.1891,-6.1175,-6.1166,-6.1166,-6.1166,-6.1087,-6.1167,-6.1585,-6.1509,-6.1555,-6.06,-5.9814,-5.8436,-5.7886,-5.7886,-5.7886,-5.7886,-5.7886,-5.7233,-5.6095,-5.4303,-5.2845,-5.0448,-4.7872,-4.6895,-4.5947,-4.4989,-4.4989,-4.4989,-4.4989,-4.4989,-4.4989,-4.4989,-4.4989,-4.4989,-4.4989,-4.4989,-4.4989,-4.4989,-4.4989,-4.4989,-4.4989,-4.4989,-4.4989,-4.4989,-4.4989,-4.4989,-4.4989,-4.4989,-4.4989,-4.4989,-4.48,-4.463,-4.463,-4.48,-4.427,-4.2135,-4.0362,-3.8909,-3.7464,-3.6915,-3.6381,-3.3912,-3.1445,-3.0933,-3.0761,-3.0761,-3.0761,-3.0761,-3.0645,-3.0463,-3.0554,-3.0736,-3.0723,-3.0658,-3.0697,-3.0515,-3.0528,-3.0411,-3.0255,-3.0268,-3.0645,-3.0761,-3.0761,-3.0761,-3.0761,-3.0761,-3.0761,-3.0761,-3.0761,-8.4516,-8.4445,-8.3446,-8.2982,-8.3161,-8.4124,-8.3981,-8.2809,-8.1136,-7.8969,-7.6551,-7.4524,-7.3027,-7.1583,-7.045,-6.9759,-6.9375,-6.9276,-6.9276,-6.9276,-6.9276,-6.9236,-6.8389,-6.6507,-6.3837,-6.1943,-6.1198,-6.1166,-6.1166,-6.1166,-6.1166,-6.1257,-6.1651,-6.2681,-6.3428,-6.2273,-6.0226,-5.8312,-5.7886,-5.7886,-5.7886,-5.7886,-5.791,-5.791,-5.6754,-5.5434,-5.428,-5.1414,-4.9168,-4.7872,-4.5947,-4.497,-4.4989,-4.4989,-4.4989,-4.4989,-4.4989,-4.4989,-4.4989,-4.4989,-4.4989,-4.4989,-4.4989,-4.4989,-4.4989,-4.4989,-4.4989,-4.4989,-4.4989,-4.4989,-4.4989,-4.4989,-4.4989,-4.4989,-4.4989,-4.4989,-4.4441,-4.4251,-4.3739,-4.3739,-4.2671,-4.0188,-3.9135,-3.822,-3.6086,-3.5189,-3.376,-3.1471,-3.0933,-3.0761,-3.0761,-3.0761,-3.0761,-3.0761,-3.0749,-3.0658,-3.071,-3.0761,-3.0761,-3.0761,-3.0567,-3.0359,-3.0398,-3.0606,-3.0697,-3.0761,-3.0761,-3.0761,-3.0761,-3.0761,-3.0761,-3.0761,-3.0761,-3.0761,-3.0761,-8.4583,-8.4516,-8.4445,-8.4445,-8.4374,-8.4516,-8.4481,-8.4231,-8.4021,-8.2196,-7.9103,-7.6525,-7.4254,-7.2532,-7.1826,-7.0791,-6.9923,-6.9572,-6.9375,-6.9309,-6.9189,-6.9228,-6.8289,-6.6672,-6.422,-6.1959,-6.1459,-6.1491,-6.1166,-6.1453,-6.1511,-6.1488,-6.1924,-6.3253,-6.6465,-6.4575,-6.1444,-5.8461,-5.8036,-5.7886,-5.7886,-5.7886,-5.7886,-5.791,-5.7409,-5.6578,-5.5279,-5.271,-5.0771,-4.9004,-4.6747,-4.546,-4.497,-4.4989,-4.4989,-4.4989,-4.4989,-4.4989,-4.4989,-4.4989,-4.4989,-4.4989,-4.4989,-4.4989,-4.4989,-4.4989,-4.4989,-4.4989,-4.4989,-4.4989,-4.4989,-4.4989,-4.4989,-4.4989,-4.4989,-4.463,-4.372,-4.3169,-4.2118,-4.1425,-3.9645,-3.8059,-3.7898,-3.7009,-3.4693,-3.2908,-3.1301,-3.0761,-3.0761,-3.0761,-3.0761,-3.0761,-3.0761,-3.0761,-3.0761,-3.0761,-3.0761,-3.0761,-3.0761,-3.0761,-3.0619,-3.0463,-3.0528,-3.0697,-3.0761,-3.0761,-3.0761,-3.0761,-3.0761,-3.0761,-3.0761,-3.0761,-3.0761,-3.0761,-3.0761,-8.4996,-8.4583,-8.4516,-8.4516,-8.4516,-8.4516,-8.4516,-8.4516,-8.4516,-8.3436,-8.1695,-7.9162,-7.706,-7.539,-7.397,-7.2179,-7.1108,-7.0657,-7.0098,-6.9605,-6.9309,-6.9232,-6.8666,-6.7178,-6.4857,-6.2188,-6.1927,-6.2069,-6.1473,-6.2169,-6.2436,-6.25,-6.282,-6.4391,-6.6007,-6.4492,-6.1586,-5.871,-5.7886,-5.7886,-5.7886,-5.7886,-5.7886,-5.7886,-5.7886,-5.7233,-5.6425,-5.4326,-5.2234,-5.0308,-4.8203,-4.6412,-4.546,-4.4989,-4.4989,-4.4989,-4.4989,-4.4989,-4.4989,-4.4989,-4.4989,-4.4989,-4.4989,-4.4989,-4.4989,-4.4989,-4.4989,-4.4989,-4.4989,-4.4989,-4.4989,-4.48,-4.48,-4.4441,-4.4441,-4.3739,-4.2825,-4.1234,-4.0171,-3.9118,-3.8059,-3.6831,-3.6311,-3.5068,-3.3104,-3.1838,-3.0946,-3.0761,-3.0761,-3.0761,-3.0761,-3.0761,-3.0761,-3.0761,-3.0761,-3.0761,-3.0761,-3.0761,-3.0761,-3.0761,-3.0761,-3.0723,-3.0736,-3.0761,-3.0761,-3.0761,-3.0761,-3.0761,-3.0761,-3.0761,-3.0761,-3.0761,-3.0761,-3.0761,-3.0761,-8.5257,-8.4905,-8.4624,-8.4516,-8.4516,-8.4516,-8.4516,-8.4516,-8.4516,-8.4176,-8.3398,-8.1038,-7.899,-7.7191,-7.5226,-7.3703,-7.2425,-7.1841,-7.0986,-7.0197,-6.9474,-6.9276,-6.8771,-6.7544,-6.5819,-6.3599,-6.3004,-6.2751,-6.2049,-6.2047,-6.2758,-6.3984,-6.4536,-6.5961,-6.6832,-6.6491,-6.2688,-5.9688,-5.7941,-5.7886,-5.7886,-5.7886,-5.7886,-5.7886,-5.7886,-5.7886,-5.7409,-5.497,-5.3048,-5.0975,-4.8368,-4.6432,-4.514,-4.497,-4.4989,-4.4989,-4.4989,-4.4989,-4.4989,-4.4989,-4.4989,-4.4989,-4.4989,-4.4989,-4.4989,-4.4989,-4.4989,-4.4989,-4.4989,-4.4989,-4.4819,-4.48,-4.4441,-4.4081,-4.3377,-4.2671,-4.1251,-3.9294,-3.7898,-3.6474,-3.5773,-3.5234,-3.418,-3.3118,-3.2035,-3.113,-3.0946,-3.0761,-3.0761,-3.0761,-3.0761,-3.0761,-3.0761,-3.0761,-3.0761,-3.0761,-3.0761,-3.0761,-3.0761,-3.0761,-3.0761,-3.0761,-3.0761,-3.0761,-3.0761,-3.0761,-3.0761,-3.0761,-3.0761,-3.0761,-3.0761,-3.0761,-3.0761,-3.0761,-3.0761,-8.5633,-8.5543,-8.49,-8.465,-8.4516,-8.4516,-8.4516,-8.4516,-8.4516,-8.4516,-8.4132,-8.2438,-8.0224,-7.8061,-7.6796,-7.5372,-7.3748,-7.2433,-7.1973,-7.1315,-7.0263,-6.9868,-6.956,-6.8452,-6.6637,-6.5028,-6.4239,-6.3688,-6.3192,-6.2351,-6.3283,-6.4827,-6.5438,-6.7299,-6.8189,-6.8033,-6.4807,-6.0485,-5.8141,-5.8036,-5.7886,-5.7886,-5.7886,-5.7886,-5.7886,-5.7886,-5.776,-5.4838,-5.2596,-5.1457,-4.8532,-4.6432,-4.5291,-4.497,-4.4989,-4.4989,-4.4989,-4.4989,-4.4989,-4.4989,-4.4989,-4.4989,-4.4989,-4.4989,-4.4989,-4.4989,-4.4989,-4.4989,-4.4989,-4.4989,-4.4819,-4.463,-4.3359,-4.2653,-4.1598,-4.038,-3.8429,-3.6847,-3.5773,-3.4194,-3.3118,-3.2557,-3.1668,-3.1852,-3.0946,-3.0946,-3.0761,-3.0761,-3.0761,-3.0761,-3.0761,-3.0761,-3.0761,-3.0761,-3.0761,-3.0761,-3.0761,-3.0761,-3.0761,-3.0761,-3.0761,-3.0761,-3.0761,-3.0761,-3.0761,-3.0761,-3.0761,-3.0761,-3.0761,-3.0761,-3.0761,-3.0761,-3.0761,-3.0761,-3.0761,-8.6425,-8.6351,-8.5617,-8.4996,-8.4552,-8.4516,-8.4516,-8.4516,-8.4516,-8.4516,-8.4374,-8.3918,-8.2438,-8.0425,-7.8885,-7.7289,-7.5388,-7.4899,-7.4143,-7.2926,-7.1874,-7.1593,-7.1273,-6.9724,-6.7532,-6.5278,-6.5022,-6.4392,-6.37,-6.3236,-6.3544,-6.503,-6.5728,-6.6979,-6.8414,-6.8624,-6.7039,-6.1731,-5.9295,-5.8064,-5.7886,-5.7886,-5.7886,-5.7886,-5.7886,-5.7886,-5.791,-5.6272,-5.4036,-5.2415,-4.98,-4.7354,-4.546,-4.497,-4.4989,-4.4989,-4.4989,-4.4989,-4.4989,-4.4989,-4.4989,-4.4989,-4.4989,-4.4989,-4.4989,-4.4989,-4.4989,-4.4989,-4.4989,-4.4989,-4.463,-4.3377,-4.229,-4.1234,-3.9838,-3.7559,-3.5623,-3.5429,-3.4542,-3.3118,-3.1852,-3.0761,-3.0761,-3.0761,-3.0761,-3.0761,-3.0761,-3.0761,-3.0761,-3.0761,-3.0761,-3.0761,-3.0761,-3.0761,-3.0761,-3.0761,-3.0761,-3.0761,-3.0761,-3.0761,-3.0761,-3.0761,-3.0761,-3.0761,-3.0761,-3.0761,-3.0761,-3.0761,-3.0774,-3.0878,-3.0943,-3.0865,-3.0891,-3.0761,-3.0787,-8.714,-8.6973,-8.5995,-8.5297,-8.4969,-8.4614,-8.4516,-8.4516,-8.4516,-8.4516,-8.4516,-8.4516,-8.3612,-8.1776,-8.0167,-7.8672,-7.7441,-7.6236,-7.5293,-7.4373,-7.3255,-7.2845,-7.2993,-7.124,-6.921,-6.7396,-6.6441,-6.5375,-6.4572,-6.4252,-6.4357,-6.5149,-6.5757,-6.6979,-6.8772,-6.8998,-6.7149,-6.4207,-6.0537,-5.8016,-5.7841,-5.7886,-5.7886,-5.7886,-5.7886,-5.7886,-5.7536,-5.701,-5.4699,-5.3318,-4.9462,-4.7733,-4.6688,-4.546,-4.4989,-4.4989,-4.4989,-4.4989,-4.4989,-4.4989,-4.4989,-4.4989,-4.4989,-4.4989,-4.4989,-4.4989,-4.4989,-4.4989,-4.4989,-4.4989,-4.4441,-4.3549,-4.2118,-4.0188,-3.859,-3.6132,-3.3998,-3.3817,-3.3468,-3.2021,-3.0761,-3.0761,-3.0761,-3.0761,-3.0761,-3.0761,-3.0761,-3.0761,-3.0761,-3.0761,-3.0761,-3.0761,-3.0761,-3.0761,-3.0761,-3.0761,-3.0761,-3.0761,-3.0761,-3.0761,-3.0761,-3.0761,-3.0761,-3.0761,-3.0761,-3.0761,-3.0761,-3.0852,-3.1034,-3.1099,-3.1151,-3.1463,-3.1735,-3.1541,-3.1398,-8.7731,-8.7536,-8.6273,-8.5619,-8.5442,-8.4775,-8.4516,-8.4516,-8.4516,-8.4516,-8.4516,-8.4481,-8.4057,-8.2904,-8.0938,-7.9907,-7.8826,-7.7341,-7.6214,-7.5852,-7.4603,-7.4098,-7.4076,-7.2516,-7.0503,-6.9439,-6.7921,-6.669,-6.5763,-6.5186,-6.5084,-6.524,-6.6117,-6.7386,-6.8404,-6.8859,-6.7979,-6.5599,-6.1227,-5.8683,-5.8338,-5.8061,-5.7886,-5.7886,-5.7886,-5.7886,-5.7711,-5.6306,-5.4761,-5.3876,-4.8866,-4.6813,-4.74,-4.6096,-4.514,-4.4989,-4.4989,-4.4989,-4.4989,-4.4989,-4.4989,-4.4989,-4.4989,-4.4989,-4.4989,-4.4989,-4.4989,-4.4989,-4.4989,-4.4989,-4.48,-4.446,-4.2326,-4.003,-3.8236,-3.5593,-3.2739,-3.2935,-3.2021,-3.0761,-3.0761,-3.0761,-3.0761,-3.0761,-3.0761,-3.0761,-3.0761,-3.0761,-3.0761,-3.0761,-3.0761,-3.0761,-3.0761,-3.0761,-3.0761,-3.0761,-3.0761,-3.0761,-3.0761,-3.0761,-3.0761,-3.0761,-3.0761,-3.0761,-3.0761,-3.0761,-3.093,-3.1112,-3.1307,-3.1476,-3.167,-3.2034,-3.2437,-3.2411,-3.2242,-8.8157,-8.7601,-8.681,-8.6092,-8.5502,-8.4876,-8.4516,-8.4516,-8.4516,-8.4516,-8.4516,-8.4516,-8.4409,-8.3894,-8.2727,-8.1229,-7.9361,-7.8237,-7.7526,-7.7229,-7.6112,-7.6043,-7.567,-7.3893,-7.1536,-7.0789,-6.8925,-6.717,-6.6577,-6.586,-6.5361,-6.5431,-6.5387,-6.6136,-6.7561,-6.8637,-6.7664,-6.5927,-6.3337,-6.1539,-6.0004,-5.8734,-5.7886,-5.7886,-5.7886,-5.7886,-5.7886,-5.6985,-5.6201,-5.3963,-5.1043,-4.8344,-4.7936,-4.6096,-4.497,-4.4989,-4.4989,-4.4989,-4.4989,-4.4989,-4.4989,-4.4989,-4.4989,-4.4989,-4.4989,-4.4989,-4.4989,-4.4989,-4.4989,-4.4989,-4.4649,-4.3315,-4.1704,-4.0222,-3.8766,-3.6847,-3.3998,-3.1852,-3.0946,-3.0761,-3.0761,-3.0761,-3.0761,-3.0761,-3.0761,-3.0761,-3.0761,-3.0761,-3.0761,-3.0761,-3.0761,-3.0761,-3.0761,-3.0761,-3.0761,-3.0761,-3.0761,-3.0761,-3.0761,-3.0761,-3.0761,-3.0761,-3.0761,-3.0761,-3.0787,-3.0969,-3.119,-3.1385,-3.1787,-3.2112,-3.2242,-3.245,-3.2735,-3.28,-3.2852,-8.8437,-8.8105,-8.7464,-8.672,-8.6037,-8.5333,-8.484,-8.4583,-8.4516,-8.4516,-8.4516,-8.4516,-8.4516,-8.4381,-8.3896,-8.2844,-8.1073,-7.9576,-7.8687,-7.8465,-7.7553,-7.7328,-7.7285,-7.4296,-7.2754,-7.1578,-7.0299,-6.8815,-6.7246,-6.6492,-6.6244,-6.602,-6.6004,-6.6688,-6.791,-6.8608,-6.8362,-6.7292,-6.4902,-6.2869,-6.1977,-6.0207,-5.8759,-5.8162,-5.7886,-5.7886,-5.7886,-5.7886,-5.7233,-5.5718,-5.2486,-5.0599,-4.9327,-4.7834,-4.6098,-4.5064,-4.4989,-4.4989,-4.4989,-4.4989,-4.4989,-4.4989,-4.4989,-4.4989,-4.4989,-4.4989,-4.4989,-4.4989,-4.4989,-4.4989,-4.4819,-4.3965,-4.2033,-4.0537,-4.0886,-3.8413,-3.4165,-3.1655,-3.0946,-3.0761,-3.1485,-3.2035,-3.1485,-3.0946,-3.0761,-3.0761,-3.0761,-3.0761,-3.0761,-3.0761,-3.0761,-3.0761,-3.0761,-3.0761,-3.0761,-3.0761,-3.0761,-3.0761,-3.0761,-3.0761,-3.0761,-3.0761,-3.0761,-3.0956,-3.1034,-3.1203,-3.1502,-3.2047,-3.2437,-3.28,-3.2891,-3.2995,-3.3138,-3.3281,-3.3423,-8.8612,-8.8577,-8.7944,-8.7271,-8.6605,-8.585,-8.5113,-8.4614,-8.4516,-8.4516,-8.4516,-8.4516,-8.4516,-8.4516,-8.4516,-8.3967,-8.2393,-8.0374,-7.9327,-7.9145,-7.8274,-7.7856,-7.749,-7.5158,-7.3544,-7.2531,-7.1444,-6.9875,-6.8137,-6.7044,-6.6409,-6.6677,-6.6563,-6.6956,-6.7735,-6.8869,-6.8859,-6.8177,-6.5257,-6.3419,-6.2767,-6.1288,-5.9668,-5.8036,-5.7886,-5.7886,-5.7886,-5.7886,-5.7886,-5.756,-5.3766,-5.1805,-5.0685,-4.8569,-4.6518,-4.5364,-4.4989,-4.4989,-4.4989,-4.4989,-4.4989,-4.4989,-4.4989,-4.4989,-4.4989,-4.4989,-4.4989,-4.4989,-4.4989,-4.4989,-4.4989,-4.4649,-4.2843,-4.1251,-4.106,-3.9996,-3.4332,-3.1668,-3.113,-3.2739,-3.33,-3.3664,-3.2401,-3.1485,-3.113,-3.0761,-3.0761,-3.0761,-3.0761,-3.0761,-3.0761,-3.0761,-3.0761,-3.0761,-3.0761,-3.0761,-3.0761,-3.0761,-3.0761,-3.0761,-3.0761,-3.0761,-3.1086,-3.1502,-3.1696,-3.1904,-3.2281,-3.2748,-3.3125,-3.3384,-3.3514,-3.3618,-3.367,-3.3709,-3.3891,-8.8612,-8.8577,-8.7944,-8.7234,-8.6605,-8.587,-8.5236,-8.465,-8.4516,-8.4655,-8.4516,-8.4516,-8.4516,-8.4516,-8.4516,-8.3963,-8.265,-8.0801,-7.9867,-7.9509,-7.8469,-7.802,-7.7594,-7.631,-7.4734,-7.3419,-7.2261,-7.0691,-6.8686,-6.6897,-6.6216,-6.576,-6.5659,-6.6173,-6.6426,-6.7706,-6.8986,-6.8646,-6.562,-6.3845,-6.3094,-6.1713,-5.9909,-5.8312,-5.7886,-5.7886,-5.7886,-5.7886,-5.7886,-5.7711,-5.3882,-5.1882,-5.0438,-4.7936,-4.5083,-4.5102,-4.4989,-4.4989,-4.4989,-4.4989,-4.4989,-4.4989,-4.4989,-4.4989,-4.4989,-4.4989,-4.4989,-4.4989,-4.4989,-4.4989,-4.4989,-4.4989,-4.4441,-4.3377,-4.0362,-3.859,-3.628,-3.309,-3.3621,-3.5399,-3.5773,-3.5444,-3.3998,-3.2388,-3.1485,-3.0761,-3.0761,-3.0761,-3.0761,-3.0761,-3.0761,-3.0761,-3.0761,-3.0761,-3.0761,-3.0761,-3.0761,-3.0761,-3.0761,-3.0761,-3.0761,-3.1203,-3.1826,-3.2164,-3.2592,-3.2969,-3.3346,-3.3475,-3.3644,-3.3943,-3.4034,-3.3943,-3.4008,-3.4164,-3.4138,-8.8612,-8.8612,-8.8325,-8.7823,-8.7225,-8.6818,-8.6092,-8.5283,-8.5482,-8.5328,-8.4686,-8.4516,-8.4516,-8.4516,-8.4552,-8.4354,-8.3634,-8.2609,-8.1612,-8.0219,-7.8659,-7.7989,-7.7661,-7.7102,-7.5721,-7.3847,-7.2906,-7.1331,-6.9309,-6.7502,-6.6631,-6.7299,-6.6596,-6.6386,-6.7422,-6.8375,-6.8957,-6.8461,-6.7107,-6.5283,-6.3637,-6.2384,-6.0897,-5.8436,-5.7886,-5.7886,-5.7886,-5.7886,-5.7886,-5.7433,-5.6013,-5.4128,-5.1501,-4.843,-4.6166,-4.5271,-4.4989,-4.4989,-4.4989,-4.4989,-4.4989,-4.4989,-4.4989,-4.4989,-4.4989,-4.4989,-4.4989,-4.4989,-4.4989,-4.4989,-4.4989,-4.4989,-4.4081,-4.3187,-4.2135,-4.0554,-3.859,-3.8236,-3.8766,-3.7543,-3.7898,-3.7365,-3.5952,-3.418,-3.3272,-3.3803,-3.3621,-3.2191,-3.2191,-3.1655,-3.1485,-3.0761,-3.0761,-3.0761,-3.0761,-3.0946,-3.0946,-3.113,-3.0998,-3.0891,-3.1255,-3.1943,-3.2566,-3.3008,-3.3449,-3.3878,-3.3852,-3.4008,-3.4099,-3.4164,-3.4164,-3.4177,-3.419,-3.419,-3.419,-8.8612,-8.8612,-8.8612,-8.8251,-8.774,-8.7618,-8.6818,-8.5597,-8.6344,-8.5823,-8.4788,-8.4516,-8.4516,-8.4516,-8.4516,-8.4516,-8.4417,-8.4245,-8.3361,-8.119,-7.9001,-7.8086,-7.7858,-7.7365,-7.6017,-7.411,-7.3446,-7.171,-6.9718,-6.8299,-6.8123,-6.8538,-6.7676,-6.7803,-6.845,-6.8608,-6.8986,-6.8986,-6.8957,-6.7089,-6.4693,-6.3553,-6.169,-5.9057,-5.8159,-5.791,-5.7886,-5.7886,-5.7886,-5.7706,-5.67,-5.4244,-5.1501,-4.8716,-4.6481,-4.5291,-4.4989,-4.4989,-4.4989,-4.4989,-4.4989,-4.4989,-4.4989,-4.4989,-4.4989,-4.4989,-4.4989,-4.4989,-4.4989,-4.4989,-4.4989,-4.4989,-4.4251,-4.3359,-4.3549,-4.3206,-4.0903,-4.2481,-4.2481,-4.0729,-4.0188,-4.0171,-3.875,-3.6295,-3.5429,-3.6831,-3.5937,-3.4332,-3.344,-3.2908,-3.2021,-3.0761,-3.0946,-3.1314,-3.1314,-3.1485,-3.1668,-3.2021,-3.1525,-3.1164,-3.2073,-3.2826,-3.3294,-3.3774,-3.419,-3.4164,-3.4073,-3.419,-3.419,-3.419,-3.419,-3.419,-3.419,-3.419,-3.419,-8.8612,-8.8612,-8.8612,-8.8288,-8.7744,-8.7618,-8.6867,-8.5902,-8.6271,-8.5787,-8.4788,-8.4516,-8.4516,-8.4516,-8.4516,-8.4516,-8.4516,-8.4516,-8.3142,-8.1321,-7.9428,-7.7954,-7.766,-7.6707,-7.5228,-7.3518,-7.2299,-7.089,-6.9546,-6.913,-6.859,-6.8116,-6.8678,-6.8426,-6.8047,-6.8549,-6.8928,-6.8986,-6.8986,-6.7727,-6.5387,-6.3931,-6.2106,-5.9928,-5.8607,-5.791,-5.7886,-5.7886,-5.7886,-5.7886,-5.4261,-5.2388,-5.1384,-4.7415,-4.5291,-4.497,-4.4989,-4.4989,-4.4989,-4.4989,-4.4989,-4.4989,-4.4989,-4.4989,-4.4989,-4.4989,-4.4989,-4.4989,-4.4989,-4.4989,-4.4989,-4.4989,-4.4611,-4.4441,-4.4441,-4.48,-4.427,-4.463,-4.48,-4.4099,-4.038,-3.9821,-3.9118,-3.7721,-3.5444,-3.8959,-3.6489,-3.5593,-3.5399,-3.344,-3.1471,-3.0761,-3.113,-3.1498,-3.2035,-3.2035,-3.2218,-3.2442,-3.1618,-3.1683,-3.2592,-3.3371,-3.3917,-3.419,-3.419,-3.419,-3.419,-3.419,-3.419,-3.419,-3.419,-3.419,-3.419,-3.419,-3.419,-8.8612,-8.8612,-8.8612,-8.847,-8.8176,-8.7823,-8.7095,-8.6255,-8.5699,-8.5077,-8.465,-8.4516,-8.4516,-8.4516,-8.4516,-8.4516,-8.4516,-8.4516,-8.3648,-8.2115,-8.0513,-7.8684,-7.6929,-7.6148,-7.4603,-7.2623,-7.1804,-7.0626,-6.9517,-6.9219,-6.9001,-6.8544,-6.8972,-6.8799,-6.8216,-6.8811,-6.8986,-6.8986,-6.8957,-6.7486,-6.4695,-6.3687,-6.1911,-5.9479,-5.8432,-5.7886,-5.7886,-5.7886,-5.7886,-5.7082,-5.4036,-5.1479,-5.1158,-4.7248,-4.497,-4.4989,-4.4989,-4.4989,-4.4989,-4.4989,-4.4989,-4.4989,-4.4989,-4.4989,-4.4989,-4.4989,-4.4989,-4.4989,-4.4989,-4.4989,-4.4989,-4.4989,-4.4989,-4.4989,-4.4989,-4.4989,-4.4819,-4.4989,-4.4989,-4.446,-4.3377,-4.2481,-4.3016,-4.0537,-4.0188,-4.0205,-3.7381,-3.6668,-3.6653,-3.3272,-3.0761,-3.0761,-3.0946,-3.2205,-3.2935,-3.1852,-3.1682,-3.1604,-3.139,-3.1956,-3.2839,-3.3696,-3.4047,-3.419,-3.419,-3.419,-3.419,-3.419,-3.419,-3.419,-3.419,-3.419,-3.419,-3.419,-3.419,-8.8612,-8.8612,-8.8612,-8.8612,-8.8505,-8.7944,-8.7316,-8.6532,-8.5139,-8.4645,-8.4543,-8.4516,-8.4516,-8.4516,-8.4516,-8.4516,-8.4516,-8.4516,-8.4001,-8.2914,-8.1797,-7.9438,-7.7154,-7.5465,-7.3485,-7.18,-7.1088,-7.0329,-6.9342,-7.023,-7.0059,-6.9308,-6.9962,-7.0065,-6.9137,-6.8957,-6.8986,-6.8986,-6.8986,-6.7428,-6.4652,-6.3715,-6.1833,-5.8833,-5.8159,-5.7886,-5.7886,-5.7886,-5.7886,-5.7584,-5.388,-5.1479,-5.1158,-4.7415,-4.4989,-4.4989,-4.4989,-4.4989,-4.4989,-4.4989,-4.4989,-4.4989,-4.4989,-4.4989,-4.4989,-4.4989,-4.4989,-4.4989,-4.4989,-4.4989,-4.4989,-4.4989,-4.4989,-4.4989,-4.4989,-4.4989,-4.4989,-4.4989,-4.4989,-4.463,-4.3549,-4.3016,-4.2843,-4.1598,-4.0537,-4.1077,-3.8606,-3.5773,-3.5234,-3.2908,-3.3803,-3.2908,-3.2191,-3.3286,-3.3286,-3.1852,-3.1024,-3.1129,-3.1703,-3.2448,-3.3021,-3.3826,-3.4073,-3.419,-3.419,-3.419,-3.419,-3.419,-3.419,-3.419,-3.419,-3.419,-3.419,-3.419,-3.419,-8.8612,-8.8612,-8.8612,-8.8612,-8.854,-8.7944,-8.7316,-8.6532,-8.5268,-8.4681,-8.4543,-8.4516,-8.4516,-8.4516,-8.4516,-8.4516,-8.4516,-8.4516,-8.3966,-8.2779,-8.1439,-7.9994,-7.7687,-7.406,-7.2063,-7.1151,-7.0066,-6.9408,-6.9342,-7.1174,-7.1961,-6.9414,-7.0921,-7.167,-6.9261,-6.8928,-6.8811,-6.8957,-6.8986,-6.7872,-6.5712,-6.4202,-6.2326,-6.0278,-5.868,-5.7886,-5.7886,-5.7886,-5.7886,-5.7433,-5.4215,-5.1959,-5.0814,-4.7248,-4.4989,-4.4989,-4.4989,-4.4989,-4.4989,-4.4989,-4.4989,-4.4989,-4.4989,-4.4989,-4.4989,-4.4989,-4.4989,-4.4989,-4.4989,-4.4989,-4.4989,-4.4989,-4.4989,-4.4989,-4.4989,-4.4989,-4.4989,-4.4989,-4.4989,-4.427,-4.1251,-3.9294,-4.1927,-4.0362,-3.9294,-3.9135,-3.8766,-3.6013,-3.4585,-3.5489,-3.6862,-3.6474,-3.5039,-3.5234,-3.3831,-3.2429,-3.1314,-3.1577,-3.2411,-3.2878,-3.3151,-3.3774,-3.419,-3.419,-3.419,-3.419,-3.419,-3.419,-3.419,-3.419,-3.419,-3.419,-3.419,-3.419,-3.419,-8.8612,-8.8612,-8.8612,-8.8612,-8.8577,-8.7944,-8.7353,-8.6642,-8.6125,-8.5391,-8.465,-8.4516,-8.4516,-8.4516,-8.4516,-8.4516,-8.4516,-8.4516,-8.3434,-8.1551,-7.9712,-7.8011,-7.6281,-7.304,-7.1052,-7.0098,-6.9507,-6.9276,-6.9276,-6.9528,-6.9062,-6.8056,-6.8109,-6.8083,-6.7837,-6.711,-6.7544,-6.8869,-6.8986,-6.7486,-6.4877,-6.3687,-6.1911,-5.938,-5.8358,-5.791,-5.7886,-5.7886,-5.7886,-5.7584,-5.6449,-5.4215,-5.1479,-4.7415,-4.4989,-4.4989,-4.4989,-4.4989,-4.4989,-4.4989,-4.4989,-4.4989,-4.4989,-4.4989,-4.4989,-4.4989,-4.4989,-4.4989,-4.4989,-4.4989,-4.4989,-4.4989,-4.4989,-4.4989,-4.4989,-4.4989,-4.4989,-4.4989,-4.4989,-4.463,-4.3206,-4.3016,-4.3359,-4.2653,-4.2308,-4.2135,-4.106,-3.8655,-3.6818,-3.6916,-3.7298,-3.7543,-3.5937,-3.4527,-3.4027,-3.3061,-3.1764,-3.2094,-3.2854,-3.3022,-3.3138,-3.3709,-3.419,-3.419,-3.419,-3.419,-3.419,-3.419,-3.419,-3.419,-3.419,-3.419,-3.419,-3.419,-3.419,-8.8612,-8.8612,-8.8612,-8.8612,-8.8505,-8.7703,-8.7095,-8.6678,-8.6185,-8.5527,-8.4686,-8.4516,-8.4516,-8.4516,-8.4516,-8.4516,-8.4481,-8.3605,-8.2127,-7.9897,-7.7679,-7.5958,-7.444,-7.2499,-7.0723,-6.9474,-6.9276,-6.9276,-6.9156,-6.8882,-6.8003,-6.7349,-6.6745,-6.6739,-6.7072,-6.6118,-6.6696,-6.8782,-6.8986,-6.7486,-6.461,-6.3687,-6.1911,-5.9057,-5.8159,-5.7886,-5.7886,-5.7886,-5.7886,-5.7886,-5.791,-5.5989,-5.1617,-4.7248,-4.497,-4.4989,-4.4989,-4.4989,-4.4989,-4.4989,-4.4989,-4.4989,-4.4989,-4.4989,-4.4989,-4.4989,-4.4989,-4.4989,-4.4989,-4.4989,-4.4989,-4.4989,-4.4989,-4.4989,-4.4989,-4.4989,-4.4989,-4.4989,-4.4989,-4.48,-4.427,-4.391,-4.372,-4.2671,-4.1666,-4.0747,-4.0383,-3.9578,-3.8576,-3.9151,-3.9854,-3.7721,-3.3803,-3.1682,-3.2035,-3.1735,-3.1259,-3.1905,-3.247,-3.2631,-3.3099,-3.3605,-3.4008,-3.419,-3.419,-3.419,-3.419,-3.419,-3.419,-3.419,-3.419,-3.419,-3.419,-3.419,-3.419,-8.8612,-8.8612,-8.8612,-8.8649,-8.8361,-8.7362,-8.6756,-8.6397,-8.5247,-8.4716,-8.4619,-8.4516,-8.4516,-8.4516,-8.4516,-8.4409,-8.374,-8.181,-7.987,-7.8145,-7.6176,-7.4441,-7.296,-7.1782,-7.0493,-6.9309,-6.9276,-6.9276,-6.9222,-6.9996,-6.9414,-6.7833,-6.798,-6.7564,-6.6863,-6.6125,-6.6907,-6.8375,-6.8724,-6.7698,-6.6152,-6.4202,-6.2379,-6.0353,-5.8705,-5.7886,-5.7886,-5.7886,-5.7886,-5.7886,-5.7886,-5.5812,-5.1843,-4.7435,-4.4989,-4.4989,-4.4989,-4.4989,-4.4989,-4.4989,-4.4989,-4.4989,-4.4989,-4.4989,-4.4989,-4.4989,-4.4989,-4.4989,-4.4989,-4.4989,-4.4989,-4.4989,-4.4989,-4.4989,-4.4989,-4.4989,-4.4989,-4.4989,-4.4989,-4.463,-4.3359,-4.1736,-4.1216,-4.0537,-3.9194,-3.7974,-3.7929,-3.8827,-3.9281,-4.1696,-4.21,-3.8236,-3.3621,-3.0946,-3.0761,-3.08,-3.1151,-3.1502,-3.2021,-3.254,-3.2969,-3.3631,-3.406,-3.419,-3.419,-3.419,-3.419,-3.419,-3.419,-3.419,-3.419,-3.419,-3.419,-3.419,-3.419,-8.8612,-8.8612,-8.8612,-8.8399,-8.7944,-8.7494,-8.6769,-8.5834,-8.4925,-8.4538,-8.4512,-8.4516,-8.4516,-8.4516,-8.4516,-8.3482,-8.1318,-7.9765,-7.7826,-7.5774,-7.4273,-7.249,-7.0675,-7.011,-6.9704,-6.9309,-6.9276,-6.9276,-6.9255,-6.8835,-6.7757,-6.5962,-6.5472,-6.4941,-6.445,-6.3368,-6.4151,-6.6072,-6.6943,-6.5814,-6.34,-6.3165,-6.1885,-5.9206,-5.8183,-5.7886,-5.7886,-5.7886,-5.7886,-5.7886,-5.7886,-5.6438,-5.2814,-4.7888,-4.4989,-4.4989,-4.497,-4.4989,-4.4989,-4.4989,-4.4989,-4.4989,-4.4989,-4.4989,-4.4989,-4.4989,-4.4989,-4.4989,-4.4989,-4.4989,-4.4989,-4.4989,-4.4989,-4.4989,-4.4989,-4.4989,-4.4989,-4.4989,-4.4989,-4.48,-4.4081,-4.372,-4.353,-4.1598,-4.0657,-4.1633,-4.0499,-4.1199,-4.2292,-4.3913,-4.2481,-3.4693,-3.1655,-3.0946,-3.0761,-3.0761,-3.1008,-3.1294,-3.1735,-3.2268,-3.2813,-3.3618,-3.4112,-3.4164,-3.419,-3.419,-3.419,-3.419,-3.419,-3.419,-3.419,-3.419,-3.419,-3.419,-3.419,-8.8612,-8.8612,-8.8399,-8.8061,-8.7618,-8.7095,-8.6377,-8.5524,-8.4804,-8.451,-8.4548,-8.4516,-8.4231,-8.366,-8.3125,-8.1484,-7.9039,-7.7587,-7.5714,-7.3841,-7.2249,-7.0761,-6.9309,-6.9276,-6.9276,-6.9276,-6.9276,-6.8948,-6.8405,-6.7705,-6.6356,-6.4674,-6.3764,-6.3278,-6.3225,-6.2821,-6.366,-6.5757,-6.6827,-6.6407,-6.4604,-6.3676,-6.1477,-5.7839,-5.7033,-5.6739,-5.6739,-5.6739,-5.6739,-5.6739,-5.6739,-5.5298,-5.1928,-4.8195,-4.5792,-4.4683,-4.4818,-4.4989,-4.4989,-4.4989,-4.4989,-4.4989,-4.4989,-4.4989,-4.4989,-4.4989,-4.4989,-4.4989,-4.4989,-4.4989,-4.4989,-4.4989,-4.4989,-4.4989,-4.4989,-4.4989,-4.4989,-4.4989,-4.4989,-4.48,-4.4081,-4.372,-4.3016,-4.229,-4.2104,-4.3194,-4.2385,-4.2499,-4.4081,-4.372,-4.0171,-3.3258,-3.0761,-3.0761,-3.0761,-3.0761,-3.0826,-3.1099,-3.1593,-3.2216,-3.2722,-3.3488,-3.4073,-3.4151,-3.4177,-3.419,-3.419,-3.419,-3.419,-3.419,-3.419,-3.419,-3.419,-3.419,-3.419,-8.8612,-8.8507,-8.7944,-8.7618,-8.745,-8.6201,-8.5524,-8.5418,-8.4804,-8.4476,-8.4302,-8.4481,-8.3589,-8.1876,-8.0521,-7.8951,-7.7373,-7.5556,-7.3926,-7.2351,-7.0399,-6.9331,-6.9244,-6.9276,-6.9276,-6.9276,-6.9276,-6.8649,-6.7521,-6.7303,-6.5937,-6.3524,-6.3343,-6.3248,-6.3195,-6.3983,-6.5438,-6.6194,-6.7473,-6.8346,-6.7756,-6.4686,-6.1244,-5.7705,-5.5637,-5.4811,-5.4762,-5.4689,-5.4713,-5.4689,-5.462,-5.2748,-4.9274,-4.8518,-4.6805,-4.4116,-4.4401,-4.4818,-4.4856,-4.4668,-4.4725,-4.4951,-4.4989,-4.4989,-4.4989,-4.4989,-4.4989,-4.4989,-4.4989,-4.4989,-4.4989,-4.4989,-4.4989,-4.4989,-4.4989,-4.4989,-4.4989,-4.463,-4.48,-4.4251,-4.2653,-4.1407,-4.1216,-4.1216,-4.0765,-4.1162,-4.1042,-4.1477,-4.297,-4.1651,-3.7689,-3.2725,-3.0761,-3.0761,-3.0761,-3.0761,-3.0761,-3.0969,-3.1554,-3.2398,-3.2826,-3.3242,-3.3774,-3.4138,-3.4164,-3.419,-3.419,-3.419,-3.419,-3.419,-3.419,-3.419,-3.419,-3.419,-3.419,-8.8399,-8.7944,-8.7781,-8.7095,-8.6056,-8.5699,-8.5236,-8.484,-8.465,-8.391,-8.3054,-8.4088,-8.2447,-7.9156,-7.8397,-7.7361,-7.5833,-7.4494,-7.3358,-7.2287,-7.0947,-6.9949,-6.9244,-6.9276,-6.9276,-6.9276,-6.9244,-6.9036,-6.8616,-6.7737,-6.5969,-6.3734,-6.3343,-6.2831,-6.1944,-6.2122,-6.2529,-6.3024,-6.4129,-6.4098,-6.2786,-6.1567,-6.0157,-5.849,-5.6015,-5.464,-5.464,-5.464,-5.464,-5.464,-5.3256,-5.1269,-4.8734,-4.7211,-4.536,-4.3187,-4.311,-4.3471,-4.4059,-4.3446,-4.369,-4.4706,-4.4989,-4.4989,-4.4989,-4.4989,-4.4989,-4.4989,-4.4989,-4.4989,-4.4989,-4.4989,-4.4989,-4.4989,-4.4989,-4.4989,-4.48,-4.3187,-4.2463,-4.2118,-4.0362,-3.8766,-3.859,-3.7543,-3.7413,-3.8462,-3.7591,-3.7182,-3.8949,-3.8072,-3.5593,-3.1485,-3.0761,-3.0761,-3.0761,-3.0761,-3.0761,-3.0956,-3.1346,-3.2047,-3.2488,-3.2631,-3.3008,-3.4112,-3.4164,-3.419,-3.419,-3.419,-3.419,-3.419,-3.419,-3.419,-3.419,-3.419,-3.419,-8.7864,-8.7308,-8.7271,-8.6619,-8.5452,-8.4551,-8.3936,-8.3446,-8.2489,-8.174,-8.1306,-8.0878,-7.8975,-7.6055,-7.6001,-7.5328,-7.3963,-7.2976,-7.2184,-7.1582,-7.0625,-6.9747,-6.9244,-6.9276,-6.9276,-6.9244,-6.8642,-6.8642,-6.8673,-6.6832,-6.4582,-6.2731,-6.2514,-6.2137,-6.1337,-6.1718,-6.2064,-6.2122,-6.3344,-6.2098,-5.8717,-5.7428,-5.6544,-5.554,-5.3357,-5.2029,-5.2029,-5.2005,-5.2029,-5.1869,-5.027,-4.8248,-4.6253,-4.4508,-4.2944,-4.1733,-4.1496,-4.2009,-4.3167,-4.2902,-4.2889,-4.3803,-4.4573,-4.4989,-4.4989,-4.4989,-4.4989,-4.4989,-4.4989,-4.4989,-4.4989,-4.4989,-4.4989,-4.4989,-4.4989,-4.4989,-4.48,-4.2825,-4.139,-4.1216,-3.859,-3.6831,-3.7365,-3.5788,-3.5518,-3.7182,-3.6971,-3.5548,-3.4855,-3.5016,-3.3664,-3.1485,-3.0761,-3.0761,-3.0761,-3.0761,-3.0761,-3.0852,-3.1242,-3.1515,-3.1852,-3.2047,-3.2839,-3.3995,-3.4138,-3.419,-3.419,-3.419,-3.419,-3.419,-3.419,-3.419,-3.419,-3.419,-3.3917,-8.7188,-8.6605,-8.6385,-8.5928,-8.4949,-8.2913,-8.2019,-8.1734,-7.9466,-7.8726,-7.8583,-7.6108,-7.4468,-7.3655,-7.358,-7.3199,-7.2331,-7.1229,-7.082,-7.0659,-6.9728,-6.9276,-6.9244,-6.9276,-6.9276,-6.9058,-6.7943,-6.7889,-6.8673,-6.5227,-6.2664,-6.1409,-6.0988,-6.0871,-6.1075,-6.2006,-6.2616,-6.2733,-6.3838,-6.1406,-5.5423,-5.3688,-5.2125,-5.0683,-4.9069,-4.8271,-4.8515,-4.8271,-4.8145,-4.7845,-4.6491,-4.4533,-4.2675,-4.105,-3.9994,-3.9897,-3.975,-4.0548,-4.1876,-4.2045,-4.2055,-4.2479,-4.382,-4.4931,-4.4856,-4.495,-4.4892,-4.4667,-4.4705,-4.446,-4.4404,-4.395,-4.378,-4.4065,-4.4347,-4.4611,-4.4611,-4.2825,-4.139,-4.139,-3.7365,-3.5083,-3.6668,-3.5249,-3.4737,-3.6341,-3.5968,-3.4932,-3.2313,-3.2767,-3.2949,-3.1314,-3.0761,-3.0761,-3.0761,-3.0761,-3.0761,-3.0813,-3.1216,-3.1281,-3.1203,-3.1709,-3.2761,-3.3722,-3.419,-3.419,-3.419,-3.419,-3.419,-3.419,-3.4099,-3.4073,-3.4086,-3.3969,-3.3449,-8.6502,-8.5704,-8.4469,-8.3539,-8.2841,-8.1156,-8.0449,-8.0278,-7.8868,-7.6417,-7.3452,-7.2545,-7.2352,-7.2589,-7.2591,-7.2448,-7.2184,-7.1229,-7.074,-7.0659,-6.9695,-6.9276,-6.9276,-6.9276,-6.9276,-6.9025,-6.7911,-6.7349,-6.7332,-6.483,-6.2768,-6.1286,-5.9341,-5.8652,-5.9187,-5.8943,-5.9089,-5.9625,-5.9351,-5.7694,-5.4762,-5.3432,-5.1876,-5.0113,-4.8739,-4.8271,-4.8271,-4.8271,-4.7592,-4.6222,-4.4466,-4.2744,-4.1008,-3.9258,-3.821,-3.8109,-3.8061,-3.825,-3.8649,-3.8602,-3.9252,-4.0534,-4.3271,-4.4908,-4.4947,-4.498,-4.4489,-4.3416,-4.3368,-4.284,-4.1177,-3.9882,-3.9592,-4.1467,-4.1914,-4.2906,-4.4251,-4.2825,-4.139,-4.0868,-3.7381,-3.4556,-3.4556,-3.3118,-3.2021,-3.2374,-3.2374,-3.2021,-3.113,-3.113,-3.1485,-3.0761,-3.0761,-3.0761,-3.0761,-3.0761,-3.0761,-3.0761,-3.0904,-3.0917,-3.0891,-3.093,-3.1865,-3.3527,-3.4073,-3.419,-3.419,-3.4151,-3.4125,-3.4099,-3.3774,-3.3527,-3.3501,-3.3242,-3.2527,-8.2561,-8.1705,-8.0193,-7.9345,-7.8987,-7.813,-7.7346,-7.6535,-7.4885,-7.274,-7.0467,-7.064,-7.0682,-7.0738,-7.1331,-7.1364,-7.0833,-7.0298,-6.9999,-7.0033,-6.9438,-6.9265,-6.9121,-6.8541,-6.8586,-6.8926,-6.6039,-6.4578,-6.4303,-6.191,-6.0702,-6.0451,-5.8522,-5.7498,-5.7527,-5.7527,-5.7941,-5.8666,-5.5171,-5.2092,-4.9634,-4.816,-4.6497,-4.4677,-4.4098,-4.378,-4.378,-4.3185,-4.2608,-4.1605,-3.9299,-3.799,-3.7826,-3.6253,-3.547,-3.6044,-3.6172,-3.6032,-3.5701,-3.6673,-3.8106,-3.9923,-4.1597,-4.3034,-4.3818,-4.3066,-4.225,-4.1244,-4.1933,-4.2015,-4.0957,-4.0022,-3.9677,-3.9979,-4.0243,-4.0665,-4.1171,-4.0194,-3.9102,-3.8188,-3.5968,-3.4027,-3.2935,-3.1485,-3.0761,-3.0761,-3.0761,-3.0761,-3.0761,-3.0761,-3.0761,-3.0761,-3.0761,-3.0761,-3.0761,-3.0761,-3.0761,-3.0761,-3.0761,-3.0761,-3.0761,-3.0774,-3.1294,-3.2385,-3.3553,-3.4073,-3.419,-3.3787,-3.3592,-3.3605,-3.3333,-3.2995,-3.2917,-3.2722,-3.2073,-7.7747,-7.7044,-7.5597,-7.4884,-7.4884,-7.467,-7.3814,-7.2329,-6.9548,-6.8386,-6.8509,-6.8992,-6.884,-6.843,-6.968,-6.9726,-6.8948,-6.8915,-6.8729,-6.8619,-6.8565,-6.8626,-6.8518,-6.7341,-6.7416,-6.8129,-6.3616,-6.1221,-6.0891,-5.8708,-5.804,-5.8717,-5.7772,-5.6783,-5.5949,-5.6609,-5.727,-5.786,-5.1461,-4.705,-4.4743,-4.2774,-4.0824,-3.9074,-3.9071,-3.8826,-3.8509,-3.7444,-3.6631,-3.6298,-3.3826,-3.3026,-3.4116,-3.2903,-3.2522,-3.3448,-3.343,-3.3246,-3.282,-3.4592,-3.6704,-3.8671,-3.8553,-3.9193,-4.0979,-4.0024,-3.8936,-3.8602,-3.906,-4.0127,-4.069,-4.0086,-3.9068,-3.8049,-3.8049,-3.7912,-3.7298,-3.7054,-3.6574,-3.5187,-3.4531,-3.3312,-3.1859,-3.1051,-3.0761,-3.0761,-3.0761,-3.0761,-3.0761,-3.0761,-3.0761,-3.0761,-3.0761,-3.0761,-3.0761,-3.0761,-3.0761,-3.0761,-3.0761,-3.0761,-3.0761,-3.0761,-3.0839,-3.0852,-3.2514,-3.3683,-3.3839,-3.3021,-3.2527,-3.2696,-3.2372,-3.2086,-3.2151,-3.1943,-3.1567,-7.5717,-7.5526,-7.3921,-7.3279,-7.3229,-7.1887,-7.1209,-7.0689,-6.6199,0.0,0.0,-6.5099,-6.6026,-6.7376,-6.7625,-6.7605,-6.7435,-6.7435,-6.6811,-6.5693,-6.5693,-6.566,-6.5676,-6.5397,-6.5425,-6.5574,-6.2654,-6.0756,-5.9769,-5.8316,-5.7149,-5.6321,-5.603,-5.5317,-5.4141,-5.424,-5.4411,-5.4319,-5.0057,-4.7946,-4.8325,-4.6876,-4.4469,-4.1325,-4.1169,-4.0315,-3.8582,-3.735,-3.609,-3.4702,-3.3308,-3.1939,-3.0925,-3.0506,-2.9978,-2.9164,-2.9097,-2.9025,-2.8914,-2.9567,-3.1009,-3.3137,-3.1129,-3.1208,-3.4948,-3.4937,-3.4739,-3.4651,-3.2892,-3.1908,-3.2028,-3.0975,-3.072,-3.2185,-3.2757,-3.4015,-3.6012,-3.6309,-3.6037,-3.5689,-3.4433,-3.3356,-3.2853,-3.1489,-3.0761,-3.0749,-3.0723,-3.0761,-3.0761,-3.0761,-3.0761,-3.0761,-3.0761,-3.0761,-3.0761,-3.0761,-3.0761,-3.0761,-3.0761,-3.0761,-3.0761,-3.0761,-3.0761,-3.0736,-3.1826,-3.2618,-3.2696,-3.1852,-3.1164,-3.1203,-3.0787,-3.0515,-3.0852,-3.0359,-2.9723,-7.1587,-7.1429,-6.9945,-6.9211,0.0,-6.7967,-6.6444,-6.4515,-6.2023,-6.1316,-6.1896,-6.2244,-6.3323,-6.4936,-6.566,-6.6006,-6.5989,-6.5989,-6.5627,-6.4887,-6.4291,-6.3584,-6.2772,-6.2301,-6.1707,-6.094,-5.9189,-5.764,-5.6503,-5.5866,-5.4531,-5.267,-5.267,-5.1652,-4.9853,-4.9703,-4.902,-4.7621,-4.7092,-4.6464,-4.5456,-4.371,-4.1914,-4.0249,-4.0095,0.0,0.0,0.0,0.0,0.0,0.0,0.0,0.0,-2.9576,0.0,-2.7939,-2.6129,-2.4821,-2.4254,-2.5367,-2.6107,-2.6183,-2.4768,-2.3878,-2.3534,-2.9788,-3.2673,-3.0563,-3.0168,-3.0391,-3.1177,-3.0351,-2.9784,-2.9766,-3.0262,-3.0773,-3.1301,-3.2851,-3.3427,-3.2329,-3.2672,-3.2546,-3.1369,-3.0461,-3.0008,-3.0294,-3.0346,-3.0437,-3.0697,-3.0761,-3.0761,-3.0761,-3.0761,-3.0761,-3.0761,-3.0761,-3.0761,-3.0723,-3.0528,-3.0489,-3.0723,-3.0307,-3.0125,-3.0671,-3.0723,-3.0982,-3.1346,-3.0697,-3.0008,-3.0216,-2.9891,-2.9567,-2.9411,-2.9047,-2.8736,-6.6821,-6.6411,-6.4988,-6.4385,-6.4366,-6.4165,-6.2231,-5.9474,-5.9289,-5.9493,-5.9905,-6.0395,-6.1463,-6.2832,-6.4044,-6.4533,-6.4509,-6.4346,-6.4018,-6.3756,-6.2569,-6.107,-5.9351,-5.9004,-5.8017,-5.6548,-5.5747,-5.4763,-5.3572,-5.3572,-5.2554,-5.0547,-5.0518,-4.9209,-4.6737,0.0,0.0,0.0,-4.4298,-4.469,-4.2814,-4.0713,-3.9534,-3.9144,-3.9119,0.0,-3.6217,-3.4914,-3.3416,-3.1969,-3.0612,0.0,0.0,0.0,0.0,0.0,0.0,0.0,0.0,0.0,0.0,0.0,-1.831,-1.6827,-1.3756,-2.413,-2.9749,-2.6314,-2.7661,-2.9174,-3.0323,-2.9803,-2.9101,-2.7951,-2.8097,-2.8067,-2.6991,-2.9089,-3.0152,-2.8242,-3.0204,-3.1075,-2.9437,-2.9034,-2.9281,-2.9697,-2.9853,-2.9982,-3.0086,-2.9995,-3.0268,-3.0723,-3.0761,-3.071,-3.0476,-3.0398,-3.0346,-3.0216,-2.9854,-2.9315,-2.9738,-2.8729,-2.7875,-2.9801,-2.9398,-2.9112,-2.9904,-2.9033,-2.816,-2.8616,-2.8699,-2.8447,-2.7112,-2.7024,-2.7501,-6.2336,-6.0983,-6.0176,-5.9794,-5.9944,-6.1493,-6.1972,-6.1564,-6.0746,-6.047,-6.056,-6.0617,-6.1474,-6.2766,-6.2988,-6.3053,-6.3029,-6.2041,-6.0833,-5.9626,-5.8472,-5.6763,-5.4678,-5.6495,-5.6242,-5.4237,-5.5013,-5.4763,-5.3699,-5.3572,-5.3524,-5.3232,-5.3232,-5.1827,-4.9325,-4.7023,-4.5086,-4.3519,-4.3634,-4.4651,-4.651,-4.4931,-4.3244,-4.1462,-4.1364,-3.9673,-3.6286,-3.4914,-3.3545,-3.1969,-3.0651,-2.9366,-2.7891,-2.5625,-2.3142,0.0,-1.7935,0.0,0.0,0.0,0.0,0.0,0.0,0.0,0.0,-1.7772,-2.2059,-2.1531,-2.2427,-2.2632,-2.1411,-2.1211,-2.1901,-2.3565,-2.3885,-2.4809,-2.6931,-2.7713,-2.7805,-2.7502,-2.8137,-2.866,-2.8268,-2.8788,-2.9248,-2.9125,-2.9372,-2.9009,-2.8087,-2.7684,-2.8398,-3.0554,-3.0761,-3.0398,-2.9528,-2.9307,-2.9294,-2.9119,-2.7761,-2.6569,-2.753,-2.4485,-2.324,-2.6799,-2.7634,-2.7544,-2.7775,-2.603,-2.4728,-2.4856,-2.6222,-2.6112,-2.313,-2.3276,-2.4422,-6.0489,-6.057,-6.0241,-5.9062,-5.7588,-5.8422,-5.846,-5.7983,-5.8719,-5.8009,-5.631,-5.6357,-5.6756,-5.7491,-5.7474,-5.7924,-5.8532,-5.8071,-5.7863,-5.7851,-5.6752,-5.5274,-5.3765,-5.4725,-5.4651,-5.3685,-5.4138,-5.4186,-5.3699,-5.3572,-5.297,-5.1507,-5.1478,-4.9289,-4.4957,-4.4158,-4.4142,-4.4759,-4.4412,-4.4736,-4.5895,-4.5302,-4.4397,-4.3472,-4.2715,-4.0955,-3.8428,-3.6016,-3.4132,-3.3007,-3.2179,-3.0459,-2.7538,-2.437,-2.1084,0.0,0.0,0.0,0.0,0.0,0.0,0.0,0.0,0.0,0.0,0.0,-1.8403,-1.7836,-1.9867,-2.113,-2.062,-2.0328,-2.0278,-2.0737,-2.0997,-2.1555,-2.2529,-2.4308,-2.497,-2.375,-2.5178,-2.6191,-2.5879,-2.6334,-2.6918,-2.758,-2.6775,-2.5503,-2.3957,-2.3581,-2.4866,-2.832,-2.9956,-3.019,-2.8385,-2.8152,-2.8152,-2.8139,-2.7281,-2.554,-2.3046,-2.1456,-2.2143,-2.6196,-2.5346,-2.3665,-2.3654,-2.2644,-2.2122,-2.23,-2.2977,-2.2811,-2.1129,-2.1464,-2.2122,-5.95,-5.9966,-5.7805,-5.6216,-5.506,-5.506,-5.503,-5.5196,-5.6605,-5.5419,-5.2502,-5.3239,-5.2627,-5.0941,-5.0957,-5.1923,-5.336,-5.346,-5.4267,-5.5703,-5.488,-5.3902,-5.2814,-5.3397,-5.3572,-5.3572,-5.3027,-5.2853,-5.3106,-5.1972,-5.0439,-4.8587,-4.8591,-4.5702,-4.0384,-4.0504,-4.2062,-4.4883,-4.487,-4.4915,-4.4903,-4.4952,-4.4742,-4.4365,-4.3152,-4.1539,-3.918,-3.6414,-3.452,-3.3574,-3.2366,-3.0249,-2.6863,-2.2326,0.0,0.0,0.0,0.0,0.0,0.0,0.0,0.0,0.0,-0.9055,-1.8327,0.0,-1.5164,0.0,-1.8079,-1.9803,-2.0342,-1.9701,0.0,0.0,-1.8633,-1.8698,-1.8841,-2.1243,-2.223,-2.0516,-2.2586,-2.3802,-2.336,-2.3802,-2.4503,-2.5334,-2.4087,-2.2243,-2.0075,-2.0127,-2.2298,-2.6502,-2.8606,-2.8775,-2.6762,-2.6133,-2.5795,-2.5598,-2.5148,-2.3554,-1.9773,-1.9898,-2.1901,-2.5994,-2.2988,-1.9447,-1.8941,-1.9364,-1.9448,-1.9022,-1.8828,-1.8828,-1.8837,-1.9142,-1.9649,-5.8796,-5.6912,-4.849,-4.7423,-5.1272,-5.1336,-5.3208,-5.6185,-5.5715,-5.3924,-5.1386,-5.4251,-5.1457,-4.4517,-4.4479,0.0,-4.822,-4.8284,-4.9493,-5.2005,-5.1958,-5.1354,-5.0246,-5.2477,-5.3572,-5.3572,-5.1208,-5.0666,-5.152,-4.7204,-4.4965,-4.5124,-4.5154,-4.2801,-3.8497,-3.695,-3.8429,-4.2537,-4.4089,-4.4906,-4.4927,-4.4952,-4.4247,-4.2791,-4.2647,-4.0592,-3.6682,-3.5469,-3.4245,-3.2575,-2.9169,-2.6388,-2.4214,0.0,0.0,0.0,0.0,0.0,0.0,0.0,0.0,0.0,0.0,0.0,0.0,0.0,0.0,-1.6504,-1.681,0.0,-1.736,-1.6033,0.0,0.0,0.0,-1.6569,-1.8608,-1.9516,-1.9932,-1.975,0.0,0.0,-2.1581,-2.2062,-2.2451,-2.2542,-2.2867,-2.1685,-1.7906,-1.9218,-2.2285,-2.6437,-2.6619,-2.5464,-2.3827,-2.2455,-2.1337,-2.0727,-1.8653,-1.8252,-1.9083,-1.9535,-2.1706,-2.5872,-2.028,-1.4365,-1.4379,-1.6109,-1.6509,-1.4283,-1.3747,-1.3747,-1.4092,-1.5362,-1.6641,-5.028,-4.7617,-4.4004,-4.3622,-4.5372,-4.5404,-4.7188,-4.9825,-4.6152,-4.5255,-4.6221,-4.5558,-4.2273,-3.7071,-3.5942,0.0,0.0,0.0,-4.221,-4.6496,-4.6537,-4.7456,-4.9125,-5.0622,-5.1543,-5.1993,-4.975,-4.9002,-4.9401,-4.7466,-4.2149,-3.3721,0.0,0.0,-3.1732,-2.9088,-3.1583,-3.8987,-4.2943,-4.4594,-4.4,-4.4659,-4.4129,-4.2647,-4.0071,-3.7879,-3.6147,-3.3456,-3.0877,-2.8847,-2.8671,-2.5456,0.0,0.0,0.0,0.0,0.0,0.0,0.0,0.0,0.0,0.0,0.0,-0.3282,-0.2527,0.0,0.0,0.0,-1.3599,-1.3093,-1.3977,-1.4354,0.0,0.0,0.0,0.0,0.0,0.0,0.0,-1.5647,-1.8361,-2.0335,-2.0348,-2.0231,-2.0036,-1.9698,-1.9555,-1.9426,-1.9205,0.0,-1.9607,-2.2912,-2.2867,-2.2297,-2.1445,-1.9577,-1.8089,-1.7797,-1.7485,-1.689,-1.4847,-1.4857,-1.5937,-1.735,-1.5531,-1.333,-1.3225,-1.3692,-1.4032,-1.3162,-1.3027,-1.3027,-1.3027,-1.3657,-1.4242,-4.0514,0.0,0.0,0.0,0.0,-3.7564,-3.9281,-4.1743,-3.7149,-3.6463,-3.8454,-3.7241,0.0,0.0,0.0,0.0,0.0,0.0,-3.5629,-3.9731,-4.1984,-4.3277,-4.4062,-4.6324,-4.7981,-4.8893,-4.5386,-4.3676,-4.3585,-4.2687,-3.6179,-2.4765,0.0,0.0,0.0,0.0,-2.5628,-3.5345,-4.1153,-4.384,-4.3405,-4.3927,-4.3653,-4.2619,-3.8376,-3.5575,-3.4423,-3.1524,-2.8451,-2.5456,-2.465,0.0,0.0,0.0,0.0,0.0,0.0,0.0,0.0,0.0,0.0,0.0,0.0,0.0,0.0,0.0,0.0,0.0,0.0,0.0,-1.1206,-1.2673,-1.3139,0.0,0.0,0.0,0.0,0.0,0.0,0.0,0.0,0.0,-1.8218,-1.84,-1.8543,0.0,0.0,-1.8867,-2.0322,-1.914,-1.8439,-1.94,-2.0221,0.0,-1.8335,-1.6346,-1.5068,-1.5185,-1.5769,-1.5063,-1.1533,-1.1473,-1.1774,-1.2287,-1.2506,-1.2559,-1.2012,-1.1768,-1.1781,-1.1972,-1.2032,-1.2038,-1.2032,-1.2032,-1.2012,0.0,0.0,0.0,0.0,0.0,0.0,0.0,0.0,-3.0442,-2.8771,0.0,-3.1151,0.0,0.0,0.0,0.0,-2.4301,-2.8348,0.0,0.0,-3.8917,-3.9171,-3.3706,-3.8826,-4.232,-4.3635,-3.6747,-3.3264,-3.3042,-2.9921,0.0,0.0,0.0,0.0,0.0,0.0,-2.1547,-3.2032,-3.8659,-4.2386,-4.3296,-4.2849,-4.2595,-4.2369,-3.844,-3.4202,-3.0391,-2.9847,-2.773,-2.3155,-1.539,0.0,0.0,0.0,0.0,0.0,0.0,0.0,0.0,0.0,0.0,0.0,0.0,0.0,0.0,0.0,0.0,0.0,0.0,0.0,0.0,-1.0461,0.0,0.0,0.0,0.0,0.0,0.0,0.0,0.0,0.0,0.0,-1.4905,-1.6595,-1.8387,-1.9413,0.0,0.0,0.0,0.0,-1.9659,-1.7621,-1.9101,-1.8788,-1.3897,-1.2408,-1.2034,-1.2432,0.0,0.0,-1.2127,-1.1188,-1.0946,-1.1952,-1.2117,-1.1662,-0.9981,-0.9718,-0.9731,-0.9744,-0.9784,-0.9698,-0.9698,-0.9869,-0.9935,0.0,0.0,0.0,0.0,0.0,0.0,0.0,0.0,0.0,-2.0671,0.0,-2.1595,0.0,0.0,0.0,0.0,0.0,0.0,0.0,0.0,-2.826,-2.9591,-2.9682,-3.1953,-3.3267,0.0,-3.0372,-2.577,0.0,0.0,0.0,0.0,0.0,0.0,0.0,0.0,-2.0405,-2.8938,-3.7442,-4.1949,-4.23,-4.2781,-4.2073,-4.0136,-3.8563,-3.4395,-2.7239,-2.4773,-2.1371,0.0,0.0,0.0,0.0,0.0,0.0,0.0,0.0,0.0,0.0,0.0,0.0,0.0,0.0,0.0,0.0,0.0,0.0,0.0,0.0,0.0,0.0,0.0,-1.0919,0.0,0.0,0.0,0.0,0.0,0.0,0.0,0.0,0.0,-1.2997,-1.4855,-1.6624,-1.7854,-1.8672,-1.975,-2.1399,0.0,0.0,0.0,0.0,0.0,0.0,0.0,-1.0127,-0.9723,-0.9397,-0.9434,-0.9945,-0.925,-0.9223,-1.0753,0.0,0.0,-0.8419,-0.859,-0.8979,-0.8986,-0.8979,-0.8979,-0.8979,-0.9137,-0.8946,0.0,0.0,0.0,0.0,0.0,0.0,0.0,0.0,0.0,-1.4189,-1.7798,0.0,0.0,0.0,0.0,0.0,0.0,0.0,0.0,0.0,0.0,0.0,-2.4611,-2.5318,0.0,0.0,0.0,0.0,0.0,0.0,0.0,0.0,0.0,0.0,0.0,0.0,-1.8908,-2.685,-3.6656,-4.1629,-4.1306,-4.1278,-4.0421,-3.8758,-3.6834,-3.2597,-2.5916,0.0,0.0,0.0,0.0,0.0,0.0,0.0,0.0,0.0,0.0,0.0,0.0,0.0,0.0,0.0,0.0,0.0,0.0,0.0,0.0,0.0,0.0,0.0,0.0,0.0,-0.9433,0.0,0.0,0.0,0.0,0.0,0.0,0.0,0.0,0.0,0.0,0.0,-1.418,-1.593,-1.6931,-1.8387,-2.0776,-1.9602,-1.7619,0.0,0.0,0.0,0.0,0.0,0.0,0.0,0.0,0.0,0.0,0.0,0.0,0.0,0.0,-0.8017,-0.6856,-0.7113,-0.7609,-0.7609,0.0,0.0,0.0,0.0,0.0,0.0,0.0,0.0,0.0,0.0,0.0,0.0,0.0,0.0,0.0,-0.9559,0.0,0.0,-0.9162,0.0,0.0,0.0,0.0,0.0,0.0,0.0,0.0,0.0,0.0,0.0,0.0,0.0,0.0,0.0,0.0,0.0,0.0,0.0,0.0,0.0,0.0,-1.7092,-2.5588,-3.6138,-4.1136,-4.0206,-3.8273,-3.7729,-3.8402,-3.3007,-2.8843,-2.61,0.0,0.0,0.0,0.0,0.0,0.0,0.0,0.0,0.0,0.0,0.0,0.0,0.0,0.0,0.0,0.0,0.0,0.0,0.0,0.0,0.0,0.0,0.0,0.0,0.0,0.0,-0.6552,-0.8024,-0.944,0.0,0.0,0.0,0.0,0.0,0.0,0.0,0.0,0.0,-1.372,-1.56,-1.7146,-1.8387,-1.6358,-1.3705,-1.0932,-1.0552,-1.0232,-0.9665,-0.9797,-0.9747,0.0,0.0,0.0,0.0,0.0,0.0,0.0,0.0,0.0,0.0,0.0,0.0,0.0,0.0,0.0,0.0,0.0,0.0,0.0,0.0,0.0,0.0,0.0,0.0,0.0,0.0,0.0,0.0,0.0,0.0,0.0,0.0,0.0,0.0,0.0,0.0,0.0,0.0,0.0,0.0,0.0,0.0,0.0,0.0,0.0,0.0,0.0,0.0,0.0,0.0,0.0,0.0,0.0,0.0,-1.6661,-2.4535,-3.2957,-3.7793,-3.9043,-3.9188,-3.8538,-3.6737,-3.3354,-2.8574,0.0,0.0,0.0,0.0,0.0,0.0,0.0,0.0,0.0,0.0,0.0,0.0,0.0,0.0,0.0,0.0,0.0,0.0,0.0,0.0,0.0,0.0,0.0,0.0,0.0,0.0,0.0,0.0,-0.813,-0.6809,-0.7039,0.0,0.0,0.0,0.0,0.0,0.0,0.0,0.0,0.0,0.0,-1.3861,-1.3413,-1.2427,-1.1439,-1.0681,-1.0759,-1.068,-0.9704,-0.9669,-0.948,-0.8511,0.0,0.0,0.0,0.0,0.0,0.0,0.0,0.0,0.0,0.0,0.0,0.0,0.0,0.0,0.0,0.0,0.0,0.0,0.0,0.0,0.0,0.0,0.0,0.0,0.0,0.0,0.0,0.0,0.0,0.0,0.0,0.0,0.0,0.0,0.0,0.0,0.0,0.0,0.0,0.0,0.0,0.0,0.0,0.0,0.0,0.0,0.0,0.0,0.0,0.0,0.0,0.0,0.0,-1.6334,-2.3427,-3.1311,-3.5951,-3.7266,-3.8239,-3.7501,-3.4879,-3.1776,-2.6867,0.0,0.0,0.0,0.0,0.0,0.0,0.0,0.0,0.0,0.0,0.0,0.0,0.0,0.0,0.0,0.0,0.0,0.0,0.0,0.0,0.0,0.0,0.0,0.0,0.0,0.0,0.0,0.0,-0.9055,-0.8493,-0.6931,0.0,0.0,0.0,0.0,0.0,0.0,0.0,0.0,0.0,0.0,-1.0847,-0.9985,-0.9839,0.0,0.0,-1.0245,-1.0331,-0.9513,-0.981,-0.9579,-0.7911,-0.7489,0.0,0.0,0.0,0.0,0.0,0.0,0.0,0.0,0.0,0.0,0.0,0.0,0.0,0.0,0.0,0.0,0.0,0.0,0.0,0.0,0.0,0.0,0.0,0.0,0.0,0.0,0.0,0.0,0.0,0.0,0.0,0.0,0.0,0.0,0.0,0.0,0.0,0.0,0.0,0.0,0.0,0.0,0.0,0.0,0.0,0.0,0.0,0.0,0.0,0.0,0.0,0.0,-1.6054,-2.2577,-3.0968,-3.5337,-3.5318,-3.5962,-3.5305,-3.2949,-2.9031,-2.4201,0.0,0.0,0.0,0.0,0.0,0.0,0.0,0.0,0.0,0.0,0.0,0.0,0.0,0.0,0.0,0.0,0.0,0.0,0.0,0.0,0.0,0.0,0.0,0.0,0.0,0.0,0.0,0.0,0.0,0.0,0.0,0.0,0.0,0.0,0.0,0.0,0.0,0.0,0.0,0.0,0.0,-0.8212,-0.7674,-0.8323,-0.8803,0.0,-0.9091,-0.9375,-0.9025,-0.9678,-0.9579,-0.7601,0.0,0.0,0.0,0.0,0.0,0.0,0.0,0.0,0.0,0.0,0.0,0.0,0.0,0.0,0.0,0.0,0.0,0.0,0.0,0.0,0.0,0.0,0.0,0.0,0.0,0.0,0.0,0.0,0.0,0.0,0.0,0.0,0.0,0.0,0.0,0.0,0.0,0.0,0.0,0.0,0.0,0.0,0.0,0.0,0.0,0.0,0.0,0.0,0.0,0.0,0.0,0.0,0.0,0.0,-2.2539,-3.1003,-3.5021,-3.433,-3.5622,-3.4962,-3.1867,-2.6999,0.0,0.0,0.0,0.0,0.0,0.0,0.0,0.0,0.0,0.0,0.0,0.0,0.0,0.0,0.0,0.0,0.0,0.0,0.0,0.0,0.0,0.0,0.0,0.0,0.0,0.0,0.0,-0.432,0.0,0.0,0.0,0.0,0.0,0.0,0.0,0.0,0.0,0.0,0.0,0.0,0.0,0.0,-0.6849,-0.6511,-0.8068,-0.8874,0.0,0.0,-0.857,-0.7641,-0.8043,-0.7997,0.0,0.0,0.0,0.0,0.0,0.0,0.0,0.0,0.0,0.0,0.0,0.0,0.0,0.0,0.0,0.0,0.0,0.0,0.0,0.0,0.0,0.0,0.0,0.0,0.0,0.0,0.0,0.0,0.0,0.0,0.0,0.0,0.0,0.0,0.0,0.0,0.0,0.0,0.0,0.0,0.0,0.0,0.0,0.0,0.0,0.0,0.0,0.0,0.0,0.0,0.0,0.0,0.0,0.0,-1.6019,-2.2539,-3.105,-3.4432,-3.2472,-3.4136,-3.3348,-2.9577,-2.5136,-2.0877,0.0,0.0,0.0,0.0,0.0,0.0,0.0,0.0,0.0,0.0,0.0,0.0,0.0,0.0,0.0,0.0,0.0,0.0,0.0,0.0,0.0,0.0,0.0,0.0,0.0,0.0,0.0,0.0,0.0,0.0,0.0,0.0,0.0,0.0,0.0,0.0,0.0,0.0,0.0,0.0,0.0,0.0,-0.7017,-0.7677,0.0,0.0,0.0,-0.7753,-0.7219,0.0,0.0,0.0,0.0,0.0,0.0,0.0,0.0,0.0,0.0,0.0,0.0,0.0,0.0,0.0,0.0,0.0,0.0,0.0,0.0,0.0,0.0,0.0,0.0,0.0,0.0,0.0,0.0,0.0,0.0,0.0,0.0,0.0,0.0,0.0,0.0,0.0,0.0,0.0,0.0,0.0,0.0,0.0,0.0,0.0,0.0,0.0,0.0,0.0,0.0,0.0,0.0,0.0,0.0,0.0,0.0,0.0,-2.2559,-3.043,-3.322,-3.078,-3.2355,-3.1281,-2.7088,-2.3697,-2.0047,0.0,0.0,0.0,0.0,0.0,0.0,0.0,0.0,0.0,0.0,0.0,0.0,0.0,0.0,0.0,0.0,0.0,0.0,0.0,0.0,0.0,0.0,0.0,0.0,0.0,0.0,0.0,0.0,0.0,0.0,0.0,0.0,0.0,0.0,0.0,0.0,0.0,0.0,0.0,0.0,0.0,-0.5716,-0.8095,-0.6973,-0.6078,0.0,0.0,-0.7015,-0.7146,-0.7228,0.0,0.0,0.0,0.0,0.0,0.0,0.0,0.0,0.0,0.0,0.0,0.0,0.0,0.0,0.0,0.0,0.0,0.0,0.0,0.0,0.0,0.0,0.0,0.0,0.0,0.0,0.0,0.0,0.0,0.0,0.0,0.0,0.0,0.0,0.0,0.0,0.0,0.0,0.0,0.0,0.0,0.0,0.0,0.0,0.0,0.0,0.0,0.0,0.0,0.0,0.0,0.0,0.0,0.0,0.0,0.0,-2.2427,-2.7002,-3.0063,-3.1562,-3.1166,-3.0037,-2.8206,-2.313,-1.9028,0.0,0.0,0.0,0.0,0.0,0.0,0.0,0.0,0.0,0.0,0.0,0.0,0.0,0.0,0.0,0.0,0.0,0.0,0.0,0.0,0.0,0.0,0.0,0.0,0.0,0.0,0.0,0.0,0.0,0.0,0.0,0.0,0.0,0.0,0.0,0.0,0.0,0.0,0.0,0.0,0.0,-0.5273,-0.6384,-0.5421,0.0,0.0,0.0,0.0,-0.6098,-0.5832,0.0,0.0,0.0,0.0,0.0,0.0,0.0,0.0,0.0,0.0,0.0,0.0,0.0,0.0,0.0,0.0,0.0,0.0,0.0,0.0,0.0,0.0,0.0,0.0,0.0,0.0,0.0,0.0,0.0,0.0,0.0,0.0,0.0,0.0,0.0,0.0,0.0,0.0,0.0,0.0,0.0,0.0,0.0,0.0,0.0,0.0,0.0,0.0,0.0,0.0,0.0,0.0,0.0,0.0,0.0,0.0,-2.2339,-2.5292,-2.7942,-3.0252,-2.8825,-2.7676,-2.6805,-2.2,-1.8275,0.0,0.0,0.0,0.0,0.0,0.0,0.0,0.0,0.0,0.0,0.0,0.0,0.0,0.0,0.0,0.0,0.0,0.0,0.0,0.0,0.0,0.0,0.0,0.0,0.0,0.0,0.0,0.0,0.0,0.0,0.0,0.0,0.0,0.0,0.0,0.0,0.0,0.0,0.0,0.0,-0.4449,-0.4335,-0.4766,0.0,0.0,0.0,0.0,0.0,0.0,-0.6793,-0.6269,0.0,0.0,0.0,0.0,0.0,0.0,0.0,0.0,0.0,0.0,0.0,0.0,0.0,0.0,0.0,0.0,0.0,0.0,0.0,0.0,0.0,0.0,0.0,0.0,0.0,0.0,0.0,0.0,0.0,0.0,0.0,0.0,0.0,0.0,0.0,0.0,0.0,0.0,0.0,0.0,0.0,0.0,0.0,0.0,0.0,0.0,0.0,0.0,0.0,0.0,0.0,0.0,0.0,0.0,0.0,-2.1678,-2.3958,-2.61,-2.8041,-2.6682,-2.5736,-2.5333,-2.1047,-1.7785,-1.5749,0.0,0.0,0.0,0.0,0.0,0.0,0.0,0.0,0.0,0.0,0.0,0.0,0.0,0.0,0.0,0.0,0.0,0.0,0.0,0.0,0.0,0.0,0.0,0.0,0.0,0.0,0.0,0.0,0.0,0.0,0.0,0.0,0.0,0.0,0.0,0.0,0.0,0.0,0.0,-0.3996,-0.3504,0.0,0.0,0.0,0.0,0.0,0.0,0.0,0.0,-0.7197,0.0,0.0,0.0,0.0,0.0,0.0,0.0,0.0,0.0,0.0,0.0,0.0,0.0,0.0,0.0,0.0,0.0,0.0,0.0,0.0,0.0,0.0,0.0,0.0,0.0,0.0,0.0,0.0,0.0,0.0,0.0,0.0,0.0,0.0,0.0,0.0,0.0,0.0,0.0,0.0,0.0,0.0,0.0,0.0,0.0,0.0,0.0,0.0,0.0,0.0,0.0,0.0,0.0,0.0,0.0,0.0,-2.1432,-2.4039,-2.605,-2.6799,-2.6997,-2.6685,-2.1628,-1.758,-1.4892,0.0,0.0,0.0,0.0,0.0,0.0,0.0,0.0,0.0,0.0,0.0,0.0,0.0,0.0,0.0,0.0,0.0,0.0,0.0,0.0,0.0,0.0,0.0,0.0,0.0,0.0,0.0,0.0,0.0,0.0,0.0,0.0,0.0,0.0,0.0,0.0,0.0,0.0,-0.3732,-0.3596,0.0,0.0,0.0,0.0,0.0,0.0,0.0,0.0,-0.5744,0.0,0.0,0.0,0.0,0.0,0.0,0.0,0.0,0.0,0.0,0.0,0.0,0.0,0.0,0.0,0.0,0.0,0.0,0.0,0.0,0.0,0.0,0.0,0.0,0.0,0.0,0.0,0.0,0.0,0.0,0.0,0.0,0.0,0.0,0.0,0.0,0.0,0.0,0.0,0.0,0.0,0.0,0.0,0.0,0.0,0.0,0.0,0.0,0.0,0.0,0.0,0.0,0.0,0.0,0.0,0.0,0.0,0.0,-2.2661,-2.4679,-2.5832,-2.6108,-2.5276,-2.0489,-1.6862,0.0,0.0,0.0,0.0,0.0,0.0,0.0,0.0,0.0,0.0,0.0,0.0,0.0,0.0,0.0,0.0,0.0,0.0,0.0,0.0,0.0,0.0,0.0,0.0,0.0,0.0,0.0,0.0,0.0,0.0,0.0,0.0,0.0,0.0,0.0,0.0,0.0,0.0,0.0,0.0,0.0,0.0,0.0,0.0,0.0,0.0,0.0,0.0,0.0,0.0,0.0,0.0,0.0,0.0,0.0,0.0,0.0,0.0,0.0,0.0,0.0,0.0,0.0,0.0,0.0,0.0,0.0,0.0,0.0,0.0,0.0,0.0,0.0,0.0,0.0,0.0,0.0,0.0,0.0,0.0,0.0,0.0,0.0,0.0,0.0,0.0,0.0,0.0,0.0,0.0,0.0,0.0,0.0,0.0,0.0,0.0,0.0,0.0,0.0,0.0,0.0,0.0,0.0,0.0,0.0,0.0,0.0,0.0,-2.1489,-2.2932,-2.4984,-2.5386,-2.3955,-1.93,-1.5813,0.0,0.0,0.0,0.0,0.0,0.0,0.0,0.0,0.0,0.0,0.0,0.0,0.0,0.0,0.0,0.0,0.0,0.0,0.0,0.0,0.0,0.0,0.0,0.0,0.0,0.0,0.0,0.0,0.0,0.0,0.0,0.0,0.0,0.0,0.0,0.0,0.0,0.0,0.0,0.0,0.0,0.0,0.0,0.0,0.0,0.0,0.0,0.0,-0.6994,0.0,0.0,0.0,0.0,0.0,0.0,0.0,0.0,0.0,0.0,0.0,0.0,0.0,0.0,0.0,0.0,0.0,0.0,0.0,0.0,0.0,0.0,0.0,0.0,0.0,0.0,0.0,0.0,0.0,0.0,0.0,0.0,0.0,0.0,0.0,0.0,0.0,0.0,0.0,0.0,0.0,0.0,0.0,0.0,0.0,0.0,0.0,0.0,0.0,0.0,0.0,0.0,0.0,0.0,0.0,0.0,0.0,0.0,0.0,-2.0472,-1.9813,-2.4632,-2.6207,-2.4005,-1.8641,-1.4326,0.0,0.0,0.0,0.0,0.0,0.0,0.0,0.0,0.0,0.0,0.0,0.0,0.0,0.0,0.0,0.0,0.0,0.0,0.0,0.0,0.0,0.0,0.0,0.0,0.0,0.0,0.0,0.0,0.0,0.0,0.0,0.0,0.0,0.0,0.0,0.0,0.0,0.0,0.0,0.0,0.0,0.0,0.0,0.0,0.0,0.0,0.0,0.0,0.0,0.0,0.0,0.0,0.0,0.0,0.0,0.0,0.0,0.0,0.0,0.0,0.0,0.0,0.0,0.0,0.0,0.0,0.0,0.0,0.0,0.0,0.0,0.0,0.0,0.0,0.0,0.0,0.0,0.0,0.0,0.0,0.0,0.0,0.0,0.0,0.0,0.0,0.0,0.0,0.0,0.0,0.0,0.0,0.0,0.0,0.0,0.0,0.0,0.0,0.0,0.0,0.0,0.0,0.0,0.0,0.0,0.0,0.0,0.0,-1.8962,-1.8962,-2.2633,-2.3021,-1.9746,-1.582,-1.2732,0.0,0.0,0.0,0.0,0.0,0.0,0.0,0.0,0.0,0.0,0.0,0.0,0.0,0.0,0.0,0.0,0.0,0.0,0.0,0.0,0.0,0.0,0.0,0.0,0.0,0.0,0.0,0.0,0.0,0.0,0.0,0.0,0.0,0.0,0.0,0.0,0.0,0.0,0.0,0.0,0.0,0.0,0.0,0.0,0.0,0.0,0.0,0.0,0.0,0.0,0.0,0.0,0.0,0.0,0.0,0.0,0.0,0.0,0.0,0.0,0.0,0.0,0.0,0.0,0.0,0.0,0.0,0.0,0.0,0.0,0.0,0.0,0.0,0.0,0.0,0.0,0.0,0.0,0.0,0.0,0.0,0.0,0.0,0.0,0.0,0.0,0.0,0.0,0.0,0.0,0.0,0.0,0.0,0.0,0.0,0.0,0.0,0.0,0.0,0.0,0.0,0.0,0.0,0.0,0.0,0.0,0.0,0.0,0.0,-1.7816,-1.9342,-1.8728,-1.5926,-1.3404,-1.1223,0.0,0.0,0.0,0.0,0.0,0.0,0.0,0.0,0.0,0.0,0.0,0.0,0.0,0.0,0.0,0.0,0.0,0.0,0.0,0.0,0.0,0.0,0.0,0.0,0.0,0.0,0.0,0.0,0.0,0.0,0.0,0.0,0.0,0.0,0.0,0.0,0.0,0.0,0.0,0.0,0.0,0.0,0.0,0.0,0.0,0.0,0.0,0.0,0.0,0.0,0.0,0.0,0.0,0.0,0.0,0.0,0.0,0.0,0.0,0.0,0.0,0.0,0.0,0.0,0.0,0.0,0.0,0.0,0.0,0.0,0.0,0.0,0.0,0.0,0.0,0.0,0.0,0.0,0.0,0.0,0.0,0.0,0.0,0.0,0.0,0.0,0.0,0.0,0.0,0.0,0.0,0.0,0.0,0.0,0.0,0.0,0.0,0.0,0.0,0.0,0.0,0.0,0.0,0.0,0.0,0.0,0.0,0.0,0.0,-1.552,-1.4334,-1.3863,-1.4097,-1.2056,-0.9964,0.0,0.0,0.0,0.0,0.0,0.0,0.0,0.0,0.0,0.0,0.0,0.0,0.0,0.0,0.0,0.0,0.0,0.0,0.0,0.0,0.0,0.0,0.0,0.0,0.0,0.0,0.0,0.0,0.0,0.0,0.0,0.0,0.0,0.0,0.0,0.0,0.0,0.0,0.0,0.0,0.0,0.0,0.0,0.0,0.0,0.0,0.0,0.0,0.0,0.0,0.0,0.0,0.0,0.0,0.0,0.0,0.0,0.0,0.0,0.0,0.0,0.0,0.0,0.0,0.0,0.0,0.0,0.0,0.0,0.0,0.0,0.0,0.0,0.0,0.0,0.0,0.0,0.0,0.0,0.0,0.0,0.0,0.0,0.0,0.0,0.0,0.0,0.0,0.0,0.0,0.0,0.0,0.0,0.0,0.0,0.0,0.0,0.0,0.0,0.0,0.0,0.0,0.0,0.0,0.0,0.0,0.0,0.0,0.0,-1.1952,-1.1089,-1.0877,-1.1427,-0.9749,-0.8266,-0.7105,0.0,0.0,0.0,0.0,0.0,0.0,0.0,0.0,0.0,0.0,0.0,0.0,0.0,0.0,0.0,0.0,0.0,0.0,0.0,0.0,0.0,0.0,0.0,0.0,0.0,0.0,0.0,0.0,0.0,0.0,0.0,0.0,0.0,0.0,0.0,0.0,0.0,0.0,0.0,0.0,0.0,0.0,0.0,0.0,0.0,0.0,0.0,0.0,0.0,0.0,0.0,0.0,0.0,0.0,0.0,0.0,0.0,0.0,0.0,0.0,0.0,0.0,0.0,0.0,0.0,0.0,0.0,0.0,0.0,0.0,0.0,0.0,0.0,0.0,0.0,0.0,0.0,0.0,0.0,0.0,0.0,0.0,0.0,0.0,0.0,0.0,0.0,0.0,0.0,0.0,0.0,0.0,0.0,0.0,0.0,0.0,0.0,0.0,0.0,0.0,0.0,0.0,0.0,0.0,0.0,0.0,0.0,0.0,-0.9671,-0.9177,-0.922,-0.9834,-0.833,-0.7202,0.0,0.0,0.0,0.0,0.0,0.0,0.0,0.0,0.0,0.0,0.0,0.0,0.0,0.0,0.0,0.0,0.0,0.0,0.0,0.0,0.0,0.0,0.0,0.0,0.0,0.0,0.0,0.0,0.0,0.0,0.0,0.0,0.0,0.0,0.0,0.0,0.0,0.0,0.0,0.0,0.0,0.0,0.0,0.0,0.0,0.0,0.0,0.0,0.0,0.0,0.0,0.0,0.0,0.0,0.0,0.0,0.0,0.0,0.0,0.0,0.0,0.0,0.0,0.0,0.0,0.0,0.0,0.0,0.0,0.0,0.0,0.0,0.0,0.0,0.0,0.0,0.0,0.0,0.0,0.0,0.0,0.0,0.0,0.0,0.0,0.0,0.0,0.0,0.0,0.0,0.0,0.0,0.0,0.0,0.0,0.0,0.0,0.0,0.0,0.0,0.0,0.0,0.0,0.0,0.0,0.0,0.0,0.0,-0.848,-0.9078,-0.8652,-0.8782,-0.9815,-0.8094,-0.6863,0.0,0.0,0.0,0.0,0.0,0.0,0.0,0.0,0.0,0.0,0.0,0.0,0.0,0.0,0.0,0.0,0.0,0.0,0.0,0.0,0.0,0.0,0.0,0.0,0.0,0.0,0.0,0.0,0.0,0.0,0.0,0.0,0.0,0.0,0.0,0.0,0.0,0.0,0.0,0.0,0.0,0.0,0.0,0.0,0.0,0.0,0.0,0.0,0.0,0.0,0.0,0.0,0.0,0.0,0.0,0.0,0.0,0.0,0.0,0.0,0.0,0.0,0.0,0.0,0.0,0.0,0.0,0.0,0.0,0.0,0.0,0.0,0.0,0.0,0.0,0.0,0.0,0.0,0.0,0.0,0.0,0.0,0.0,0.0,0.0,0.0,0.0,0.0,0.0,0.0,0.0,0.0,0.0,0.0,0.0,0.0,0.0,0.0,0.0,0.0,0.0,0.0,0.0,0.0,0.0,0.0,0.0,0.0,0.0,-0.7656,0.0,-0.7619,0.0,-0.7008,-0.6024,0.0,0.0,0.0,0.0,0.0,0.0,0.0,0.0,0.0,0.0,0.0,0.0,0.0,0.0,0.0,0.0,0.0,0.0,0.0,0.0,0.0,0.0,0.0,0.0,0.0,0.0,0.0,0.0,0.0,0.0,0.0,0.0,0.0,0.0,0.0,0.0,0.0,0.0,0.0,0.0,0.0,0.0,0.0,0.0,0.0,0.0,0.0,0.0,0.0,0.0,0.0,0.0,0.0,0.0,0.0,0.0,0.0,0.0,0.0,0.0,0.0,0.0,0.0,0.0,0.0,0.0,0.0,0.0,0.0,0.0,0.0,0.0,0.0,0.0,0.0,0.0,0.0,0.0,0.0,0.0,0.0,0.0,0.0,0.0,0.0,0.0,0.0,0.0,0.0,0.0,0.0,0.0,0.0,0.0,0.0,0.0,0.0,0.0,0.0,0.0,0.0,0.0,0.0,0.0,0.0,0.0,0.0,0.0,0.0,-0.6641,-0.6829,-0.7031,-0.7385,-0.6239,-0.5323,0.0,0.0,0.0,0.0,0.0,0.0,0.0,0.0,0.0,0.0,0.0,0.0,0.0,0.0,0.0,0.0,0.0,0.0,0.0,0.0,0.0,0.0,0.0,0.0,0.0,0.0,0.0,0.0,0.0,0.0,0.0,0.0,0.0,0.0,0.0,0.0,0.0,0.0,0.0,0.0,0.0,0.0,0.0,0.0,0.0,0.0,0.0,0.0,0.0,0.0,0.0,0.0,0.0,0.0,0.0,0.0,0.0,0.0,0.0,0.0,0.0,0.0,0.0,0.0,0.0,0.0,0.0,0.0,0.0,0.0,0.0,0.0,0.0,0.0,0.0,0.0,0.0,0.0,0.0,0.0,0.0,0.0,0.0,0.0,0.0,0.0,0.0,0.0,0.0,0.0,0.0,0.0,0.0,0.0,0.0,0.0,0.0,0.0,0.0,0.0,0.0,0.0,0.0,0.0,0.0,0.0,0.0,0.0,0.0,-0.6067,-0.662,-0.6965,-0.7049,-0.573,-0.4886,0.0,0.0,0.0,0.0,0.0,0.0,0.0,0.0,0.0,0.0,0.0,0.0,0.0,0.0,0.0,0.0,0.0,0.0,0.0,0.0,0.0,0.0,0.0,0.0,0.0,0.0,0.0,0.0,0.0,0.0,0.0,0.0,0.0,0.0,0.0,0.0,0.0,0.0,0.0,0.0,0.0,0.0,0.0,0.0,0.0,0.0,0.0,0.0,0.0,0.0,0.0,0.0,0.0,0.0,0.0,0.0,0.0,0.0,0.0,0.0,0.0,0.0,0.0,0.0,0.0,0.0,0.0,0.0,0.0,0.0,0.0,0.0,0.0,0.0,0.0,0.0,0.0,0.0,0.0,0.0,0.0,0.0,0.0,0.0,0.0,0.0,0.0,0.0,0.0,0.0,0.0,0.0,0.0,0.0,0.0,0.0,0.0,0.0,0.0,0.0,0.0,0.0,0.0,0.0,0.0,0.0,0.0,0.0,0.0,0.0,-0.6179,-0.5895,-0.5621,-0.4896,-0.4239,-0.371,0.0,0.0,0.0,0.0,0.0,0.0,0.0,0.0,0.0,0.0,0.0,0.0,0.0,0.0,0.0,0.0,0.0,0.0,0.0,0.0,0.0,0.0,0.0,0.0,0.0,0.0,0.0,0.0,0.0,0.0,0.0,0.0,0.0,0.0,0.0,0.0,0.0,0.0,0.0,0.0,0.0,0.0,0.0,0.0,0.0,0.0,0.0,0.0,0.0,0.0,0.0,0.0,0.0,0.0,0.0,0.0,0.0,0.0,0.0,0.0,0.0,0.0,0.0,0.0,0.0,0.0,0.0,0.0,0.0,0.0,0.0,0.0,0.0,0.0,0.0,0.0,0.0,0.0,0.0,0.0,0.0,0.0,0.0,0.0,0.0,0.0,0.0,0.0,0.0,0.0,0.0,0.0,0.0,0.0,0.0,0.0,0.0,0.0,0.0,0.0,0.0,0.0,0.0,0.0,0.0,0.0,0.0,0.0,0.0,0.0,-0.5608,-0.5203,-0.4801,-0.4324,0.0,0.0,0.0,0.0,0.0,0.0,0.0,0.0,0.0,0.0,0.0,0.0,0.0,0.0,0.0,0.0,0.0,0.0,0.0,0.0,0.0,0.0,0.0,0.0,0.0,0.0,0.0,0.0,0.0,0.0,0.0,0.0,0.0,0.0,0.0,0.0,0.0,0.0,0.0,0.0,0.0,0.0,0.0,0.0,0.0,0.0,0.0,0.0,0.0,0.0,0.0,0.0,0.0,0.0,0.0,0.0,0.0,0.0,0.0,0.0,0.0,0.0,0.0,0.0,0.0,0.0,0.0,0.0,0.0,0.0,0.0,0.0,0.0,0.0,0.0,0.0,0.0,0.0,0.0,0.0,0.0,0.0,0.0,0.0,0.0,0.0,0.0,0.0,0.0,0.0,0.0,0.0,0.0,0.0,0.0,0.0,0.0,0.0,0.0,0.0,0.0,0.0,0.0,0.0,0.0,0.0,0.0,0.0,0.0,0.0,0.0,-0.5972,-0.5509,-0.5238,0.0,-0.4344,0.0,0.0,0.0,0.0,0.0,0.0,0.0,0.0,0.0,0.0,0.0,0.0,0.0,0.0,0.0,0.0,0.0,0.0,0.0,0.0,0.0,0.0,0.0,0.0,0.0,0.0,0.0,0.0,0.0,0.0,0.0,0.0,0.0,0.0,0.0,0.0,0.0,0.0,0.0,0.0,0.0,0.0,0.0,0.0,0.0,0.0,0.0,0.0,0.0,0.0,0.0,0.0,0.0,0.0,0.0,0.0,0.0,0.0,0.0,0.0,0.0,0.0,0.0,0.0,0.0,0.0,0.0,0.0,0.0,0.0,0.0,0.0,0.0,0.0,0.0,0.0,0.0,0.0,0.0,0.0,0.0,0.0,0.0,0.0,0.0,0.0,0.0,0.0,0.0,0.0,0.0,0.0,0.0,0.0,0.0,0.0,0.0,0.0,0.0,0.0,0.0,0.0,0.0,0.0,0.0,0.0,0.0,0.0,0.0,0.0,0.0,0.0,-0.5584,-0.5042,-0.4445,0.0,0.0,0.0,0.0,0.0,0.0,0.0,0.0,0.0,0.0,0.0,0.0,0.0,0.0,0.0,0.0,0.0,0.0,0.0,0.0,0.0,0.0,0.0,0.0,0.0,0.0,0.0,0.0,0.0,0.0,0.0,0.0,0.0,0.0,0.0,0.0,0.0,0.0,0.0,0.0,0.0,0.0,0.0,0.0,0.0,0.0,0.0,0.0,0.0,0.0,0.0,0.0,0.0,0.0,0.0,0.0,0.0,0.0,0.0,0.0,0.0,0.0,0.0,0.0,0.0,0.0,0.0,0.0,0.0,0.0,0.0,0.0,0.0,0.0,0.0,0.0,0.0,0.0,0.0,0.0,0.0,0.0,0.0,0.0,0.0,0.0,0.0,0.0,0.0,0.0,0.0,0.0,0.0,0.0,0.0,0.0,0.0,0.0,0.0,0.0,0.0,0.0,0.0,0.0,0.0,0.0,0.0,0.0,0.0,0.0,-0.7234,-0.6625,-0.6171,-0.5696,-0.5028,0.0,0.0,0.0,0.0,0.0,0.0,0.0,0.0,0.0,0.0,0.0,0.0,0.0,0.0,0.0,0.0,0.0,0.0,0.0,0.0,0.0,0.0,0.0,0.0,0.0,0.0,0.0,0.0,0.0,0.0,0.0,0.0,0.0,0.0,0.0,0.0,0.0,0.0,0.0,0.0,0.0,0.0,0.0,0.0,0.0,0.0,0.0,0.0,0.0,0.0,0.0,0.0,0.0,0.0,0.0,0.0,0.0,0.0,0.0,0.0,0.0,0.0,0.0,0.0,0.0,0.0,0.0,0.0,0.0,0.0,0.0,0.0,0.0,0.0,0.0,0.0,0.0,0.0,0.0,0.0,0.0,0.0,0.0,0.0,0.0,0.0,0.0,0.0,0.0,0.0,0.0,0.0,0.0,0.0,0.0,0.0,0.0,0.0,0.0,0.0,0.0,0.0,0.0,0.0,0.0,0.0,0.0,0.0,0.0,0.0,0.0,0.0,0.0,0.0,-0.5972,0.0,0.0,0.0,0.0,0.0,0.0,0.0,0.0,0.0,0.0,0.0,0.0,0.0,0.0,0.0,0.0,0.0,0.0,0.0,0.0,0.0,0.0,0.0,0.0,0.0,0.0,0.0,0.0,0.0,0.0,0.0,0.0,0.0,0.0,0.0,0.0,0.0,0.0,0.0,0.0,0.0,0.0,0.0,0.0,0.0,0.0,0.0,0.0,0.0,0.0,0.0,0.0,0.0,0.0,0.0,0.0,0.0,0.0,0.0,0.0,0.0,0.0,0.0,0.0,0.0,0.0,0.0,0.0,0.0,0.0,0.0,0.0,0.0,0.0,0.0,0.0,0.0,0.0,0.0,0.0,0.0,0.0,0.0,0.0,0.0,0.0,0.0,0.0,0.0,0.0,0.0,0.0,0.0,0.0,0.0,0.0,0.0,0.0,0.0,0.0,0.0,0.0,0.0,0.0,0.0,0.0,0.0,0.0,0.0,0.0,0.0,0.0,0.0,0.0,0.0,0.0,0.0,0.0,0.0,0.0,0.0,0.0,0.0,0.0,0.0,0.0,0.0,0.0,0.0,0.0,0.0,0.0,0.0,0.0,0.0,0.0,0.0,0.0,0.0,0.0,0.0,0.0,0.0,0.0,0.0,0.0,0.0,0.0,0.0,0.0,0.0,0.0,0.0,0.0,0.0,0.0,0.0,0.0,0.0,0.0,0.0,0.0,0.0,0.0,0.0,0.0,0.0,0.0,0.0,0.0,0.0,0.0,0.0,0.0,0.0,0.0,0.0,0.0,0.0,0.0,0.0,0.0,0.0,0.0,0.0,0.0,0.0,0.0,0.0,0.0,0.0,0.0,0.0,0.0,0.0,0.0,0.0,0.0,0.0,0.0,0.0,0.0,0.0,0.0,0.0,0.0,0.0,0.0,0.0,0.0,0.0,0.0,0.0,0.0,0.0,0.0,0.0,0.0,0.0,0.0,0.0,0.0,0.0,0.0,0.0,0.0,0.0,0.0,0.0,0.0,0.0,0.0,0.0,0.0,0.0,0.0,0.0,0.0,0.0,0.0,0.0,0.0,0.0,0.0,0.0,0.0,0.0,0.0,0.0,0.0,0.0,0.0,0.0,0.0,0.0,0.0,0.0,0.0,0.0,0.0,0.0,0.0,0.0,0.0,0.0,0.0,0.0,0.0,0.0,0.0,0.0,0.0,0.0,0.0,0.0,0.0,0.0,0.0,0.0,0.0,0.0,0.0,0.0,0.0,0.0,0.0,0.0,0.0,0.0,0.0,0.0,0.0,0.0,0.0,0.0,0.0,0.0,0.0,0.0,0.0,0.0,0.0,0.0,0.0,0.0,0.0,0.0,0.0,0.0,0.0,0.0,0.0,0.0,0.0,0.0,0.0,0.0,0.0,0.0,0.0,0.0,0.0,0.0,0.0,0.0,0.0,0.0,0.0,0.0,0.0,0.0,0.0,0.0,0.0,0.0,0.0,0.0,0.0,0.0,0.0,0.0,0.0,0.0,0.0,0.0,0.0,0.0,0.0,0.0,0.0,0.0,0.0,0.0,0.0,0.0,0.0,0.0,0.0,0.0,0.0,0.0,0.0,0.0,0.0,0.0,0.0,0.0,0.0,0.0,0.0,0.0,0.0,0.0,0.0,0.0,0.0,0.0,0.0,0.0,0.0,0.0,0.0,0.0,0.0,0.0,0.0,0.0,0.0,0.0,0.0,0.0,0.0,0.0,0.0,0.0,0.0,0.0,0.0,0.0,0.0,0.0,0.0,0.0,0.0,0.0,0.0,0.0,0.0,0.0,0.0,0.0,0.0,0.0,0.0,0.0,0.0,0.0,0.0,0.0,0.0,0.0,0.0,0.0,0.0,0.0,0.0,0.0,0.0,0.0,0.0,0.0,0.0,0.0,0.0,0.0,0.0,0.0,0.0,0.0,0.0,0.0,0.0,0.0,0.0,0.0,0.0,0.0,0.0,0.0,0.0,0.0,0.0,0.0,0.0,0.0,0.0,0.0,0.0,0.0,0.0,0.0,0.0,0.0,0.0,0.0,0.0,0.0,0.0,0.0,0.0,0.0,0.0,0.0,0.0,0.0,0.0,0.0,0.0,0.0,0.0,0.0,0.0,0.0,0.0,0.0,0.0,0.0,0.0,0.0,0.0,0.0,0.0,0.0,0.0,0.0,0.0,0.0,0.0,0.0,0.0,0.0,0.0,0.0,0.0,0.0,0.0,0.0,0.0,0.0,0.0,0.0,0.0,0.0,0.0,0.0,0.0,0.0,0.0,0.0,0.0,0.0,0.0,0.0,0.0,0.0,0.0,0.0,0.0,0.0,0.0,0.0,0.0,0.0,0.0,0.0,0.0,0.0,0.0,0.0,0.0,0.0,0.0,0.0,0.0,0.0,0.0,0.0,0.0,0.0,0.0,0.0,0.0,0.0,0.0,0.0,0.0,0.0,0.0,0.0,0.0,0.0,0.0,0.0,0.0,0.0,0.0,0.0,0.0,0.0,0.0,0.0,0.0,0.0,0.0,0.0,0.0,0.0,0.0,0.0,0.0,0.0,0.0,0.0,0.0,0.0,0.0,0.0,0.0,0.0,0.0,0.0,0.0,0.0,0.0,0.0,0.0,0.0,0.0,0.0,0.0,0.0,0.0,0.0,0.0,0.0,0.0,0.0,0.0,0.0,0.0,0.0,0.0,0.0,0.0,0.0,0.0,0.0,0.0,0.0,0.0,0.0,0.0,0.0,0.0,0.0,0.0,0.0,0.0,0.0,0.0,0.0,0.0,0.0,0.0,0.0,0.0,0.0,0.0,0.0,0.0,0.0,0.0,0.0,0.0,0.0,0.0,0.0,0.0,0.0,0.0,0.0,0.0,0.0,0.0,0.0,0.0,0.0,0.0,0.0,0.0,0.0,0.0,0.0,0.0,0.0,0.0,0.0,0.0,0.0,0.0,0.0,0.0,0.0,0.0,0.0,0.0,0.0,0.0,0.0,0.0,0.0,0.0,0.0,0.0,0.0,0.0,0.0,0.0,0.0,0.0,0.0,0.0,0.0,0.0,0.0,0.0,0.0,0.0,0.0,0.0,0.0,0.0,0.0,0.0,0.0,0.0,0.0,0.0,0.0,0.0,0.0,0.0,0.0,0.0,0.0,0.0,0.0,0.0,0.0,0.0,0.0,0.0,0.0,0.0,0.0,0.0,0.0,0.0,0.0,0.0,0.0,0.0,0.0,0.0,0.0,0.0,0.0,0.0,0.0,0.0,0.0,0.0,0.0,0.0,0.0,0.0,0.0,0.0,0.0,0.0,0.0,0.0,0.0,0.0,0.0,0.0,0.0,0.0,0.0,0.0,0.0,0.0,0.0,0.0,0.0,0.0,0.0,0.0,0.0,0.0,0.0,0.0,0.0,0.0,0.0,0.0,0.0,0.0,0.0,0.0,0.0,0.0,0.0,0.0,0.0,0.0,0.0,0.0,0.0,0.0,0.0,0.0,0.0,0.0,0.0,0.0,0.0,0.0,0.0,0.0,0.0,0.0,0.0,0.0,0.0,0.0,0.0,0.0,0.0,0.0,0.0,0.0,0.0,0.0,0.0,0.0,0.0,0.0,0.0,0.0,0.0,0.0,0.0,0.0,0.0,0.0,0.0,0.0,0.0,0.0,0.0,0.0,0.0,0.0,0.0,0.0,0.0,0.0,0.0,0.0,0.0,0.0,0.0,0.0,0.0,0.0,0.0,0.0,0.0,0.0,0.0,0.0,0.0,0.0,0.0,0.0,0.0,0.0,0.0,0.0,0.0,0.0,0.0,0.0,0.0,0.0,0.0,0.0,0.0,0.0,0.0,0.0,0.0,0.0,0.0,0.0,0.0,0.0,0.0,0.0,0.0,0.0,0.0,0.0,0.0,0.0,0.0,0.0,0.0,0.0,0.0,0.0,0.0,0.0,0.0,0.0,0.0,0.0,0.0,0.0,0.0,0.0,0.0,0.0,0.0,0.0,0.0,0.0,0.0,0.0,0.0,0.0,0.0,0.0,0.0,0.0,0.0,0.0,0.0,0.0,0.0,0.0,0.0,0.0,0.0,0.0,0.0,0.0,0.0,0.0,0.0,0.0,0.0,0.0,0.0,0.0,0.0,0.0,0.0,0.0,0.0,0.0,0.0,0.0,0.0,0.0,0.0,0.0,0.0,0.0,0.0,0.0,0.0,0.0,0.0,0.0,0.0,0.0,0.0,0.0,0.0,0.0,0.0,0.0,0.0,0.0,0.0,0.0,0.0,0.0,0.0,0.0,0.0,0.0,0.0,0.0,0.0,0.0,0.0,0.0,0.0,0.0,0.0,0.0,0.0,0.0,0.0,0.0]}]]]